[[{"header":{"parameterUnit":"m.s-1","parameterCategory":1,"la1":31.0,"la2":29.5877,"lo1":-88.7671,"lo2":-86.6584,"dy":0.0162,"dx":0.0185,"nx":115,"ny":88,"refTime":"2024-06-08T06:00:00:Z","depth":0,"parameterNumber":2,"parameterNumberName":"U-component_of_WINDS"},"data":[0.0,0.0,0.0,0.0,0.0,0.0,0.0,0.0,0.0,0.0,0.0,0.0,0.0,0.0,0.0,0.0,0.0,0.0,0.0,0.0,0.0,0.0,0.0,0.0,0.0,0.0,0.0,0.0,0.0,0.0,0.0,0.0,0.0,0.0,0.0,0.0,0.0,0.0,0.0,0.0,0.0,0.0,0.0,0.0,0.0,0.0,0.0,0.0,0.0,0.0,0.0,0.0,0.0,0.0,0.0,0.0,0.0,0.0,0.0,0.0,0.0,0.0,0.0,0.0,0.0,0.0,0.0,0.0,0.0,0.0,0.0,0.0,0.0,0.0,0.0,0.0,0.0,0.0,0.0,0.0,0.0,0.0,0.0,0.0,0.0,0.0,0.0,0.0,0.0,0.0,0.0,0.0,0.0,0.0,0.0,0.0,0.0,0.0,0.0,0.0,0.0,0.0,0.0,0.0,0.0,0.0,0.0,0.0,0.0,0.0,0.0,0.0,0.0,0.0,0.0,0.0,0.0,0.0,0.0,0.0,0.0,0.0,0.0,0.0,0.0,0.0,0.0,0.0,0.0,0.0,0.0,0.0,0.0,0.0,0.0,0.0,0.0,0.0,0.0,0.0,0.0,0.0,0.0,0.0,0.0,0.0,0.0,0.0,0.0,0.0,0.0,0.0,0.0,0.0,0.0,0.0,0.0,0.0,0.0,0.0,0.0,0.0,0.0,0.0,0.0,0.0,0.0,0.0,0.0,0.0,0.0,0.0,0.0,0.0,0.0,0.0,0.0,0.0,0.0,0.0,0.0,0.0,0.0,0.0,0.0,0.0,0.0,0.0,0.0,0.0,0.0,0.0,0.0,0.0,0.0,0.0,0.0,0.0,0.0,0.0,0.0,0.0,0.0,0.0,0.0,0.0,0.0,0.0,0.0,0.0,0.0,0.0,0.0,0.0,0.0,0.0,0.0,0.0,0.0,0.0,0.0,0.0,0.0,0.0,0.0,0.0,0.0,0.0,0.0,0.0,0.0,0.0,0.0,0.0,0.0,0.0,0.0,0.0,0.0,0.0,0.0,0.0,0.0,0.0,0.0,0.0,0.0,0.0,0.0,0.0,0.0,0.0,0.0,0.0,0.0,0.0,0.0,0.0,0.0,0.0,0.0,0.0,0.0,0.0,0.0,0.0,0.0,0.0,0.0,0.0,0.0,0.0,0.0,0.0,0.0,0.0,0.0,0.0,0.0,0.0,0.0,0.0,0.0,0.0,0.0,0.0,0.0,0.0,0.0,0.0,0.0,0.0,0.0,0.0,0.0,0.0,0.0,0.0,0.0,0.0,0.0,0.0,0.0,0.0,0.0,0.0,0.0,0.0,0.0,0.0,0.0,0.0,0.0,0.0,0.0,0.0,0.0,0.0,0.0,0.0,0.0,0.0,0.0,0.0,0.0,0.0,0.0,0.0,0.0,0.0,0.0,0.0,0.0,0.0,0.0,0.0,0.0,0.0,0.0,0.0,0.0,0.0,0.0,0.0,0.0,0.0,0.0,0.0,0.0,0.0,0.0,0.0,0.0,0.0,0.0,0.0,0.0,0.0,0.0,0.0,0.0,0.0,0.0,0.0,0.0,0.0,0.0,0.0,0.0,0.0,0.0,0.0,0.0,0.0,0.0,0.0,0.0,0.0,0.0,0.0,0.0,0.0,0.0,0.0,0.0,0.0,0.0,0.0,0.0,0.0,0.0,0.0,0.0,0.0,0.0,0.0,0.0,0.0,0.0,0.0,0.0,0.0,0.0,0.0,0.0,0.0,0.0,0.0,0.0,0.0,0.0,0.0,0.0,0.0,0.0,0.0,0.0,0.0,0.0,0.0,0.0,0.0,0.0,0.0,0.0,0.0,0.0,0.0,0.0,0.0,0.0,0.0,0.0,0.0,0.0,0.0,0.0,0.0,0.0,0.0,0.0,0.0,0.0,0.0,0.0,0.0,0.0,0.0,0.0,0.0,0.0,0.0,0.0,0.0,0.0,0.0,0.0,0.0,0.0,0.0,0.0,0.0,0.0,0.0,0.0,0.0,0.0,0.0,0.0,0.0,0.0,0.0,0.0,0.0,0.0,0.0,0.0,0.0,0.0,0.0,0.0,0.0,0.0,0.0,0.0,0.0,0.0,0.0,0.0,0.0,0.0,0.0,0.0,0.0,0.0,0.0,0.0,0.0,0.0,0.0,0.0,0.0,0.0,0.0,0.0,0.0,0.0,0.0,0.0,0.0,0.0,0.0,0.0,0.0,0.0,0.0,0.0,0.0,0.0,0.0,0.0,0.0,0.0,0.0,0.0,0.0,0.0,0.0,0.0,0.0,0.0,0.0,0.0,0.0,0.0,0.0,0.0,0.0,0.0,0.0,0.0,0.0,0.0,0.0,0.0,0.0,0.0,0.0,0.0,0.0,0.0,0.0,0.0,0.0,0.0,0.0,0.0,0.0,0.0,0.0,0.0,0.0,0.0,0.0,0.0,0.0,0.0,0.0,0.0,0.0,0.0,0.0,0.0,0.0,0.0,0.0,0.0,0.0,0.0,0.0,0.0,0.0,0.0,0.0,0.0,0.0,0.0,0.0,0.0,0.0,0.0,0.0,0.0,0.0,0.0,0.0,0.0,0.0,0.0,0.0,0.0,0.0,0.0,0.0,0.0,0.0,0.0,0.0,0.0,0.0,0.0,0.0,0.0,0.0,0.0,0.0,0.0,0.0,0.0,0.0,0.0,0.0,0.0,0.0,0.0,0.0,0.0,0.0,0.0,0.0,0.0,0.0,0.0,0.0,0.0,0.0,0.0,0.0,0.0,0.0,0.0,0.0,0.0,0.0,0.0,0.0,0.0,0.0,0.0,0.0,0.0,0.0,0.0,0.0,0.0,0.0,0.0,0.0,0.0,0.0,0.0,0.0,0.0,0.0,0.0,0.0,0.0,0.0,0.0,0.0,0.0,0.0,0.0,0.0,0.0,0.0,0.0,0.0,0.0,0.0,0.0,0.0,0.0,0.0,0.0,0.0,0.0,0.0,0.0,0.0,0.0,0.0,0.0,0.0,0.0,0.0,0.0,0.0,0.0,0.0,0.0,0.0,0.0,0.0,0.0,0.0,0.0,0.0,0.0,0.0,0.0,0.0,0.0,0.0,0.0,0.0,0.0,0.0,0.0,0.0,0.0,0.0,0.0,0.0,0.0,0.0,0.0,0.0,0.0,0.0,0.0,0.0,0.0,0.0,0.0,0.0,0.0,0.0,0.0,0.0,0.0,0.0,0.0,0.0,0.0,0.0,0.0,0.0,0.0,0.0,0.0,0.0,0.0,0.0,0.0,0.0,0.0,0.0,0.0,0.0,0.0,0.0,0.0,0.0,0.0,0.0,0.0,0.0,0.0,0.0,0.0,0.0,0.0,0.0,0.0,0.0,0.0,0.0,0.0,0.0,0.0,0.0,0.0,0.0,0.0,0.0,0.0,0.0,0.0,0.0,0.0,0.0,0.0,0.0,0.0,0.0,0.0,0.0,0.0,0.0,0.0,0.0,0.0,0.0,0.0,0.0,0.0,0.0,0.0,0.0,0.0,0.0,0.0,0.0,0.0,0.0,0.0,0.0,0.0,0.0,0.0,0.0,0.0,0.0,0.0,0.0,0.0,0.0,0.0,0.0,0.0,0.0,0.0,0.0,0.0,0.0,0.0,0.0,0.0,0.0,0.0,0.0,0.0,0.0,0.0,0.0,0.0,0.0,0.0,0.0,0.0,0.0,0.0,0.0,0.0,0.0,0.0,0.0,0.0,0.0,0.0,0.0,0.0,0.0,0.0,0.0,0.0,0.0,0.0,0.0,0.0,0.0,0.0,0.0,0.0,0.0,0.0,0.0,0.0,0.0,0.0,0.0,0.0,0.0,0.0,0.0,0.0,0.0,0.0,0.0,0.0,0.0,0.0,0.0,0.0,0.0,0.0,0.0,0.0,0.0,0.0,0.0,0.0,0.0,0.0,0.0,0.0,0.0,0.0,0.0,0.0,0.0,0.0,0.0,0.0,0.0,0.0,0.0,0.0,0.0,0.0,0.0,0.0,0.0,0.0,0.0,0.0,0.0,0.0,0.0,0.0,0.0,0.0,0.0,0.0,0.0,0.0,0.0,0.0,0.0,0.0,0.0,0.0,0.0,0.0,0.0,0.0,0.0,0.0,0.0,0.0,0.0,0.0,0.0,0.0,0.0,0.0,0.0,0.0,0.0,0.0,0.0,0.0,0.0,0.0,0.0,-1.4316,0.0,0.0,0.0,0.0,0.0,0.0,0.0,0.0,0.0,0.0,0.0,0.0,0.0,0.0,0.0,0.0,0.0,0.0,0.0,0.0,0.0,0.0,0.0,0.0,0.0,0.0,0.0,0.0,0.0,0.0,0.0,0.0,0.0,0.0,0.0,0.0,0.0,0.0,0.0,0.0,0.0,0.0,0.0,0.0,0.0,0.0,0.0,0.0,0.0,0.0,0.0,0.0,0.0,0.0,0.0,0.0,0.0,0.0,0.0,0.0,0.0,0.0,0.0,0.0,0.0,0.0,0.0,0.0,0.0,0.0,0.0,0.0,0.0,0.0,0.0,0.0,0.0,0.0,0.0,0.0,0.0,0.0,0.0,0.0,0.0,0.0,0.0,0.0,0.0,0.0,0.0,0.0,0.0,0.0,0.0,0.0,0.0,0.0,0.0,0.0,0.0,0.0,0.0,0.0,0.0,0.0,0.0,0.0,0.0,0.0,-1.4144,-1.4144,-1.4144,-1.4127,-1.4141,0.0,0.0,0.0,0.0,0.0,0.0,0.0,0.0,0.0,0.0,0.0,0.0,0.0,0.0,0.0,0.0,0.0,0.0,0.0,0.0,0.0,0.0,0.0,0.0,0.0,0.0,0.0,0.0,0.0,0.0,0.0,0.0,0.0,0.0,0.0,0.0,0.0,0.0,0.0,0.0,0.0,0.0,0.0,0.0,0.0,0.0,0.0,0.0,0.0,0.0,0.0,0.0,0.0,0.0,0.0,0.0,0.0,0.0,0.0,0.0,0.0,0.0,0.0,0.0,0.0,0.0,0.0,0.0,0.0,0.0,0.0,0.0,0.0,0.0,0.0,0.0,0.0,0.0,0.0,0.0,0.0,0.0,0.0,0.0,0.0,0.0,0.0,0.0,0.0,0.0,0.0,0.0,0.0,0.0,0.0,0.0,0.0,0.0,0.0,0.0,0.0,0.0,0.0,0.0,0.0,0.0,0.0,0.0,0.0,0.0,0.0,0.0,-1.4582,-1.4599,-1.4595,0.0,0.0,0.0,0.0,0.0,0.0,0.0,0.0,0.0,0.0,0.0,0.0,0.0,0.0,0.0,0.0,0.0,0.0,0.0,0.0,0.0,0.0,0.0,0.0,0.0,0.0,0.0,0.0,0.0,0.0,0.0,0.0,0.0,0.0,0.0,0.0,0.0,0.0,0.0,0.0,0.0,0.0,0.0,0.0,0.0,0.0,0.0,0.0,0.0,0.0,0.0,0.0,0.0,0.0,0.0,0.0,0.0,0.0,0.0,0.0,0.0,0.0,0.0,0.0,0.0,0.0,0.0,0.0,0.0,0.0,0.0,0.0,0.0,0.0,0.0,0.0,0.0,0.0,0.0,0.0,0.0,0.0,0.0,0.0,0.0,0.0,0.0,0.0,0.0,0.0,0.0,0.0,0.0,0.0,0.0,0.0,0.0,0.0,0.0,0.0,0.0,0.0,0.0,0.0,0.0,0.0,0.0,0.0,0.0,0.0,-1.4772,-1.6287,-1.6359,0.0,-1.6379,0.0,0.0,0.0,0.0,0.0,0.0,0.0,0.0,0.0,0.0,0.0,0.0,0.0,0.0,0.0,0.0,0.0,0.0,0.0,0.0,0.0,0.0,0.0,0.0,0.0,0.0,0.0,0.0,0.0,0.0,0.0,0.0,0.0,0.0,0.0,0.0,0.0,0.0,0.0,0.0,0.0,0.0,0.0,0.0,0.0,0.0,0.0,0.0,0.0,0.0,0.0,0.0,0.0,0.0,0.0,0.0,0.0,0.0,0.0,0.0,0.0,0.0,0.0,0.0,0.0,0.0,0.0,0.0,0.0,0.0,0.0,0.0,0.0,0.0,0.0,0.0,0.0,0.0,0.0,0.0,0.0,0.0,0.0,0.0,0.0,0.0,0.0,0.0,0.0,0.0,0.0,0.0,0.0,0.0,0.0,0.0,0.0,0.0,0.0,0.0,0.0,0.0,0.0,0.0,0.0,0.0,0.0,0.0,0.0,0.0,0.0,-1.6468,-1.6494,-1.6494,0.0,0.0,0.0,0.0,0.0,0.0,0.0,0.0,0.0,0.0,0.0,0.0,0.0,0.0,0.0,0.0,0.0,0.0,0.0,0.0,0.0,0.0,0.0,0.0,0.0,0.0,0.0,0.0,0.0,0.0,0.0,0.0,0.0,0.0,0.0,0.0,0.0,0.0,0.0,0.0,0.0,0.0,0.0,0.0,0.0,0.0,0.0,0.0,0.0,0.0,0.0,0.0,0.0,0.0,0.0,0.0,0.0,0.0,0.0,0.0,0.0,0.0,0.0,0.0,0.0,0.0,0.0,0.0,0.0,0.0,0.0,0.0,0.0,0.0,0.0,0.0,0.0,0.0,0.0,0.0,0.0,0.0,0.0,0.0,0.0,0.0,0.0,0.0,0.0,0.0,0.0,0.0,0.0,0.0,0.0,0.0,0.0,0.0,0.0,0.0,0.0,0.0,0.0,0.0,0.0,0.0,0.0,0.0,0.0,0.0,-1.5983,0.0,-1.7042,-1.6937,-1.6657,-1.6153,0.0,0.0,0.0,0.0,0.0,0.0,0.0,0.0,0.0,0.0,0.0,0.0,0.0,0.0,0.0,0.0,0.0,0.0,0.0,0.0,0.0,0.0,0.0,0.0,0.0,0.0,0.0,0.0,0.0,0.0,0.0,0.0,0.0,0.0,0.0,0.0,0.0,0.0,0.0,0.0,0.0,0.0,0.0,0.0,0.0,0.0,0.0,0.0,0.0,0.0,0.0,0.0,0.0,0.0,0.0,0.0,0.0,0.0,0.0,0.0,0.0,0.0,0.0,0.0,0.0,0.0,0.0,0.0,0.0,0.0,0.0,0.0,0.0,0.0,0.0,0.0,0.0,0.0,0.0,0.0,0.0,0.0,0.0,0.0,0.0,0.0,0.0,0.0,0.0,0.0,0.0,0.0,0.0,0.0,0.0,0.0,0.0,0.0,0.0,0.0,0.0,0.0,0.0,0.0,0.0,0.0,0.0,0.0,0.0,-1.7167,-1.7173,-1.8715,-1.8296,-1.7238,0.0,0.0,0.0,0.0,0.0,0.0,0.0,0.0,0.0,0.0,0.0,0.0,0.0,0.0,0.0,0.0,0.0,0.0,0.0,0.0,0.0,0.0,0.0,0.0,0.0,0.0,0.0,0.0,0.0,0.0,0.0,0.0,0.0,0.0,0.0,0.0,0.0,0.0,0.0,0.0,0.0,0.0,0.0,0.0,0.0,0.0,0.0,0.0,0.0,0.0,0.0,0.0,0.0,0.0,0.0,0.0,0.0,0.0,0.0,0.0,0.0,0.0,0.0,0.0,0.0,0.0,0.0,0.0,0.0,0.0,0.0,0.0,0.0,0.0,0.0,0.0,0.0,0.0,0.0,0.0,0.0,0.0,0.0,0.0,0.0,0.0,0.0,0.0,0.0,0.0,0.0,0.0,0.0,0.0,0.0,0.0,0.0,0.0,0.0,0.0,0.0,0.0,0.0,0.0,0.0,0.0,0.0,0.0,0.0,-1.5597,-1.6133,-1.7565,0.0,-1.773,-1.6467,0.0,0.0,0.0,0.0,0.0,0.0,0.0,0.0,0.0,0.0,0.0,0.0,0.0,0.0,0.0,0.0,0.0,0.0,0.0,0.0,0.0,0.0,0.0,0.0,0.0,0.0,0.0,0.0,0.0,0.0,0.0,0.0,0.0,0.0,0.0,0.0,0.0,0.0,0.0,0.0,0.0,0.0,0.0,0.0,0.0,0.0,0.0,0.0,0.0,0.0,0.0,0.0,0.0,0.0,0.0,0.0,0.0,0.0,0.0,0.0,0.0,0.0,0.0,0.0,0.0,0.0,0.0,0.0,0.0,0.0,0.0,0.0,0.0,0.0,0.0,0.0,0.0,0.0,0.0,0.0,0.0,0.0,0.0,0.0,0.0,0.0,0.0,0.0,0.0,0.0,0.0,0.0,0.0,0.0,0.0,0.0,0.0,0.0,0.0,0.0,0.0,0.0,0.0,0.0,0.0,0.0,0.0,0.0,0.0,-1.5186,0.0,-1.8257,0.0,-1.7403,-1.5879,0.0,0.0,0.0,0.0,0.0,0.0,0.0,0.0,0.0,0.0,0.0,0.0,0.0,0.0,0.0,0.0,0.0,0.0,0.0,0.0,0.0,0.0,0.0,0.0,0.0,0.0,0.0,0.0,0.0,0.0,0.0,0.0,0.0,0.0,0.0,0.0,0.0,0.0,0.0,0.0,0.0,0.0,0.0,0.0,0.0,0.0,0.0,0.0,0.0,0.0,0.0,0.0,0.0,0.0,0.0,0.0,0.0,0.0,0.0,0.0,0.0,0.0,0.0,0.0,0.0,0.0,0.0,0.0,0.0,0.0,0.0,0.0,0.0,0.0,0.0,0.0,0.0,0.0,0.0,0.0,0.0,0.0,0.0,0.0,0.0,0.0,0.0,0.0,0.0,0.0,0.0,0.0,0.0,0.0,0.0,0.0,0.0,0.0,0.0,0.0,0.0,0.0,0.0,0.0,0.0,0.0,0.0,0.0,-1.5199,-1.7891,-1.9068,-1.9172,-1.8166,-1.746,-1.5565,0.0,0.0,0.0,0.0,0.0,0.0,0.0,0.0,0.0,0.0,0.0,0.0,0.0,0.0,0.0,0.0,0.0,0.0,0.0,0.0,0.0,0.0,0.0,0.0,0.0,0.0,0.0,0.0,0.0,0.0,0.0,0.0,0.0,0.0,0.0,0.0,0.0,0.0,0.0,0.0,0.0,0.0,0.0,0.0,0.0,0.0,0.0,0.0,0.0,0.0,0.0,0.0,0.0,0.0,0.0,0.0,0.0,0.0,0.0,0.0,0.0,0.0,0.0,0.0,0.0,0.0,0.0,0.0,0.0,0.0,0.0,0.0,0.0,0.0,0.0,0.0,0.0,0.0,0.0,0.0,0.0,0.0,0.0,0.0,0.0,0.0,0.0,0.0,0.0,0.0,0.0,0.0,0.0,0.0,0.0,0.0,0.0,0.0,0.0,0.0,0.0,0.0,0.0,0.0,0.0,0.0,0.0,0.0,0.0,-1.631,-1.7826,-1.8845,-1.9159,-1.6754,-1.5474,0.0,0.0,0.0,0.0,0.0,0.0,0.0,0.0,0.0,0.0,0.0,0.0,0.0,0.0,0.0,0.0,0.0,0.0,0.0,0.0,0.0,0.0,0.0,0.0,0.0,0.0,0.0,0.0,0.0,0.0,0.0,0.0,0.0,0.0,0.0,0.0,0.0,0.0,0.0,0.0,0.0,0.0,0.0,0.0,0.0,0.0,0.0,0.0,0.0,0.0,0.0,0.0,0.0,0.0,0.0,0.0,0.0,0.0,0.0,0.0,0.0,0.0,0.0,0.0,0.0,0.0,0.0,0.0,0.0,0.0,0.0,0.0,0.0,0.0,0.0,0.0,0.0,0.0,0.0,0.0,0.0,0.0,0.0,0.0,0.0,0.0,0.0,0.0,0.0,0.0,0.0,0.0,0.0,0.0,0.0,0.0,0.0,0.0,0.0,0.0,0.0,0.0,0.0,0.0,0.0,0.0,0.0,0.0,0.0,-1.7173,-1.8584,-1.9603,-2.0137,-1.7565,-1.6205,-1.6166,0.0,0.0,0.0,0.0,0.0,0.0,0.0,0.0,0.0,0.0,0.0,0.0,0.0,0.0,0.0,0.0,0.0,0.0,0.0,0.0,0.0,0.0,0.0,0.0,0.0,0.0,0.0,0.0,0.0,0.0,0.0,0.0,0.0,0.0,0.0,0.0,0.0,0.0,0.0,0.0,0.0,0.0,0.0,0.0,0.0,0.0,0.0,0.0,0.0,0.0,0.0,0.0,0.0,0.0,0.0,0.0,0.0,0.0,0.0,0.0,0.0,0.0,0.0,0.0,0.0,0.0,0.0,0.0,0.0,0.0,0.0,0.0,0.0,0.0,0.0,0.0,0.0,0.0,0.0,0.0,0.0,0.0,0.0,0.0,0.0,0.0,0.0,0.0,0.0,0.0,0.0,0.0,0.0,0.0,0.0,0.0,0.0,0.0,0.0,0.0,0.0,0.0,0.0,0.0,0.0,0.0,0.0,0.0,-1.9943,-2.1093,-2.1433,-2.0935,-1.9627,-1.7669,0.0,0.0,0.0,0.0,0.0,0.0,0.0,0.0,0.0,0.0,0.0,0.0,0.0,0.0,0.0,0.0,0.0,0.0,0.0,0.0,0.0,0.0,0.0,0.0,0.0,0.0,0.0,0.0,0.0,0.0,0.0,0.0,0.0,0.0,0.0,0.0,0.0,0.0,0.0,0.0,0.0,0.0,0.0,0.0,0.0,0.0,0.0,0.0,0.0,0.0,0.0,0.0,0.0,0.0,0.0,0.0,0.0,0.0,0.0,0.0,0.0,0.0,0.0,0.0,0.0,0.0,0.0,0.0,0.0,0.0,0.0,0.0,0.0,0.0,0.0,0.0,0.0,0.0,0.0,0.0,0.0,0.0,0.0,0.0,0.0,0.0,0.0,0.0,0.0,0.0,0.0,0.0,0.0,0.0,0.0,0.0,0.0,0.0,0.0,0.0,0.0,0.0,0.0,0.0,0.0,0.0,0.0,0.0,0.0,-2.1708,-2.3278,-2.3827,-2.3184,-2.0845,-1.9224,0.0,0.0,0.0,0.0,0.0,0.0,0.0,0.0,0.0,0.0,0.0,0.0,0.0,0.0,0.0,0.0,0.0,0.0,0.0,0.0,0.0,0.0,0.0,0.0,0.0,0.0,0.0,0.0,0.0,0.0,0.0,0.0,0.0,0.0,0.0,0.0,0.0,0.0,0.0,0.0,0.0,0.0,0.0,0.0,0.0,0.0,0.0,0.0,0.0,0.0,0.0,0.0,0.0,0.0,0.0,0.0,0.0,0.0,0.0,0.0,0.0,0.0,0.0,0.0,0.0,0.0,0.0,0.0,0.0,0.0,0.0,0.0,0.0,0.0,0.0,0.0,0.0,0.0,0.0,0.0,0.0,0.0,0.0,0.0,0.0,0.0,0.0,0.0,0.0,0.0,0.0,0.0,0.0,0.0,0.0,0.0,0.0,0.0,0.0,0.0,0.0,0.0,0.0,0.0,0.0,0.0,0.0,0.0,-2.1132,-2.3095,-2.4822,-2.5555,-2.5197,-2.2871,-2.0923,0.0,0.0,0.0,0.0,0.0,0.0,0.0,0.0,0.0,0.0,0.0,0.0,0.0,0.0,0.0,0.0,0.0,0.0,0.0,0.0,0.0,0.0,0.0,0.0,0.0,0.0,0.0,0.0,0.0,0.0,0.0,0.0,0.0,0.0,0.0,0.0,0.0,0.0,0.0,0.0,0.0,0.0,0.0,0.0,0.0,0.0,0.0,0.0,0.0,0.0,0.0,0.0,0.0,0.0,0.0,0.0,0.0,0.0,0.0,0.0,0.0,0.0,0.0,0.0,0.0,0.0,0.0,0.0,0.0,0.0,0.0,0.0,0.0,0.0,0.0,0.0,0.0,0.0,0.0,0.0,0.0,0.0,0.0,0.0,0.0,0.0,0.0,0.0,0.0,0.0,0.0,0.0,0.0,0.0,0.0,0.0,0.0,0.0,0.0,0.0,0.0,0.0,0.0,0.0,0.0,0.0,0.0,0.0,-2.1995,-2.4044,-2.585,-2.6758,-2.6654,-2.5014,-2.257,0.0,0.0,0.0,0.0,0.0,0.0,0.0,0.0,0.0,0.0,0.0,0.0,0.0,0.0,0.0,0.0,0.0,0.0,0.0,0.0,0.0,0.0,0.0,0.0,0.0,0.0,0.0,0.0,0.0,0.0,0.0,0.0,0.0,0.0,0.0,0.0,0.0,0.0,0.0,0.0,0.0,0.0,0.0,0.0,0.0,0.0,0.0,0.0,0.0,0.0,0.0,0.0,0.0,0.0,0.0,0.0,0.0,0.0,0.0,0.0,0.0,0.0,0.0,0.0,0.0,0.0,0.0,0.0,0.0,0.0,0.0,0.0,0.0,0.0,0.0,0.0,0.0,0.0,0.0,0.0,0.0,0.0,0.0,0.0,0.0,0.0,0.0,0.0,0.0,0.0,0.0,0.0,0.0,0.0,0.0,0.0,0.0,0.0,0.0,0.0,0.0,0.0,0.0,0.0,0.0,0.0,0.0,0.0,-2.3132,-2.4125,-2.6229,-2.7131,-2.6719,-2.5014,-2.3091,0.0,0.0,0.0,0.0,0.0,0.0,0.0,0.0,0.0,0.0,0.0,0.0,0.0,0.0,0.0,0.0,0.0,0.0,0.0,0.0,0.0,0.0,0.0,0.0,0.0,0.0,0.0,0.0,0.0,0.0,0.0,0.0,0.0,0.0,0.0,0.0,0.0,0.0,0.0,0.0,0.0,0.0,0.0,0.0,0.0,0.0,0.0,0.0,-1.1965,0.0,0.0,0.0,0.0,0.0,0.0,0.0,0.0,0.0,0.0,0.0,0.0,0.0,0.0,0.0,0.0,0.0,0.0,0.0,0.0,0.0,0.0,0.0,0.0,0.0,0.0,0.0,0.0,0.0,0.0,0.0,0.0,0.0,0.0,0.0,0.0,0.0,0.0,0.0,0.0,0.0,0.0,0.0,0.0,0.0,0.0,0.0,0.0,0.0,0.0,0.0,0.0,0.0,0.0,0.0,0.0,0.0,0.0,0.0,-2.3744,-2.4892,-2.6589,-2.7379,-2.704,-2.5636,-2.3851,0.0,0.0,0.0,0.0,0.0,0.0,0.0,0.0,0.0,0.0,0.0,0.0,0.0,0.0,0.0,0.0,0.0,0.0,0.0,0.0,0.0,0.0,0.0,0.0,0.0,0.0,0.0,0.0,0.0,0.0,0.0,0.0,0.0,0.0,0.0,0.0,0.0,0.0,0.0,0.0,0.0,0.0,0.0,0.0,0.0,0.0,0.0,0.0,0.0,0.0,0.0,0.0,0.0,0.0,0.0,0.0,0.0,0.0,0.0,0.0,0.0,0.0,0.0,0.0,0.0,0.0,0.0,0.0,0.0,0.0,0.0,0.0,0.0,0.0,0.0,0.0,0.0,0.0,0.0,0.0,0.0,0.0,0.0,0.0,0.0,0.0,0.0,0.0,0.0,0.0,0.0,0.0,0.0,0.0,0.0,0.0,0.0,0.0,0.0,0.0,0.0,0.0,0.0,0.0,0.0,0.0,0.0,-2.1838,-2.4044,-2.5741,-2.6902,-2.7503,-2.7477,-2.6393,-2.4488,-2.1707,0.0,0.0,0.0,0.0,0.0,0.0,0.0,0.0,0.0,0.0,0.0,0.0,0.0,0.0,0.0,0.0,0.0,0.0,0.0,0.0,0.0,0.0,0.0,0.0,0.0,0.0,0.0,0.0,0.0,0.0,0.0,0.0,0.0,0.0,0.0,0.0,0.0,0.0,-1.2369,-1.3675,0.0,0.0,0.0,0.0,0.0,0.0,0.0,0.0,-1.37,0.0,0.0,0.0,0.0,0.0,0.0,0.0,0.0,0.0,0.0,0.0,0.0,0.0,0.0,0.0,0.0,0.0,0.0,0.0,0.0,0.0,0.0,0.0,0.0,0.0,0.0,0.0,0.0,0.0,0.0,0.0,0.0,0.0,0.0,0.0,0.0,0.0,0.0,0.0,0.0,0.0,0.0,0.0,0.0,0.0,0.0,0.0,0.0,0.0,0.0,0.0,0.0,0.0,0.0,0.0,0.0,-2.0371,-2.2243,-2.406,-2.5767,-2.6915,-2.7503,-2.7464,-2.6393,-2.4627,-2.2159,0.0,0.0,0.0,0.0,0.0,0.0,0.0,0.0,0.0,0.0,0.0,0.0,0.0,0.0,0.0,0.0,0.0,0.0,0.0,0.0,0.0,0.0,0.0,0.0,0.0,0.0,0.0,0.0,0.0,0.0,0.0,0.0,0.0,0.0,0.0,0.0,0.0,0.0,0.0,-1.4593,-1.5318,0.0,0.0,0.0,0.0,0.0,0.0,0.0,0.0,-1.3423,0.0,0.0,0.0,0.0,0.0,0.0,0.0,0.0,0.0,0.0,0.0,0.0,0.0,0.0,0.0,0.0,0.0,0.0,0.0,0.0,0.0,0.0,0.0,0.0,0.0,0.0,0.0,0.0,0.0,0.0,0.0,0.0,0.0,0.0,0.0,0.0,0.0,0.0,0.0,0.0,0.0,0.0,0.0,0.0,0.0,0.0,0.0,0.0,0.0,0.0,0.0,0.0,0.0,0.0,0.0,-2.0151,-2.2505,-2.4357,-2.5754,-2.6902,-2.7503,-2.7464,-2.5806,-2.3848,0.0,0.0,0.0,0.0,0.0,0.0,0.0,0.0,0.0,0.0,0.0,0.0,0.0,0.0,0.0,0.0,0.0,0.0,0.0,0.0,0.0,0.0,0.0,0.0,0.0,0.0,0.0,0.0,0.0,0.0,0.0,0.0,0.0,0.0,0.0,0.0,0.0,0.0,0.0,0.0,-1.4966,-1.5691,-1.5711,0.0,0.0,0.0,0.0,0.0,0.0,-1.4338,-1.3957,0.0,0.0,0.0,0.0,0.0,0.0,0.0,0.0,0.0,0.0,0.0,0.0,0.0,0.0,0.0,0.0,0.0,0.0,0.0,0.0,0.0,0.0,0.0,0.0,0.0,0.0,0.0,0.0,0.0,0.0,0.0,0.0,0.0,0.0,0.0,0.0,0.0,0.0,0.0,0.0,0.0,0.0,0.0,0.0,0.0,0.0,0.0,0.0,0.0,0.0,0.0,0.0,0.0,0.0,0.0,-1.9943,-2.2701,-2.4726,-2.5968,-2.6968,-2.7371,-2.7128,-2.5274,-2.3096,0.0,0.0,0.0,0.0,0.0,0.0,0.0,0.0,0.0,0.0,0.0,0.0,0.0,0.0,0.0,0.0,0.0,0.0,0.0,0.0,0.0,0.0,0.0,0.0,0.0,0.0,0.0,0.0,0.0,0.0,0.0,0.0,0.0,0.0,0.0,0.0,0.0,0.0,0.0,0.0,0.0,-1.627,-1.6306,-1.6066,0.0,0.0,0.0,0.0,-1.5636,-1.5373,0.0,0.0,0.0,0.0,0.0,0.0,0.0,0.0,0.0,0.0,0.0,0.0,0.0,0.0,0.0,0.0,0.0,0.0,0.0,0.0,0.0,0.0,0.0,0.0,0.0,0.0,0.0,0.0,0.0,0.0,0.0,0.0,0.0,0.0,0.0,0.0,0.0,0.0,0.0,0.0,0.0,0.0,0.0,0.0,0.0,0.0,0.0,0.0,0.0,0.0,0.0,0.0,0.0,0.0,0.0,0.0,-2.0517,-2.291,-2.4922,-2.6536,-2.721,-2.6976,-2.5952,-2.5132,-2.3124,0.0,0.0,0.0,0.0,0.0,0.0,0.0,0.0,0.0,0.0,0.0,0.0,0.0,0.0,0.0,0.0,0.0,0.0,0.0,0.0,0.0,0.0,0.0,0.0,0.0,0.0,0.0,0.0,0.0,0.0,0.0,0.0,0.0,0.0,0.0,0.0,0.0,0.0,0.0,0.0,0.0,-1.7564,-1.6152,-1.6717,-1.7002,0.0,0.0,0.0,-1.6766,-1.7052,0.0,0.0,0.0,0.0,0.0,0.0,0.0,0.0,0.0,0.0,0.0,0.0,0.0,0.0,0.0,0.0,0.0,0.0,0.0,0.0,0.0,0.0,0.0,0.0,0.0,0.0,0.0,0.0,0.0,0.0,0.0,0.0,0.0,0.0,0.0,0.0,0.0,0.0,0.0,0.0,0.0,0.0,0.0,0.0,0.0,0.0,0.0,0.0,0.0,0.0,0.0,0.0,0.0,0.0,0.0,-1.7695,-2.1093,-2.342,-2.5275,-2.6654,-2.7236,-2.7116,-2.6271,-2.4637,-2.235,0.0,0.0,0.0,0.0,0.0,0.0,0.0,0.0,0.0,0.0,0.0,0.0,0.0,0.0,0.0,0.0,0.0,0.0,0.0,0.0,0.0,0.0,0.0,0.0,0.0,0.0,0.0,0.0,0.0,0.0,0.0,0.0,0.0,0.0,0.0,0.0,0.0,0.0,0.0,0.0,0.0,0.0,-1.7372,-1.7481,0.0,0.0,0.0,-1.7197,-1.7602,0.0,0.0,0.0,0.0,0.0,0.0,0.0,0.0,0.0,0.0,0.0,0.0,0.0,0.0,0.0,0.0,0.0,0.0,0.0,0.0,0.0,0.0,0.0,0.0,0.0,0.0,0.0,0.0,0.0,0.0,0.0,0.0,0.0,0.0,0.0,0.0,0.0,0.0,0.0,0.0,0.0,0.0,0.0,0.0,0.0,0.0,0.0,0.0,0.0,0.0,0.0,0.0,0.0,0.0,0.0,0.0,0.0,-2.1694,-2.4008,-2.5764,-2.6844,-2.7301,-2.715,-2.6453,-2.4301,0.0,0.0,0.0,0.0,0.0,0.0,0.0,0.0,0.0,0.0,0.0,0.0,0.0,0.0,0.0,0.0,0.0,0.0,0.0,0.0,0.0,0.0,0.0,0.0,0.0,0.0,0.0,-0.7183,0.0,0.0,0.0,0.0,0.0,0.0,0.0,0.0,0.0,0.0,0.0,0.0,0.0,0.0,-1.7359,-1.8352,-1.8337,-1.8537,0.0,0.0,-1.8066,-1.8537,-1.838,-1.7703,0.0,0.0,0.0,0.0,0.0,0.0,0.0,0.0,0.0,0.0,0.0,0.0,0.0,0.0,0.0,0.0,0.0,0.0,0.0,0.0,0.0,0.0,0.0,0.0,0.0,0.0,0.0,0.0,0.0,0.0,0.0,0.0,0.0,0.0,0.0,0.0,0.0,0.0,0.0,0.0,0.0,0.0,0.0,0.0,0.0,0.0,0.0,0.0,0.0,0.0,0.0,0.0,0.0,0.0,0.0,-2.2283,-2.4579,-2.6276,-2.7419,-2.7477,-2.695,-2.5785,-2.44,-2.2342,0.0,0.0,0.0,0.0,0.0,0.0,0.0,0.0,0.0,0.0,0.0,0.0,0.0,0.0,0.0,0.0,0.0,0.0,0.0,0.0,0.0,0.0,0.0,0.0,0.0,0.0,0.0,0.0,0.0,0.0,0.0,0.0,0.0,0.0,0.0,0.0,0.0,0.0,0.0,0.0,0.0,-1.8392,-1.8414,-1.9326,-2.0192,0.0,0.0,-1.9307,-1.9717,-2.0088,-1.9512,-1.7051,0.0,0.0,0.0,0.0,0.0,0.0,0.0,0.0,0.0,0.0,0.0,0.0,0.0,0.0,0.0,0.0,0.0,0.0,0.0,0.0,0.0,0.0,0.0,0.0,0.0,0.0,0.0,0.0,0.0,0.0,0.0,0.0,0.0,0.0,0.0,0.0,0.0,0.0,0.0,0.0,0.0,0.0,0.0,0.0,0.0,0.0,0.0,0.0,0.0,0.0,0.0,0.0,0.0,-1.8911,-2.2375,-2.4648,-2.6341,-2.7438,-2.7423,-2.6997,-2.6153,-2.4758,-2.2581,0.0,0.0,0.0,0.0,0.0,0.0,0.0,0.0,0.0,0.0,0.0,0.0,0.0,0.0,0.0,0.0,0.0,0.0,0.0,0.0,0.0,0.0,0.0,0.0,0.0,0.0,0.0,0.0,-1.0112,-1.0456,-1.0876,0.0,0.0,0.0,0.0,0.0,0.0,0.0,0.0,0.0,0.0,-1.9033,-1.9823,-2.0435,0.0,0.0,-2.0909,-2.0508,-2.0664,-2.041,-1.9561,-1.7769,-1.7048,0.0,0.0,0.0,0.0,0.0,0.0,0.0,0.0,0.0,0.0,0.0,0.0,0.0,0.0,0.0,0.0,0.0,0.0,0.0,0.0,0.0,0.0,0.0,0.0,0.0,0.0,0.0,0.0,0.0,0.0,0.0,0.0,0.0,0.0,0.0,0.0,0.0,0.0,0.0,0.0,0.0,0.0,0.0,0.0,0.0,0.0,0.0,0.0,0.0,0.0,0.0,0.0,-1.9104,-2.2389,-2.4635,-2.6341,-2.7477,-2.7403,-2.7141,-2.6693,-2.5128,-2.3111,0.0,0.0,0.0,0.0,0.0,0.0,0.0,0.0,0.0,0.0,0.0,0.0,0.0,0.0,0.0,0.0,0.0,0.0,0.0,0.0,0.0,0.0,0.0,0.0,0.0,0.0,0.0,0.0,-1.1249,-1.1499,-1.1235,0.0,0.0,0.0,0.0,0.0,0.0,0.0,0.0,0.0,0.0,-1.9703,-2.1104,-2.1459,-2.1777,-2.2281,-2.1721,-2.1229,-2.1416,-2.0761,-1.9835,-1.8603,0.0,0.0,0.0,0.0,0.0,0.0,0.0,0.0,0.0,0.0,0.0,0.0,0.0,0.0,0.0,0.0,0.0,0.0,0.0,0.0,0.0,0.0,0.0,0.0,0.0,0.0,0.0,0.0,0.0,0.0,0.0,0.0,0.0,0.0,0.0,0.0,0.0,0.0,0.0,0.0,0.0,0.0,0.0,0.0,0.0,0.0,0.0,0.0,0.0,0.0,0.0,0.0,0.0,0.0,-2.2375,-2.4674,-2.6354,-2.7451,-2.7503,-2.749,-2.7425,-2.5536,-2.397,-2.2765,0.0,0.0,0.0,0.0,0.0,0.0,0.0,0.0,0.0,0.0,0.0,0.0,0.0,0.0,0.0,0.0,0.0,0.0,0.0,0.0,0.0,0.0,0.0,0.0,0.0,0.0,-1.0293,-1.1054,-1.1437,0.0,0.0,0.0,0.0,0.0,0.0,0.0,0.0,0.0,0.0,-1.9226,-2.0438,-2.1946,-2.2343,-2.2703,-2.3341,-2.2185,-2.1396,-2.1816,-2.1484,-2.0732,0.0,0.0,0.0,0.0,0.0,0.0,0.0,0.0,0.0,0.0,0.0,0.0,0.0,0.0,0.0,0.0,0.0,0.0,0.0,0.0,0.0,0.0,0.0,0.0,0.0,0.0,0.0,-1.7978,-1.6885,0.0,0.0,0.0,0.0,0.0,0.0,0.0,0.0,0.0,0.0,0.0,-2.2426,-2.355,0.0,0.0,0.0,0.0,0.0,0.0,0.0,0.0,0.0,0.0,0.0,0.0,-2.0453,-2.291,-2.524,-2.6765,-2.7464,-2.739,-2.7369,-2.7356,-2.6108,-2.4162,-2.15,0.0,0.0,0.0,0.0,0.0,0.0,0.0,0.0,0.0,0.0,0.0,0.0,0.0,0.0,0.0,0.0,0.0,0.0,0.0,0.0,0.0,0.0,0.0,0.0,0.0,-1.1695,0.0,0.0,0.0,0.0,0.0,0.0,0.0,0.0,0.0,0.0,0.0,-1.7999,-1.937,-2.0583,-2.1667,-2.249,-2.2742,-2.2978,0.0,0.0,0.0,0.0,0.0,0.0,0.0,0.0,0.0,0.0,0.0,0.0,0.0,0.0,-2.0664,-1.8403,-1.7656,-1.7402,-1.7516,0.0,0.0,0.0,0.0,0.0,0.0,0.0,0.0,0.0,0.0,0.0,0.0,0.0,0.0,0.0,0.0,-1.9839,0.0,0.0,0.0,0.0,0.0,0.0,0.0,0.0,-2.457,-2.5589,-2.5066,-2.6177,-2.6321,0.0,-2.4848,-2.2833,0.0,0.0,0.0,0.0,0.0,0.0,0.0,0.0,-2.1328,-2.3799,-2.5903,-2.7249,-2.7798,-2.7722,-2.7564,-2.7302,-2.6235,-2.4272,-2.1358,-1.9468,-1.7834,0.0,0.0,0.0,0.0,0.0,0.0,0.0,0.0,0.0,0.0,0.0,0.0,0.0,0.0,0.0,0.0,0.0,0.0,0.0,0.0,0.0,0.0,0.0,-1.2365,0.0,0.0,0.0,0.0,0.0,0.0,0.0,0.0,0.0,-1.6594,-1.8124,-1.968,-2.0814,-2.1728,-2.2404,-2.2827,0.0,0.0,0.0,0.0,0.0,0.0,0.0,-2.1804,-2.1658,-2.1445,-2.1309,-2.1486,-2.2229,-2.2627,-2.2187,0.0,0.0,-2.0196,-1.9397,-1.918,-1.9336,-1.9336,-1.9268,-1.916,-1.9463,-1.9501,0.0,0.0,0.0,0.0,0.0,0.0,0.0,0.0,-2.3417,-2.3391,0.0,-2.2778,0.0,0.0,0.0,0.0,0.0,0.0,0.0,0.0,-2.7923,-2.8961,-2.8446,-2.8459,-2.8451,-2.8486,-2.8386,-2.7484,-2.5623,-2.0871,0.0,0.0,0.0,0.0,0.0,0.0,-2.2258,-2.5005,-2.6726,-2.785,-2.842,-2.8386,-2.8043,-2.7268,-2.5902,-2.4285,-2.2447,-2.1794,-2.0275,-1.7626,-1.6621,0.0,0.0,0.0,0.0,0.0,0.0,0.0,0.0,0.0,0.0,0.0,0.0,0.0,0.0,0.0,0.0,0.0,0.0,0.0,0.0,-1.1655,0.0,0.0,0.0,0.0,0.0,0.0,0.0,0.0,0.0,0.0,-1.9036,-1.9939,-2.1125,-2.231,0.0,0.0,0.0,0.0,-2.312,-2.3149,-2.314,-2.3003,-2.2656,-2.2857,-2.2974,-2.2637,0.0,0.0,-2.3306,-2.3857,-2.3975,-2.2812,-2.3271,-2.3672,-2.3159,-2.1999,-2.1375,-2.1777,-2.129,-2.0909,-2.12,-2.1641,-2.1873,-2.8183,0.0,0.0,0.0,0.0,-2.4984,-2.602,-2.7549,-2.7549,-2.7079,-2.625,-2.6106,0.0,0.0,0.0,0.0,0.0,0.0,-2.5819,-2.687,-2.8516,-2.9392,-2.964,-3.0059,-3.0241,-3.0228,-2.9836,-2.917,-2.8203,-2.5968,-2.308,-1.9745,0.0,0.0,0.0,0.0,-2.4962,-2.6235,-2.7936,-2.8856,-2.9048,-2.8469,-2.7769,-2.6875,-2.624,-2.5129,-2.3595,-2.2932,-2.1587,-1.9305,-1.8165,0.0,0.0,0.0,0.0,0.0,0.0,0.0,0.0,0.0,0.0,0.0,0.0,0.0,0.0,0.0,0.0,0.0,0.0,0.0,-1.2212,-1.2542,-1.3251,0.0,0.0,0.0,0.0,0.0,0.0,0.0,0.0,0.0,-2.1808,-2.176,-2.1961,0.0,0.0,-2.3071,-2.3545,-2.3603,-2.3711,-2.3958,0.0,0.0,0.0,-2.3721,-2.3662,-2.3838,-2.4082,-2.4189,-2.4072,-2.4258,-2.4297,-2.3861,-2.4072,-2.4189,-2.4043,-2.3227,-2.2783,-2.3105,-2.3071,-2.3008,-2.3408,-2.3613,-2.3448,-3.1776,-2.869,-2.7446,-2.7288,-2.7889,-2.8077,-2.8965,-3.0294,-3.0307,-2.9865,-2.9187,-2.9,-2.7745,-2.5785,-2.5341,0.0,0.0,0.0,-2.7693,-2.8573,-2.9523,-3.0137,-3.049,-3.083,-3.1024,-3.0998,-3.0634,-3.0307,-2.9941,-2.9013,-2.6935,-2.3827,0.0,0.0,-2.3134,-2.5118,-2.6674,-2.774,-2.8961,-2.9614,-2.9614,-2.8607,-2.7679,-2.6841,-2.636,-2.5516,-2.4368,-2.3778,-2.265,-2.0936,-1.978,-1.8262,0.0,0.0,0.0,0.0,0.0,0.0,0.0,0.0,0.0,0.0,0.0,-1.0249,0.0,0.0,0.0,0.0,-1.1633,-1.2987,-1.4179,-1.4702,0.0,0.0,0.0,0.0,0.0,0.0,0.0,-2.0595,-2.1659,-2.268,-2.3599,-2.3328,-2.3187,-2.3717,-2.3687,-2.3705,-2.4004,0.0,-2.4131,-2.4385,-2.457,-2.4609,-2.4443,-2.4355,-2.4385,-2.4629,-2.4824,-2.4932,-2.4894,-2.4894,-2.4883,-2.4727,-2.4678,-2.4609,-2.4453,-2.3984,-2.3676,-2.3984,-2.4043,-2.4131,-2.4375,-2.4424,-2.422,-3.4994,-3.4353,-3.2508,-3.1487,-3.1207,-3.1679,-3.1863,-3.1876,-3.1863,-3.1876,-3.1823,-3.1352,-3.0265,-2.8708,-2.7648,0.0,0.0,-2.9052,-2.9836,-3.0309,-3.0882,-3.1091,-3.1052,-3.1052,-3.1039,-3.1024,-3.1024,-3.1024,-3.0947,-3.0401,-2.964,-2.859,-2.6523,-2.5921,-2.67,-2.6883,-2.7745,-2.9362,-2.9865,-3.0153,-3.0038,-2.8863,-2.7786,-2.7037,-2.6314,-2.5577,-2.4802,-2.4268,-2.3477,-2.2347,-2.1282,-1.9749,-1.7677,0.0,0.0,0.0,0.0,0.0,0.0,0.0,0.0,0.0,0.0,0.0,0.0,0.0,0.0,0.0,-1.4138,0.0,-1.6485,-1.7575,0.0,0.0,0.0,-1.9049,-1.9697,-2.0941,-2.1898,-2.215,0.0,0.0,0.0,0.0,-2.4575,-2.4855,-2.4601,-2.4434,-2.4453,-2.4473,-2.4482,-2.4514,-2.4873,-2.498,-2.4687,-2.4873,-2.5088,-2.5137,-2.5469,-2.5625,-2.5625,-2.5635,-2.5547,-2.5243,-2.5117,-2.5019,-2.46,-2.4541,-2.4512,-2.4541,-2.4502,-2.4482,-2.457,-2.459,-2.4563,-3.6634,-3.6164,-3.5696,-3.4337,-3.2527,-3.2502,-3.2489,-3.2489,-3.2489,-3.2489,-3.2476,-3.2346,-3.2058,-3.1653,-3.1378,-3.1339,-3.1483,-3.1744,-3.1954,-3.2084,-3.2215,-3.2058,-3.1615,-3.1602,-3.1405,-3.1037,-3.1024,-3.1024,-3.0986,-3.0856,-3.0634,-3.0359,-2.9846,-2.8804,-2.7432,-2.8612,-2.9487,-2.9928,-3.049,-3.0481,-2.9891,-2.9288,-2.8373,-2.705,-2.6526,-2.5659,-2.4387,-2.4223,-2.3556,-2.2359,-2.1255,-2.0251,-1.9258,-1.6205,0.0,0.0,0.0,0.0,0.0,0.0,0.0,0.0,0.0,-1.3351,-1.1406,0.0,-1.4469,0.0,-1.5983,-1.7275,-1.7885,-1.8506,0.0,0.0,-2.0375,-2.0886,-2.3505,-2.3381,-2.3587,-2.4813,-2.5169,-2.5477,-2.5767,-2.5471,-2.5369,-2.5724,-2.4975,-2.4531,-2.4853,-2.4902,-2.5039,-2.5342,-2.5478,-2.5489,-2.5382,-2.545,-2.5576,-2.5576,-2.5615,-2.5684,-2.5684,-2.5684,-2.5645,-2.5605,-2.5528,-2.5479,-2.5362,-2.5372,-2.5362,-2.54,-2.5156,-2.5019,-2.5342,-2.5362,-2.5362,-3.775,-3.745,-3.7023,-3.5973,-3.4641,-3.4076,-3.3849,-3.3835,-3.3574,-3.3313,-3.3077,-3.2803,-3.2672,-3.2672,-3.2672,-3.2672,-3.2672,-3.2672,-3.2672,-3.2672,-3.2672,-3.2515,-3.2176,-3.2176,-3.1914,-3.1378,-3.1365,-3.1235,-3.0999,-3.1024,-3.1024,-3.1024,-3.1024,-3.0346,-2.9157,-3.0032,-3.0479,-3.0516,-3.0817,-3.0662,-2.9954,-2.9526,-2.8551,-2.7058,-2.6302,-2.5339,-2.4141,-2.3636,-2.3022,-2.2322,-2.1282,-2.0541,-2.0175,-1.769,-1.6008,0.0,0.0,0.0,0.0,0.0,0.0,0.0,0.0,0.0,0.0,0.0,-1.6384,0.0,-1.8288,0.0,-2.0151,-2.085,-2.1825,-2.3184,-2.2764,-2.3248,-2.5316,-2.498,-2.4988,-2.5945,-2.5941,-2.5976,-2.631,-2.5982,-2.5881,-2.6215,-2.5541,-2.505,-2.5303,-2.5371,-2.5459,-2.5645,-2.5684,-2.5684,-2.5684,-2.5684,-2.5684,-2.5684,-2.5684,-2.5684,-2.5684,-2.5684,-2.5684,-2.5684,-2.5684,-2.5684,-2.5684,-2.5684,-2.5684,-2.5654,-2.5547,-2.5478,-2.5625,-2.5684,-2.5684,-3.8475,-3.8377,-3.7431,-3.7,-3.6917,-3.5916,-3.5482,-3.5365,-3.4842,-3.4306,-3.377,-3.3182,-3.2921,-3.2908,-3.2908,-3.2908,-3.2908,-3.2921,-3.2908,-3.2908,-3.2908,-3.2868,-3.2803,-3.2816,-3.2502,-3.1928,-3.1836,-3.1549,-3.1104,-3.1063,-3.1024,-3.1024,-3.1024,-3.1024,-3.1024,-3.1024,-3.1024,-3.1024,-3.1024,-3.0738,-3.0218,-2.9693,-2.8677,-2.7203,-2.6051,-2.502,-2.4098,-2.3067,-2.2498,-2.2385,-2.1493,-2.0981,-2.0893,-1.9448,-1.8082,0.0,-1.6074,0.0,0.0,0.0,0.0,0.0,0.0,0.0,0.0,-1.7709,-1.864,-1.9399,-2.0659,-2.1797,-2.2594,-2.3505,-2.4364,-2.513,-2.5241,-2.5482,-2.5951,-2.6013,-2.6109,-2.6294,-2.6355,-2.6415,-2.657,-2.639,-2.6304,-2.6587,-2.62,-2.5918,-2.5986,-2.5849,-2.5654,-2.5684,-2.5684,-2.5684,-2.5684,-2.5684,-2.5684,-2.5684,-2.5684,-2.5703,-2.5781,-2.5791,-2.583,-2.5791,-2.5869,-2.5869,-2.5791,-2.583,-2.5869,-2.5918,-2.5898,-2.584,-2.5713,-2.5684,-2.5684,-3.8982,-3.8791,-3.8385,-3.8121,-3.7875,-3.7054,-3.6397,-3.5953,-3.5822,-3.5469,-3.4933,-3.4345,-3.4071,-3.4084,-3.4071,-3.4071,-3.4084,-3.4071,-3.4071,-3.4071,-3.4084,-3.3849,-3.3443,-3.3417,-3.3104,-3.2515,-3.2019,-3.1745,-3.1628,-3.1209,-3.1024,-3.1024,-3.1024,-3.1024,0.0,0.0,0.0,0.0,-3.1024,-3.0934,-3.0817,-3.0268,-2.9369,-2.8173,-2.6861,0.0,-2.4451,-2.4055,-2.3573,-2.297,-2.2744,0.0,0.0,0.0,0.0,0.0,0.0,0.0,0.0,0.0,0.0,0.0,-1.921,-1.9065,-1.8694,-2.042,-2.1507,-2.1352,-2.2542,-2.3422,-2.3649,-2.4436,-2.5037,-2.5179,-2.5554,-2.5927,-2.6418,-2.649,-2.662,-2.7028,-2.709,-2.7121,-2.7119,-2.688,-2.6937,-2.7252,-2.6931,-2.6844,-2.7362,-2.6429,-2.5762,-2.5684,-2.5752,-2.5703,-2.5684,-2.5713,-2.5762,-2.5684,-2.5684,-2.5889,-2.6191,-2.6269,-2.626,-2.6269,-2.6543,-2.6631,-2.6338,-2.6533,-2.6719,-2.6768,-2.6707,-2.6562,-2.5849,-2.5693,-2.5684,-3.9203,0.0,-3.8845,-3.8621,0.0,-3.7819,-3.7337,-3.6959,-3.6345,-3.5796,-3.5286,-3.4986,-3.4672,-3.4397,-3.4397,-3.4397,-3.4397,-3.4397,-3.4397,-3.4397,-3.4397,-3.4267,-3.3992,-3.3992,-3.3679,-3.313,-3.2842,-3.2359,-3.181,-3.151,-3.1261,-3.1024,-3.1024,-3.1024,-3.1024,-3.1024,-3.1024,-3.1024,-3.1024,-3.1024,-3.096,-3.0388,-2.9539,-2.8343,0.0,0.0,0.0,0.0,0.0,0.0,0.0,0.0,0.0,0.0,0.0,-2.0442,-2.0344,-1.983,-1.8864,-1.9354,-2.0141,-2.1041,-2.1735,-2.1735,-2.0834,-2.2291,-2.308,-2.2884,-2.367,-2.4302,-2.4529,-2.4964,-2.5365,-2.5834,-2.6092,-2.6449,-2.6864,-2.6967,-2.705,-2.7247,-2.732,-2.7334,-2.7417,-2.7352,-2.7439,-2.7828,-2.7572,-2.7523,-2.7834,-2.7052,-2.6367,-2.6317,-2.6367,-2.6327,-2.6327,-2.6317,-2.6357,-2.6317,-2.6317,-2.6465,-2.666,-2.6699,-2.6699,-2.6719,-2.6885,-2.6924,-2.6777,-2.6885,-2.7012,-2.7012,-2.7012,-2.6904,-2.6395,-2.6317,-2.6367,-3.94,-3.9261,-3.9011,-3.8787,-3.8634,-3.8349,-3.8103,-3.7835,0.0,0.0,0.0,-3.5495,-3.5116,-3.4567,-3.4567,-3.4502,-3.4397,-3.4397,-3.4397,-3.4397,-3.4397,-3.4397,-3.4397,-3.4397,-3.4162,-3.3744,-3.3639,-3.3091,-3.2124,-3.1902,-3.1575,-3.1169,-3.1039,-3.1024,-3.1024,-3.1024,-3.1024,-3.1024,-3.1024,-3.1024,-3.0973,-3.0529,-2.9712,-2.8551,-2.7898,-2.6953,-2.5632,-2.4938,-2.4337,-2.3753,-2.3597,-2.3584,-2.3697,-2.4067,-2.3948,-2.3187,-2.3526,-2.321,-2.1934,-2.2305,-2.2745,-2.305,-2.3639,-2.3639,-2.2801,-2.3515,-2.3991,-2.3991,-2.4405,-2.4766,-2.5148,-2.5354,-2.5761,-2.6553,-2.6687,-2.6895,-2.7247,-2.732,-2.7299,-2.732,-2.732,-2.7379,-2.7598,-2.767,-2.7836,-2.8247,-2.8188,-2.8147,-2.8198,-2.759,-2.6975,-2.6924,-2.6894,-2.6973,-2.6992,-2.6963,-2.7012,-2.6943,-2.6963,-2.7041,-2.7109,-2.7129,-2.7129,-2.7139,-2.7178,-2.7226,-2.7168,-2.7236,-2.7236,-2.7246,-2.7246,-2.7246,-2.7246,-2.7246,-2.7178,-3.9766,-3.9292,-3.9011,-3.8863,-3.8832,-3.8395,-3.8103,-3.7848,-3.7181,-3.6841,-3.6737,-3.6214,-3.5691,-3.5168,-3.5168,-3.4894,-3.441,-3.4397,-3.4397,0.0,-3.4397,-3.4397,-3.4397,-3.4397,-3.4358,-3.4254,-3.3809,-3.3509,-3.326,-3.2293,-3.1758,-3.1641,-3.1235,-3.1024,-3.1024,-3.1024,-3.1024,-3.1024,-3.1024,-3.1024,-3.1024,-3.0908,-3.0518,-2.9842,-2.8957,-2.82,-2.7545,-2.6629,-2.6143,-2.6021,-2.5523,-2.5473,-2.5971,-2.5586,-2.5264,-2.5035,-2.5433,-2.5345,-2.462,-2.5335,-2.5665,-2.5304,-2.4767,-2.4229,-2.3753,-2.4157,-2.4404,-2.4425,-2.4807,-2.5106,-2.523,-2.5916,-2.6392,-2.6589,-2.6978,-2.7247,-2.7299,-2.732,-2.732,-2.732,-2.732,-2.7458,-2.7824,-2.7878,-2.8219,-2.8889,-2.8911,-2.8777,-2.8773,-2.802,-2.7306,-2.7063,-2.7012,-2.7012,-2.7109,-2.7031,-2.709,-2.7012,-2.707,-2.7226,-2.7519,-2.7568,-2.7568,-2.7578,-2.7812,-2.7891,-2.7656,-2.7881,-2.7988,-2.8008,-2.8008,-2.8027,-2.8008,-2.8027,-2.7842,-4.0336,-3.9807,-3.9676,-3.9339,-3.8863,-3.8427,-3.8122,-3.8031,-3.7645,-3.7299,-3.6985,-3.6711,-3.6279,-3.573,-3.543,-3.5155,-3.4881,-3.4554,-3.4397,-3.4397,-3.4397,-3.4397,-3.4397,-3.4397,-3.4397,-3.4384,-3.4149,-3.3888,-3.3561,-3.3038,-3.2437,-3.1823,-3.1261,-3.1024,-3.1024,-3.1024,-3.1024,-3.1024,-3.1024,-3.1024,-3.1024,-3.1024,-3.0712,-3.0113,-2.9681,-2.9171,-2.8495,-2.7991,-2.75,-2.7113,-2.7012,-2.6942,-2.6939,-2.6929,-2.6737,-2.6275,-2.6672,-2.6595,-2.5908,-2.5995,-2.5848,-2.5168,-2.4743,-2.4414,-2.425,-2.4373,-2.46,-2.4838,-2.5075,-2.544,-2.5896,-2.633,-2.6718,-2.6957,-2.7195,-2.7309,-2.732,-2.732,-2.732,-2.734,-2.7479,-2.779,-2.8245,-2.8514,-2.8897,-2.9559,-2.959,-2.9464,-2.9365,-2.8957,-2.8415,-2.8018,-2.7924,-2.7872,-2.7748,-2.7705,-2.7705,-2.7705,-2.7705,-2.7783,-2.7988,-2.7998,-2.7998,-2.8008,-2.8174,-2.8203,-2.8018,-2.8144,-2.8271,-2.8301,-2.8301,-2.8301,-2.8301,-2.8301,-2.8144,-4.096,-4.039,-4.0241,-3.9699,-3.8863,-3.8472,-3.8258,-3.8213,-3.7965,-3.7639,-3.7246,-3.7207,-3.6881,-3.6292,-3.5861,-3.5547,-3.5247,-3.4816,-3.4528,-3.441,-3.4397,-3.4397,-3.4397,-3.4397,-3.4397,-3.4397,-3.4397,-3.4175,-3.3809,-3.3652,-3.2999,-3.1876,-3.1354,-3.1117,-3.1024,-3.1024,-3.1024,-3.1024,-3.1024,-3.1024,-3.1024,-3.1024,-3.0777,-3.0335,-3.0259,-2.9965,-2.9427,-2.9068,-2.8605,-2.8041,-2.8079,-2.7995,-2.7695,-2.8059,-2.8064,-2.7614,-2.7916,-2.7747,-2.7009,-2.6393,-2.5704,-2.4861,-2.4625,-2.4507,-2.4507,-2.46,-2.4797,-2.5127,-2.5282,-2.5709,-2.6382,-2.6718,-2.6915,-2.7268,-2.732,-2.732,-2.732,-2.732,-2.732,-2.7351,-2.7572,-2.7955,-2.8514,-2.8918,-2.9321,-2.9808,-2.9994,-2.9942,-2.9722,-2.9722,-2.9459,-2.9099,-2.8834,-2.8678,-2.8504,-2.8422,-2.8359,-2.8408,-2.8315,-2.8232,-2.8262,-2.8281,-2.8291,-2.8262,-2.8271,-2.8281,-2.8291,-2.8291,-2.8301,-2.8301,-2.8301,-2.8301,-2.8301,-2.8301,-2.8291,-4.1571,-4.0987,-4.0445,-3.9699,-3.8935,-3.8666,-3.8453,-3.8226,-3.7979,-3.7887,-3.7782,-3.7821,-3.7482,-3.6972,-3.6854,-3.6266,-3.5378,-3.5247,-3.492,-3.445,-3.4397,-3.4397,-3.4397,-3.4397,-3.4397,-3.4397,-3.4397,-3.4358,-3.4254,-3.3822,-3.2999,-3.1928,-3.1745,-3.1483,-3.1039,-3.1024,-3.1024,-3.1024,-3.1024,-3.1024,-3.1024,-3.1024,-3.0947,-3.0908,-3.072,-3.0594,-3.0452,-2.9802,-2.9309,-2.9059,-2.8629,-2.8494,-2.8712,-2.8825,-2.9038,-2.945,-2.9538,-2.9213,-2.8338,-2.7481,-2.6618,-2.5746,-2.4946,-2.454,-2.4518,-2.4879,-2.5137,-2.5306,-2.5595,-2.6041,-2.6563,-2.6978,-2.7226,-2.7278,-2.732,-2.732,-2.732,-2.732,-2.732,-2.732,-2.7403,-2.7655,-2.8452,-2.8752,-2.9104,-2.9891,-2.9994,-2.9994,-2.9942,-2.9942,-2.9837,-2.9511,-2.93,-2.9079,-2.8973,-2.8834,-2.8674,-2.8621,-2.8461,-2.8344,-2.8301,-2.8301,-2.8301,-2.8301,-2.8301,-2.8301,-2.8301,-2.8301,-2.8301,-2.8301,-2.8301,-2.8301,-2.8301,-2.8301,-2.8301,-4.2181,-4.1598,-4.0987,-4.0128,-3.9181,-3.8877,-3.8666,-3.8421,-3.8194,-3.8011,-3.79,-3.79,-3.7756,-3.7508,-3.7168,-3.6724,-3.6279,-3.5613,-3.5168,-3.4894,-3.4567,-3.4397,-3.4397,-3.4397,-3.4397,-3.4397,-3.4397,-3.4397,-3.4306,-3.3862,-3.3156,-3.2398,-3.1967,-3.1561,-3.1026,-3.1024,-3.1024,-3.1024,-3.1024,-3.1024,-3.1024,-3.1024,-3.1024,-3.0986,-3.0911,-3.0874,-3.0861,-3.0452,-3.0186,-3.006,-2.9655,-2.9441,-2.9606,-2.9517,-2.9553,-2.9767,-2.9779,-2.9417,-2.8554,-2.8131,-2.7302,-2.5913,-2.5463,-2.5062,-2.456,-2.4931,-2.5282,-2.5627,-2.602,-2.6532,-2.6957,-2.7195,-2.732,-2.732,-2.732,-2.732,-2.732,-2.732,-2.732,-2.733,-2.75,-2.7872,-2.8535,-2.9104,-2.9549,-2.9953,-2.9994,-2.9994,-2.9994,-2.9994,-2.9942,-2.9837,-2.9732,-2.9459,-2.9185,-2.9026,-2.8877,-2.8727,-2.8631,-2.8514,-2.8344,-2.8291,-2.8301,-2.8301,-2.8301,-2.8301,-2.8301,-2.8301,-2.8301,-2.8301,-2.8301,-2.8301,-2.8301,-2.8301,-2.8301,-4.2643,-4.2154,-4.1449,-4.0431,-3.9274,-3.9011,-3.8832,-3.8634,-3.8349,-3.8148,-3.8083,-3.7946,-3.7946,-3.7926,-3.7475,-3.7168,-3.6907,-3.6136,-3.5574,-3.5286,-3.4829,-3.4567,-3.4424,-3.4397,-3.4397,-3.4397,-3.4397,-3.4397,-3.4358,-3.4018,-3.3509,-3.2934,-3.2359,-3.1784,-3.1261,-3.1091,-3.1024,-3.1024,-3.1024,-3.1024,-3.1024,-3.1024,-3.1024,-3.1024,-3.1024,-3.1024,-3.1024,-3.0887,-3.0773,-3.0698,-3.0432,-3.019,-3.0113,-2.9972,-2.9869,-2.9792,-2.9779,-2.9417,-2.8554,-2.8251,-2.7424,-2.5986,-2.5621,-2.5243,-2.4897,-2.5106,-2.5585,-2.6076,-2.6532,-2.6957,-2.7226,-2.732,-2.732,-2.732,-2.732,-2.732,-2.732,-2.732,-2.732,-2.734,-2.7489,-2.7976,-2.8576,-2.9249,-2.9777,-2.9942,-2.9994,-2.9994,-2.9994,-2.9994,-2.9994,-2.9994,-2.9994,-2.9827,-2.9448,-2.929,-2.9142,-2.8983,-2.894,-2.8717,-2.8504,-2.8408,-2.8354,-2.8354,-2.8301,-2.8301,-2.8301,-2.8301,-2.8301,-2.8301,-2.8301,-2.8301,-2.8301,-2.8301,-2.8301,-4.2873,-4.2656,-4.1598,-4.0431,-3.9319,-3.9011,-3.8908,-3.8819,-3.8427,-3.8362,-3.8466,-3.8129,-3.8024,-3.8167,-3.79,-3.7534,-3.7063,-3.6894,-3.6279,-3.5391,-3.5247,-3.4933,-3.4424,-3.4397,-3.4397,-3.4397,-3.4397,-3.4397,-3.4397,-3.4358,-3.4084,-3.3522,-3.2934,-3.2359,-3.1732,-3.1274,-3.0999,-3.0999,-3.1024,-3.1024,-3.1024,-3.1024,-3.1024,-3.1024,-3.1024,-3.1024,-3.1024,-3.0986,-3.0874,-3.0698,-3.066,-3.0495,-3.0164,-3.0113,-3.0011,-2.983,-2.9779,-2.9404,-2.8593,-2.7839,-2.6987,-2.5997,-2.5306,-2.4802,-2.524,-2.5568,-2.5978,-2.6521,-2.6946,-2.7258,-2.7299,-2.732,-2.732,-2.732,-2.732,-2.732,-2.732,-2.732,-2.732,-2.732,-2.7444,-2.7821,-2.8535,-2.9021,-2.957,-2.988,-2.9994,-2.9994,-2.9994,-2.9994,-2.9994,-2.9994,-2.9994,-2.9994,-2.9942,-2.9732,-2.9554,-2.9396,-2.9185,-2.8973,-2.8824,-2.8674,-2.8514,-2.8408,-2.8408,-2.8354,-2.8301,-2.8301,-2.8301,-2.8301,-2.8301,-2.8301,-2.8301,-2.8301,-2.8301,-4.267,-4.2249,-4.1462,-4.0635,-3.9861,-3.9379,-3.9042,-3.8908,-3.8729,-3.8607,-3.8557,-3.8434,-3.8272,-3.8213,-3.8135,-3.7906,-3.756,-3.7181,-3.658,-3.5822,-3.5469,-3.4972,-3.445,-3.4397,-3.4397,-3.4397,-3.4397,-3.4397,-3.4397,-3.4397,-3.4123,-3.3666,-3.3391,-3.2816,-3.1928,-3.1602,-3.1365,-3.1026,-3.1024,-3.1024,-3.1024,-3.1024,-3.1024,-3.1024,-3.1024,-3.1024,-3.1024,-3.1024,-3.0949,-3.0911,-3.0773,-3.0622,-3.047,-3.0228,-3.0011,-2.983,-2.9779,-2.9675,-2.9339,-2.9013,-2.8474,-2.7597,-2.6659,-2.607,-2.6022,-2.5962,-2.6072,-2.6584,-2.704,-2.7299,-2.732,-2.732,-2.732,-2.732,-2.732,-2.732,-2.732,-2.732,-2.732,-2.7403,-2.7728,-2.8286,-2.8607,-2.9259,-2.9787,-2.9953,-2.9994,-2.9994,-2.9994,-2.9994,-2.9994,-2.9994,-2.9994,-2.9994,-2.9994,-2.9942,-2.9827,-2.9659,-2.9448,-2.9237,-2.9079,-2.8983,-2.8877,-2.8674,-2.8568,-2.8504,-2.8504,-2.8344,-2.8344,-2.8344,-2.8344,-2.8301,-2.8301,-2.8301,-2.8301,-4.2426,-4.1707,-4.1286,-4.0648,-3.9902,-3.9481,-3.9189,-3.9011,-3.8953,-3.8877,-3.8814,-3.8692,-3.8544,-3.8381,-3.8245,-3.8122,-3.7985,-3.7514,-3.6972,-3.6384,-3.5809,-3.5247,-3.4737,-3.4489,-3.4397,-3.4397,-3.4397,-3.4397,-3.4397,-3.4397,-3.4201,-3.3875,-3.3692,-3.3208,-3.2437,-3.2019,-3.1588,-3.13,-3.1091,-3.1024,-3.1024,-3.1024,-3.1024,-3.1024,-3.1024,-3.1024,-3.1024,-3.1024,-3.1024,-3.0986,-3.0874,-3.0773,-3.066,-3.0305,-3.0049,-2.9908,-2.983,-2.9779,-2.974,-2.9546,-2.9091,-2.8514,-2.7527,-2.6816,-2.6704,-2.6362,-2.6381,-2.6781,-2.7092,-2.732,-2.732,-2.732,-2.732,-2.732,-2.732,-2.732,-2.732,-2.732,-2.732,-2.7403,-2.7862,-2.8349,-2.8669,-2.9311,-2.9746,-2.9963,-2.9994,-2.9994,-2.9994,-2.9994,-2.9994,-2.9994,-2.9994,-2.9994,-2.9994,-2.9994,-2.9942,-2.9774,-2.9722,-2.9554,-2.9396,-2.929,-2.9132,-2.893,-2.8771,-2.8717,-2.8611,-2.8504,-2.8451,-2.8398,-2.8344,-2.8301,-2.8301,-2.8301,-2.8301,-4.2209,-4.1272,-4.1123,-4.0472,-3.9522,-3.9346,-3.9305,-3.9261,-3.9056,-3.9056,-3.9172,-3.8827,-3.8756,-3.8729,-3.8427,-3.82,-3.8109,-3.7946,-3.7482,-3.6894,-3.6371,-3.5796,-3.5221,-3.4711,-3.445,-3.4397,-3.4397,-3.4397,-3.4397,-3.4397,-3.4371,-3.428,-3.3875,-3.3587,-3.3535,-3.2476,-3.1876,-3.1654,-3.13,-3.1039,-3.1024,-3.1024,-3.1024,-3.1024,-3.1024,-3.1024,-3.1024,-3.1024,-3.1024,-3.1024,-3.0986,-3.0911,-3.0698,-3.0356,-3.0126,-3.0075,-2.9934,-2.983,-2.9753,-2.9131,-2.8803,-2.8595,-2.7444,-2.708,-2.7491,-2.7011,-2.6868,-2.7322,-2.7315,-2.732,-2.732,-2.732,-2.732,-2.732,-2.732,-2.732,-2.732,-2.732,-2.732,-2.7382,-2.7748,-2.8131,-2.8566,-2.9145,-2.9622,-2.9911,-2.9994,-2.9994,-2.9994,-2.9994,-2.9994,-2.9994,-2.9994,-2.9994,-2.9994,-2.9994,-2.9994,-2.9994,-2.9942,-2.9837,-2.9669,-2.9564,-2.9459,-2.9248,-2.8983,-2.892,-2.893,-2.8771,-2.8717,-2.8664,-2.8514,-2.8398,-2.8398,-2.8398,-2.8408,-4.2426,-4.1707,-4.1286,-4.0662,-3.9888,-3.9481,-3.9305,-3.9305,-3.9216,-3.9234,-3.9261,-3.9127,-3.9024,-3.8922,-3.8742,-3.8517,-3.8213,-3.8109,-3.7729,-3.7095,-3.6802,-3.6201,-3.543,-3.5103,-3.4803,-3.4463,-3.4397,-3.4397,-3.4397,-3.4397,-3.4397,-3.4358,-3.4228,-3.394,-3.3613,-3.3195,-3.2712,-3.185,-3.1641,-3.1405,-3.1076,-3.1024,-3.1024,-3.1024,-3.1024,-3.1024,-3.1024,-3.1024,-3.1024,-3.1024,-3.1024,-3.0911,-3.0736,-3.0584,-3.047,-3.0305,-3.0113,-3.0011,-2.996,-2.9663,-2.9539,-2.965,-2.8956,-2.8925,-2.9349,-2.8343,-2.782,-2.81,-2.7715,-2.732,-2.732,-2.732,-2.732,-2.732,-2.732,-2.732,-2.732,-2.732,-2.732,-2.7403,-2.7924,-2.8421,-2.8711,-2.9218,-2.9787,-2.9942,-2.9994,-2.9994,-2.9994,-2.9994,-2.9994,-2.9994,-2.9994,-2.9994,-2.9994,-2.9994,-2.9994,-2.9994,-2.9994,-2.9994,-2.9889,-2.9774,-2.9669,-2.9511,-2.929,-2.9185,-2.9142,-2.9089,-2.9036,-2.8983,-2.8867,-2.8761,-2.8611,-2.8611,-2.8611,-4.2412,-4.1666,-4.1272,-4.0621,-3.9861,-3.9441,-3.9305,-3.9305,-3.9305,-3.9305,-3.9305,-3.9305,-3.9203,-3.9056,-3.8953,-3.8742,-3.8485,-3.8395,-3.8015,-3.7434,-3.7063,-3.658,-3.5887,-3.5456,-3.4986,-3.4489,-3.4397,-3.4397,-3.4397,-3.4397,-3.4397,-3.4397,-3.4397,-3.4241,-3.3875,-3.3652,-3.3091,-3.2228,-3.1889,-3.1523,-3.1104,-3.1024,-3.1024,-3.1024,-3.1024,-3.1024,-3.1024,-3.1024,-3.1024,-3.1024,-3.1024,-3.0911,-3.0811,-3.0736,-3.0647,-3.0533,-3.0343,-3.0216,-3.0177,-3.0011,-3.0135,-3.0455,-2.998,-2.9905,-3.0362,-2.945,-2.8922,-2.8566,-2.8222,-2.7668,-2.7404,-2.732,-2.732,-2.732,-2.732,-2.732,-2.732,-2.732,-2.732,-2.7486,-2.8038,-2.8493,-2.8794,-2.9394,-2.9953,-2.9994,-2.9994,-2.9994,-2.9994,-2.9994,-2.9994,-2.9994,-2.9994,-2.9994,-2.9994,-2.9994,-2.9994,-2.9994,-2.9994,-2.9994,-2.9942,-2.9942,-2.9837,-2.9784,-2.9627,-2.9617,-2.9564,-2.9406,-2.93,-2.929,-2.9237,-2.9026,-2.8867,-2.892,-2.892,-4.2195,-4.1177,-4.1123,-4.0431,-3.9414,-3.9319,-3.9305,-3.9305,-3.9305,-3.9305,-3.9305,-3.9305,-3.9305,-3.9261,-3.9042,-3.8922,-3.8863,-3.8666,-3.8472,-3.8015,-3.7532,-3.7048,-3.658,-3.5717,-3.4986,-3.4476,-3.4397,-3.4397,-3.4397,-3.4397,-3.4397,-3.4397,-3.4397,-3.4397,-3.4254,-3.3862,-3.3391,-3.2777,-3.2176,-3.1679,-3.1117,-3.0986,-3.1024,-3.1024,-3.1024,-3.1024,-3.1024,-3.1024,-3.1024,-3.1024,-3.1024,-3.0986,-3.0949,-3.0811,-3.0736,-3.0698,-3.052,-3.0406,-3.0368,-3.0305,-3.0404,-3.083,-3.0589,-3.0356,-3.0922,-3.0596,-2.9908,-2.9257,-2.8956,-2.8409,-2.7726,-2.7489,-2.7452,-2.732,-2.732,-2.732,-2.732,-2.732,-2.732,-2.7444,-2.8007,-2.8597,-2.8618,-2.9394,-2.9808,-2.9994,-2.9994,-2.9994,-2.9994,-2.9994,-2.9994,-2.9994,-2.9994,-2.9994,-2.9994,-2.9994,-2.9994,-2.9994,-2.9994,-2.9994,-2.9994,-2.9994,-2.9994,-2.9942,-2.9942,-2.9942,-2.9889,-2.9669,-2.9617,-2.9617,-2.9448,-2.9237,-2.9185,-2.9237,-2.9237,-4.2195,-4.1104,-4.1123,-4.0418,-3.9386,-3.9305,-3.9305,-3.9305,-3.9305,-3.9305,-3.9305,-3.9305,-3.9305,-3.9305,-3.9203,-3.91,-3.8953,-3.8877,-3.8711,-3.8485,-3.8334,-3.7416,-3.6415,-3.5652,-3.4986,-3.4476,-3.4397,-3.4397,-3.4397,-3.4397,-3.4397,-3.4397,-3.4397,-3.4397,-3.4345,-3.4228,-3.3901,-3.3352,-3.2764,-3.2176,-3.1588,-3.1196,-3.0986,-3.1024,-3.1024,-3.1024,-3.1024,-3.1024,-3.1024,-3.1024,-3.1024,-3.1024,-3.0986,-3.0949,-3.0911,-3.0874,-3.0723,-3.0571,-3.0483,-3.0598,-3.0873,-3.1269,-3.1419,-3.1891,-3.2382,-3.1716,-3.1169,-3.0722,-3.026,-2.9395,-2.8585,-2.8305,-2.8034,-2.7452,-2.732,-2.732,-2.732,-2.732,-2.732,-2.7382,-2.779,-2.8214,-2.8659,-2.9114,-2.9642,-2.9901,-2.9994,-2.9994,-2.9994,-2.9994,-2.9994,-2.9994,-2.9994,-2.9994,-2.9994,-2.9994,-2.9994,-2.9994,-2.9994,-2.9994,-2.9994,-2.9994,-2.9994,-2.9994,-2.9942,-2.9994,-2.9994,-2.9889,-2.9889,-2.9837,-2.9784,-2.9617,-2.9564,-2.9617,-2.9606,-4.1964,-4.105,-4.0838,-4.0173,-3.9359,-3.9305,-3.9305,-3.9305,-3.9305,-3.9305,-3.9305,-3.9305,-3.9305,-3.9305,-3.9305,-3.9203,-3.91,-3.9056,-3.8935,-3.8657,-3.8233,-3.7387,-3.6402,-3.5817,-3.5208,-3.4463,-3.4397,-3.4397,-3.4397,-3.4397,-3.4397,-3.4397,-3.4397,-3.4397,-3.4397,-3.4384,-3.4123,-3.3626,-3.3208,-3.2698,-3.185,-3.1497,-3.1222,-3.1065,-3.1024,-3.1024,-3.1024,-3.1024,-3.1024,-3.1024,-3.1024,-3.1024,-3.1024,-3.1024,-3.1024,-3.0973,-3.0874,-3.0773,-3.0738,-3.0894,-3.122,-3.1605,-3.2012,-3.2466,-3.2819,-3.2525,-3.2164,-3.1536,-3.108,-3.0351,-2.9498,-2.8991,-2.8269,-2.7499,-2.732,-2.732,-2.732,-2.732,-2.732,-2.7413,-2.7655,-2.81,-2.8556,-2.9021,-2.9477,-2.9849,-2.9994,-2.9994,-2.9994,-2.9994,-2.9994,-2.9994,-2.9994,-2.9994,-2.9994,-2.9994,-2.9994,-2.9994,-2.9994,-2.9994,-2.9994,-2.9994,-2.9994,-2.9994,-2.9994,-2.9984,-2.9942,-2.9942,-2.9994,-2.9942,-2.9994,-2.9984,-2.9869,-2.9682,-2.9692,-4.1571,-4.0974,-4.0418,-3.9861,-3.9346,-3.9305,-3.9305,-3.9305,-3.9305,-3.9305,-3.9305,-3.9305,-3.9305,-3.9305,-3.9305,-3.9305,-3.9305,-3.9261,-3.9064,-3.8622,-3.802,-3.7184,-3.6469,-3.6035,-3.5329,-3.4528,-3.4439,-3.4439,-3.4397,-3.4397,-3.4397,-3.4397,-3.4397,-3.4397,-3.4397,-3.4397,-3.4136,-3.3809,-3.3587,-3.3091,-3.2267,-3.1889,-3.151,-3.1235,-3.1013,-3.0999,-3.1024,-3.1024,-3.1024,-3.1024,-3.1024,-3.1024,-3.1024,-3.1024,-3.1024,-3.1024,-3.0999,-3.0975,-3.1107,-3.1255,-3.1586,-3.2054,-3.2288,-3.252,-3.2986,-3.297,-3.2624,-3.1989,-3.1769,-3.1303,-3.0396,-2.9441,-2.8445,-2.7726,-2.7499,-2.732,-2.732,-2.732,-2.732,-2.733,-2.7634,-2.8028,-2.8545,-2.898,-2.9415,-2.9891,-2.9994,-2.9994,-2.9994,-2.9994,-2.9994,-2.9994,-2.9994,-2.9994,-2.9994,-2.9994,-2.9994,-2.9994,-2.9994,-2.9994,-2.9994,-2.9994,-2.9994,-2.9994,-2.9994,-2.9911,-2.9787,-2.9839,-2.986,-2.9777,-2.9622,-2.9777,-2.988,-2.9579,-2.9528,-4.0947,-4.0363,-4.0241,-3.9848,-3.9359,-3.9305,-3.9305,-3.9305,-3.9305,-3.9305,-3.9305,-3.9305,-3.9305,-3.9305,-3.9305,-3.9305,-3.9305,-3.9278,-3.903,-3.8499,-3.8155,-3.73,-3.6478,-3.5939,-3.5234,-3.464,-3.4632,-3.4618,-3.4481,-3.4439,-3.4397,-3.4397,-3.4397,-3.4397,-3.4397,-3.4397,-3.4358,-3.4149,-3.3835,-3.3509,-3.3038,-3.2228,-3.1745,-3.1497,-3.1196,-3.0999,-3.1024,-3.1024,-3.1024,-3.1024,-3.1024,-3.1024,-3.1024,-3.1024,-3.1024,-3.0999,-3.1026,-3.1145,-3.1396,-3.1837,-3.2272,-3.2611,-3.2886,-3.3174,-3.3262,-3.3197,-3.3025,-3.2766,-3.2754,-3.222,-3.1258,-2.9669,-2.8852,-2.8398,-2.7904,-2.7452,-2.7357,-2.732,-2.732,-2.734,-2.7413,-2.7707,-2.8462,-2.8659,-2.9145,-2.9787,-2.9994,-2.9994,-2.9984,-2.9973,-2.9963,-2.9942,-2.986,-2.986,-2.9994,-2.9994,-2.9994,-2.9994,-2.9994,-2.9994,-2.9994,-2.9911,-2.988,-2.9922,-2.9994,-2.986,-2.9632,-2.9446,-2.9415,-2.9321,-2.927,-2.9415,-2.9467,-2.9332,-2.9384,-4.0499,-4.0173,-3.9902,-3.959,-3.9332,-3.9305,-3.9305,-3.9305,-3.9305,-3.9305,-3.9305,-3.9305,-3.9305,-3.9305,-3.9305,-3.9305,-3.9305,-3.9305,-3.8993,-3.8377,-3.7936,-3.7147,-3.6381,-3.5783,-3.5214,-3.4797,-3.488,-3.4825,-3.4743,-3.4618,-3.4577,-3.4577,-3.4494,-3.4397,-3.4397,-3.4397,-3.4397,-3.4358,-3.4136,-3.3875,-3.347,-3.2738,-3.1862,-3.1535,-3.1156,-3.1024,-3.1024,-3.1024,-3.1024,-3.1024,-3.1037,-3.1037,-3.0986,-3.1024,-3.1024,-3.0999,-3.1274,-3.1419,-3.1759,-3.2317,-3.287,-3.3032,-3.3363,-3.3437,-3.3441,-3.3283,-3.3197,-3.3124,-3.2995,-3.2667,-3.1713,-3.0946,-2.9988,-2.9395,-2.8956,-2.8678,-2.8538,-2.7904,-2.732,-2.732,-2.733,-2.7624,-2.8038,-2.839,-2.8845,-2.9477,-2.9911,-2.9932,-2.987,-2.986,-2.986,-2.9818,-2.9704,-2.9725,-2.9932,-2.9994,-2.9994,-2.9994,-2.9994,-2.9994,-2.9994,-2.986,-2.9715,-2.9777,-2.9818,-2.9622,-2.9404,-2.9208,-2.898,-2.8928,-2.8918,-2.9011,-2.9053,-2.9085,-2.9229,-4.0051,-4.0011,-3.9509,-3.9305,-3.9305,-3.9305,-3.9305,-3.9305,-3.9305,-3.9305,-3.9305,-3.9305,-3.9305,-3.9305,-3.9305,-3.9305,-3.9305,-3.9251,-3.8952,-3.8149,-3.7641,-3.6909,-3.6222,-3.5722,-3.5426,-3.5195,-3.5154,-3.5113,-3.5044,-3.4921,-3.4797,-3.4756,-3.4577,-3.4439,-3.4397,-3.4397,-3.4397,-3.4384,-3.4345,-3.4188,-3.3757,-3.313,-3.2333,-3.1457,-3.1418,-3.13,-3.1287,-3.13,-3.1326,-3.1248,-3.1248,-3.1248,-3.1235,-3.113,-3.1196,-3.1261,-3.1757,-3.2032,-3.2306,-3.2812,-3.3275,-3.3338,-3.3598,-3.37,-3.3569,-3.3484,-3.3398,-3.327,-3.3142,-3.2828,-3.1933,-3.1436,-3.108,-3.0588,-3.0306,-3.0215,-2.9897,-2.8585,-2.7809,-2.7584,-2.7473,-2.7531,-2.7883,-2.8245,-2.869,-2.9125,-2.9539,-2.9818,-2.9735,-2.9622,-2.9549,-2.9518,-2.9373,-2.9425,-2.9632,-2.9735,-2.9766,-2.9901,-2.9922,-2.987,-2.986,-2.9694,-2.9539,-2.958,-2.9549,-2.929,-2.899,-2.869,-2.8535,-2.8514,-2.8452,-2.84,-2.8587,-2.8826,-2.8971,-3.9441,-3.9441,-3.9346,-3.9305,-3.9305,-3.9305,-3.9305,-3.9305,-3.9349,-3.9305,-3.9305,-3.9305,-3.9305,-3.9305,-3.9305,-3.9305,-3.9305,-3.9197,-3.8695,-3.7881,-3.7402,-3.6874,-3.594,-3.571,-3.5588,-3.5548,-3.544,-3.5277,-3.5168,-3.5072,-3.4962,-3.4839,-3.4756,-3.4618,-3.4439,-3.4397,-3.4397,-3.4397,-3.4397,-3.4306,-3.4097,-3.36,-3.2855,-3.1875,-3.2032,-3.2032,-3.1875,-3.2136,-3.2411,-3.2411,-3.2411,-3.2385,-3.228,-3.1967,-3.198,-3.2215,-3.2437,-3.2712,-3.3077,-3.3377,-3.3807,-3.4053,-3.4095,-3.4021,-3.3949,-3.3768,-3.3654,-3.3556,-3.3398,-3.3185,-3.2896,-3.2208,-3.1669,-3.1226,-3.0857,-3.0441,-3.017,-2.9441,-2.8678,-2.8678,-2.8077,-2.7413,-2.7696,-2.8007,-2.8338,-2.8659,-2.897,-2.928,-2.9352,-2.9177,-2.899,-2.898,-2.898,-2.9114,-2.9301,-2.9373,-2.9456,-2.9684,-2.9704,-2.9559,-2.9518,-2.9415,-2.9342,-2.9187,-2.898,-2.869,-2.84,-2.8173,-2.8069,-2.8048,-2.7914,-2.7769,-2.809,-2.8371,-2.8394,-3.9305,-3.9305,-3.9305,-3.9587,-3.9823,-3.9469,-3.9587,-3.9867,-3.9513,-3.9305,-3.9305,-3.9305,-3.9305,-3.9305,-3.9305,-3.9305,-3.9237,-3.8925,-3.8342,-3.758,-3.7133,-3.6632,-3.5791,-3.571,-3.571,-3.5669,-3.5588,-3.5521,-3.5399,-3.5277,-3.5154,-3.4962,-3.4839,-3.4673,-3.4452,-3.4397,-3.4397,-3.4397,-3.4397,-3.4397,-3.4358,-3.3862,-3.3117,-3.2646,-3.2529,-3.2529,-3.2424,-3.2476,-3.2672,-3.2659,-3.2672,-3.2868,-3.296,-3.2934,-3.2712,-3.2777,-3.2999,-3.326,-3.3613,-3.3809,-3.4162,-3.4332,-3.4327,-3.4202,-3.4118,-3.3979,-3.3852,-3.3725,-3.3628,-3.3471,-3.3227,-3.2742,-3.2525,-3.2351,-3.1901,-3.1669,-3.1436,-3.0722,-3.0272,-2.9772,-2.8513,-2.7762,-2.7469,-2.7748,-2.7997,-2.8224,-2.8442,-2.8669,-2.8907,-2.868,-2.8421,-2.8556,-2.8597,-2.8711,-2.8856,-2.8928,-2.9073,-2.9321,-2.9404,-2.9259,-2.9042,-2.8876,-2.869,-2.8504,-2.8276,-2.8131,-2.8017,-2.7852,-2.7717,-2.7603,-2.7552,-2.7562,-2.7748,-2.7886,-2.794,-3.9675,-3.9837,-3.9851,-4.0258,-4.0703,-4.0172,-4.0244,-4.066,-4.0215,-3.9938,-3.9851,-3.9895,-3.9938,-3.9895,-3.9881,-3.9752,-3.9396,-3.8876,-3.823,-3.7268,-3.6877,-3.6307,-3.5859,-3.571,-3.571,-3.571,-3.5669,-3.571,-3.5629,-3.5521,-3.5358,-3.5195,-3.5003,-3.4797,-3.4618,-3.4535,-3.4481,-3.4481,-3.4397,-3.4397,-3.428,-3.3979,-3.3483,-3.2986,-3.2973,-3.3038,-3.2908,-3.3091,-3.3156,-3.3156,-3.3156,-3.3287,-3.3652,-3.3744,-3.3522,-3.3208,-3.3509,-3.3692,-3.3862,-3.4084,-3.4345,-3.4397,-3.4397,-3.4314,-3.4243,-3.4147,-3.4063,-3.3852,-3.3768,-3.3683,-3.3513,-3.3386,-3.327,-3.3154,-3.3025,-3.2982,-3.2612,-3.2021,-3.1303,-3.0396,-2.8899,-2.8275,-2.8147,-2.7496,-2.7676,-2.7728,-2.7935,-2.8183,-2.8338,-2.8059,-2.7914,-2.8121,-2.8235,-2.8307,-2.839,-2.8442,-2.8628,-2.8876,-2.8918,-2.8825,-2.8535,-2.8266,-2.81,-2.7997,-2.7852,-2.7728,-2.7634,-2.7572,-2.7537,-2.7444,-2.7361,-2.7392,-2.7531,-2.7624,-2.7696,-4.0958,-4.1645,-4.1659,-4.1742,-4.1811,-4.1659,-4.1701,-4.1784,-4.1617,-4.1701,-4.1436,-4.1576,-4.1534,-4.1478,-4.1476,-4.08,-3.9929,-3.9271,-3.8283,-3.6973,-3.6592,-3.6225,-3.5791,-3.5723,-3.571,-3.571,-3.571,-3.571,-3.571,-3.5683,-3.5562,-3.5358,-3.5277,-3.5195,-3.4908,-3.4756,-3.4756,-3.4714,-3.4535,-3.4397,-3.4384,-3.4293,-3.3953,-3.3744,-3.3809,-3.3875,-3.3587,-3.3783,-3.4005,-3.4071,-3.4123,-3.4201,-3.4306,-3.4306,-3.4293,-3.4228,-3.4267,-3.4293,-3.4267,-3.4332,-3.4397,-3.4397,-3.4397,-3.4397,-3.4356,-3.4314,-3.423,-3.4076,-3.4034,-3.3937,-3.3725,-3.3513,-3.3386,-3.3313,-3.324,-3.3167,-3.2939,-3.2655,-3.2033,-3.1536,-3.0215,-2.9452,-2.8954,-2.8087,-2.7382,-2.7403,-2.7486,-2.7793,-2.7859,-2.77,-2.7537,-2.7707,-2.781,-2.7883,-2.7945,-2.7997,-2.8121,-2.839,-2.8369,-2.8328,-2.81,-2.7831,-2.7717,-2.7593,-2.7489,-2.7496,-2.7475,-2.7423,-2.733,-2.732,-2.732,-2.732,-2.734,-2.7403,-2.7486,-4.2085,-4.199,-4.199,-4.2278,-4.2629,-4.2237,-4.2319,-4.2548,-4.2196,-4.199,-4.199,-4.199,-4.199,-4.1957,-4.1587,-4.0734,-3.9744,-3.9084,-3.795,-3.6825,-3.6348,-3.6022,-3.5778,-3.571,-3.571,-3.575,-3.571,-3.571,-3.571,-3.5669,-3.5588,-3.544,-3.5399,-3.5277,-3.5113,-3.488,-3.4797,-3.4714,-3.4577,-3.4397,-3.4397,-3.4384,-3.428,-3.4071,-3.428,-3.4214,-3.4175,-3.4228,-3.4397,-3.4397,-3.4397,-3.4397,-3.4397,-3.4397,-3.4384,-3.4384,-3.4384,-3.4384,-3.4384,-3.4397,-3.4397,-3.4397,-3.4397,-3.4397,-3.4397,-3.4397,-3.4356,-3.4285,-3.4285,-3.4147,-3.3979,-3.3852,-3.3654,-3.3496,-3.3368,-3.324,-3.3124,-3.2853,-3.2481,-3.2077,-3.1625,-3.0857,-3.0,-2.9095,-2.856,-2.8664,-2.8463,-2.832,-2.8121,-2.7741,-2.7572,-2.7392,-2.7455,-2.7475,-2.7537,-2.7552,-2.7593,-2.7807,-2.7807,-2.7707,-2.7634,-2.7458,-2.7475,-2.7444,-2.7413,-2.7361,-2.732,-2.732,-2.732,-2.732,-2.732,-2.732,-2.732,-2.733,-2.7392,-4.3245,-4.2684,-4.2644,-4.3031,-4.356,-4.2926,-4.3046,-4.3482,-4.2991,-4.2684,-4.2585,-4.2547,-4.2345,-4.2099,-4.1612,-4.0944,-3.9888,-3.8882,-3.7887,-3.7101,-3.6584,-3.6443,-3.6427,-3.6269,-3.6057,-3.5991,-3.579,-3.571,-3.571,-3.5669,-3.5629,-3.548,-3.5521,-3.544,-3.5277,-3.5072,-3.4962,-3.4756,-3.4618,-3.4481,-3.4397,-3.4397,-3.4397,-3.4384,-3.4397,-3.4397,-3.4397,-3.4397,-3.4397,-3.4397,-3.4397,-3.4397,-3.4397,-3.4397,-3.4397,-3.4397,-3.4397,-3.4397,-3.4397,-3.4397,-3.4397,-3.4397,-3.4397,-3.4397,-3.4397,-3.4397,-3.4397,-3.4356,-3.4356,-3.4314,-3.4202,-3.4105,-3.3907,-3.3696,-3.3526,-3.3368,-3.3197,-3.3056,-3.2927,-3.2624,-3.2351,-3.222,-3.1315,-3.0272,-2.9863,-2.9943,-2.9624,-2.9084,-2.8585,-2.8139,-2.7773,-2.7584,-2.7462,-2.7425,-2.7398,-2.7351,-2.732,-2.732,-2.732,-2.733,-2.7392,-2.7392,-2.7372,-2.734,-2.732,-2.732,-2.732,-2.732,-2.732,-2.732,-2.732,-2.732,-2.732,-2.732,-2.732,-4.448,-4.4404,-4.4351,-4.432,-4.4427,-4.4442,-4.4404,-4.4197,-4.4274,-4.4129,-4.3884,-4.3684,-4.2953,-4.26,-4.2195,-4.1452,-4.0308,-4.0234,-3.908,-3.8249,-3.7927,-3.7686,-3.7434,-3.7025,-3.6702,-3.6584,-3.6097,-3.571,-3.571,-3.571,-3.5669,-3.5669,-3.5629,-3.5669,-3.5548,-3.5358,-3.5086,-3.4921,-3.4797,-3.4618,-3.4522,-3.4439,-3.4397,-3.4397,-3.4397,-3.4397,-3.4397,-3.4397,-3.4397,-3.4397,-3.4397,-3.4397,-3.4397,-3.4397,-3.4397,-3.4397,-3.4397,-3.4397,-3.4397,-3.4397,-3.4397,-3.4397,-3.4397,-3.4397,-3.4397,-3.4397,-3.4397,-3.4397,-3.4397,-3.4397,-3.4314,-3.423,-3.4076,-3.3949,-3.3738,-3.3598,-3.3484,-3.3386,-3.3258,-3.3111,-3.2939,-3.2754,-3.2537,-3.1492,-3.0991,-3.1069,-3.0531,-3.0,-2.9406,-2.8899,-2.8305,-2.7987,-2.7678,-2.7547,-2.7404,-2.7441,-2.7584,-2.7452,-2.732,-2.732,-2.733,-2.732,-2.732,-2.732,-2.732,-2.732,-2.732,-2.732,-2.732,-2.732,-2.732,-2.732,-2.732,-2.732,-2.732,-4.3356,-4.3371,-4.3371,-4.3602,-4.3978,-4.3994,-4.3725,-4.3402,-4.3356,-4.3371,-4.3371,-4.3079,-4.2848,-4.254,-4.2073,-4.1437,-4.0402,-3.9895,-3.9121,-3.8464,-3.8101,-3.8101,-3.7814,-3.7486,-3.6858,-3.678,-3.6163,-3.571,-3.571,-3.571,-3.571,-3.571,-3.571,-3.571,-3.5629,-3.5521,-3.529,-3.5086,-3.4962,-3.488,-3.4714,-3.4618,-3.4577,-3.4397,-3.4397,-3.4397,-3.4397,-3.4397,-3.4397,-3.4397,-3.4397,-3.4397,-3.4397,-3.4397,-3.4397,-3.4397,-3.4397,-3.4397,-3.4397,-3.4397,-3.4397,-3.4397,-3.4397,-3.4397,-3.4397,-3.4397,-3.4397,-3.4397,-3.4397,-3.4397,-3.4356,-3.4314,-3.4243,-3.4118,-3.3992,-3.381,-3.3683,-3.3598,-3.3428,-3.327,-3.324,-3.3154,-3.297,-3.2711,-3.2351,-3.212,-3.1492,-3.0857,-3.0306,-2.9806,-2.9257,-2.8852,-2.8631,-2.8362,-2.8269,-2.8128,-2.7998,-2.7726,-2.7499,-2.7499,-2.7536,-2.732,-2.732,-2.732,-2.732,-2.732,-2.732,-2.732,-2.732,-2.732,-2.732,-2.732,-2.732,-2.732,-2.732,-4.2602,-4.2602,-4.2602,-4.2863,-4.3264,-4.3316,-4.3033,-4.2663,-4.2648,-4.2463,-4.2309,-4.2309,-4.2155,-4.1894,-4.1504,-4.1051,-4.0425,-3.9964,-3.943,-3.9088,-3.8964,-3.8818,-3.8524,-3.819,-3.7829,-3.7372,-3.6559,-3.6097,-3.6137,-3.5871,-3.575,-3.571,-3.571,-3.571,-3.5669,-3.5562,-3.5413,-3.5236,-3.5154,-3.5072,-3.4921,-3.488,-3.4825,-3.4605,-3.4577,-3.4535,-3.4535,-3.4494,-3.4397,-3.4397,-3.4397,-3.4397,-3.4397,-3.4397,-3.4397,-3.4397,-3.4397,-3.4397,-3.4397,-3.4397,-3.4397,-3.4397,-3.4397,-3.4397,-3.4397,-3.4397,-3.4397,-3.4397,-3.4397,-3.4397,-3.441,-3.4356,-3.4356,-3.4243,-3.4243,-3.4105,-3.3852,-3.3725,-3.3569,-3.3398,-3.3368,-3.324,-3.3154,-3.2939,-3.284,-3.2667,-3.2394,-3.1769,-3.1125,-3.0711,-3.0351,-3.0034,-2.9806,-2.9543,-2.9268,-2.9176,-2.9037,-2.8806,-2.8491,-2.7987,-2.7857,-2.7584,-2.7367,-2.732,-2.732,-2.732,-2.732,-2.732,-2.732,-2.732,-2.732,-2.732,-2.732,-2.732,-2.732,-4.254,-4.2602,-4.254,-4.2556,-4.2556,-4.2617,-4.2571,-4.2386,-4.2417,-4.2125,-4.1632,-4.1617,-4.1258,-4.0812,-4.072,-4.06,-4.0535,-4.0412,-4.0231,-4.0111,-3.9955,-4.0216,-3.9955,-3.9427,-3.876,-3.876,-3.7776,-3.6883,-3.6844,-3.6243,-3.5911,-3.579,-3.579,-3.571,-3.571,-3.571,-3.5588,-3.544,-3.5399,-3.5277,-3.5154,-3.5086,-3.5031,-3.4949,-3.4797,-3.4714,-3.4673,-3.4494,-3.4397,-3.4397,-3.4397,-3.4397,-3.4397,-3.4397,-3.4397,-3.4397,-3.4397,-3.4397,-3.4397,-3.4397,-3.4397,-3.4397,-3.4397,-3.4397,-3.4397,-3.4397,-3.4397,-3.4397,-3.4397,-3.4424,-3.4424,-3.441,-3.4369,-3.446,-3.4486,-3.4314,-3.4063,-3.3979,-3.381,-3.3654,-3.3356,-3.3111,-3.3124,-3.3081,-3.3081,-3.3038,-3.3081,-3.2667,-3.1945,-3.1669,-3.1392,-3.1258,-3.1036,-3.0633,-3.0351,-3.0215,-3.0034,-2.9806,-2.9303,-2.8574,-2.8081,-2.7715,-2.7499,-2.7357,-2.732,-2.732,-2.732,-2.732,-2.732,-2.732,-2.732,-2.732,-2.732,-2.732,-2.732,-4.1197,-4.1197,-4.1197,-4.1197,-4.1294,-4.1755,-4.1694,-4.1243,-4.1217,-4.1058,-4.0889,-4.0878,-4.0766,-4.0536,-4.0489,-4.0489,-4.0489,-4.0489,-4.0489,-4.0489,-4.0489,-4.0489,-4.0266,-3.9799,-3.9391,-3.9052,-3.819,-3.7701,-3.7686,-3.6883,-3.6559,-3.6441,-3.5951,-3.571,-3.571,-3.5723,-3.5642,-3.5602,-3.5588,-3.5521,-3.5318,-3.529,-3.5249,-3.5113,-3.4934,-3.4852,-3.4797,-3.4577,-3.4439,-3.4397,-3.4397,-3.4397,-3.4397,-3.4397,-3.4397,-3.4397,-3.4397,-3.4397,-3.4397,-3.4397,-3.4397,-3.4397,-3.4397,-3.4397,-3.4397,-3.4397,-3.4397,-3.4397,-3.4397,-3.4541,-3.4894,-3.4554,-3.4528,-3.4842,-3.4829,-3.4502,-3.4272,-3.423,-3.4147,-3.3937,-3.3683,-3.3326,-3.3197,-3.3154,-3.3154,-3.3124,-3.3124,-3.3124,-3.2581,-3.2624,-3.2494,-3.2494,-3.2307,-3.1813,-3.1448,-3.1258,-3.0902,-3.0531,-2.9715,-2.8713,-2.8269,-2.7951,-2.7536,-2.732,-2.732,-2.732,-2.732,-2.732,-2.732,-2.732,-2.732,-2.732,-2.732,-2.732,-2.732,-4.0489,-4.0489,-4.0489,-4.0489,-4.0566,-4.1032,-4.0905,-4.0536,-4.0489,-4.0489,-4.0505,-4.0505,-4.0505,-4.0505,-4.0489,-4.0489,-4.0489,-4.0489,-4.0489,-4.0489,-4.0489,-4.0489,-4.0301,-3.999,-3.9884,-3.9499,-3.8964,-3.8509,-3.8473,-3.7701,-3.7193,-3.6702,-3.6137,-3.579,-3.571,-3.5723,-3.5723,-3.5669,-3.5669,-3.5629,-3.5521,-3.548,-3.544,-3.5318,-3.5154,-3.5003,-3.488,-3.4714,-3.4494,-3.4439,-3.4397,-3.4397,-3.4397,-3.4397,-3.4397,-3.4397,-3.4397,-3.4397,-3.4397,-3.4397,-3.4397,-3.4397,-3.4397,-3.4397,-3.4397,-3.4397,-3.4397,-3.4397,-3.4397,-3.475,-3.5051,-3.4672,-3.4659,-3.4959,-3.4842,-3.4515,-3.4356,-3.4356,-3.423,-3.4063,-3.3852,-3.3569,-3.3283,-3.324,-3.3227,-3.3154,-3.3124,-3.3124,-3.3124,-3.3124,-3.3124,-3.3081,-3.3038,-3.2537,-3.2264,-3.2208,-3.1801,-3.1303,-3.0306,-2.9268,-2.8713,-2.8398,-2.7857,-2.732,-2.732,-2.732,-2.732,-2.732,-2.732,-2.732,-2.732,-2.732,-2.732,-2.732,-2.732,-4.0489,-4.0489,-4.0489,-4.0489,-4.0505,-4.0566,-4.0536,-4.0489,-4.0489,-4.0489,-4.0489,-4.0489,-4.0489,-4.0489,-4.0489,-4.0489,-4.0489,-4.0489,-4.0489,-4.0489,-4.0489,-4.0489,-4.0489,-4.0385,-4.0266,-4.0111,-3.9763,-3.9305,-3.9233,-3.8524,-3.7776,-3.7078,-3.6492,-3.6163,-3.6017,-3.5937,-3.5871,-3.579,-3.571,-3.5669,-3.5629,-3.5669,-3.5629,-3.5521,-3.5399,-3.5236,-3.5072,-3.4921,-3.4701,-3.4577,-3.4439,-3.4439,-3.4397,-3.4397,-3.4397,-3.4397,-3.4397,-3.4397,-3.4397,-3.4397,-3.4397,-3.4397,-3.4397,-3.4397,-3.4397,-3.4397,-3.4397,-3.4397,-3.4424,-3.4803,-3.509,-3.4855,-3.4659,-3.4724,-3.4698,-3.4541,-3.4382,-3.4314,-3.4202,-3.4076,-3.3894,-3.3654,-3.3398,-3.3313,-3.3313,-3.3154,-3.3124,-3.3124,-3.3124,-3.3124,-3.3124,-3.3124,-3.3081,-3.3081,-3.2939,-3.2754,-3.2624,-3.212,-3.1125,-3.0125,-2.9532,-2.876,-2.7998,-2.7499,-2.7357,-2.732,-2.732,-2.732,-2.732,-2.732,-2.732,-2.732,-2.732,-2.732,-2.732,-4.0489,-4.0489,-4.0489,-4.0489,-4.0489,-4.0489,-4.0489,-4.0489,-4.0489,-4.0489,-4.0489,-4.0489,-4.0489,-4.0489,-4.0489,-4.0489,-4.0489,-4.0489,-4.0489,-4.0489,-4.0489,-4.0489,-4.0489,-4.0489,-4.0489,-4.042,-4.0266,-4.0025,-3.992,-3.9305,-3.8524,-3.7814,-3.7357,-3.6986,-3.6688,-3.6559,-3.6177,-3.5871,-3.579,-3.571,-3.571,-3.571,-3.571,-3.5629,-3.5521,-3.5358,-3.5277,-3.5127,-3.4962,-3.4867,-3.4756,-3.4673,-3.4673,-3.4535,-3.4397,-3.4397,-3.4397,-3.4397,-3.4397,-3.4397,-3.4397,-3.4397,-3.4397,-3.4397,-3.4397,-3.4397,-3.4397,-3.4397,-3.4424,-3.4737,-3.4972,-3.4868,-3.4829,-3.4894,-3.4763,-3.4489,-3.4356,-3.4356,-3.4243,-3.4189,-3.4063,-3.3852,-3.3598,-3.3484,-3.3441,-3.324,-3.3124,-3.3124,-3.3124,-3.3124,-3.3124,-3.3124,-3.3124,-3.3124,-3.3124,-3.2982,-3.3038,-3.2853,-3.1757,-3.0756,-3.0125,-2.9268,-2.8222,-2.7631,-2.7404,-2.732,-2.732,-2.732,-2.732,-2.732,-2.732,-2.732,-2.732,-2.732,-2.732,-3.9844,-4.0074,-4.0105,-4.0243,-4.0489,-4.0489,-4.0489,-4.0489,-4.0489,-4.0489,-4.0489,-4.0489,-4.0489,-4.0489,-4.0489,-4.0489,-4.0489,-4.0489,-4.0489,-4.0489,-4.0489,-4.0489,-4.0489,-4.0489,-4.0489,-4.0489,-4.0489,-4.0385,-4.0301,-3.9728,-3.8942,-3.8598,-3.8361,-3.7875,-3.7448,-3.7039,-3.6638,-3.6243,-3.5937,-3.575,-3.571,-3.571,-3.571,-3.5669,-3.5548,-3.548,-3.5399,-3.5249,-3.5208,-3.5086,-3.4934,-3.481,-3.4756,-3.4535,-3.4397,-3.4397,-3.4397,-3.4397,-3.4397,-3.4397,-3.4397,-3.4397,-3.4397,-3.4397,-3.4397,-3.4397,-3.4397,-3.4397,-3.4463,-3.4567,-3.4724,-3.4868,-3.5038,-3.5208,-3.4829,-3.4437,-3.4397,-3.4397,-3.4356,-3.4343,-3.423,-3.4021,-3.3865,-3.3738,-3.3611,-3.3441,-3.3326,-3.3283,-3.3197,-3.3167,-3.3124,-3.3124,-3.3124,-3.3124,-3.3124,-3.3124,-3.3124,-3.2896,-3.2077,-3.1214,-3.0576,-2.9624,-2.8445,-2.7809,-2.7367,-2.7404,-2.7631,-2.7357,-2.732,-2.7357,-2.7357,-2.732,-2.732,-2.732,-2.732,-3.8893,-3.9413,-3.9413,-3.9721,-4.0274,-4.0243,-4.029,-4.0413,-4.0351,-4.0428,-4.0474,-4.0489,-4.0489,-4.0489,-4.0489,-4.0489,-4.0489,-4.0489,-4.0489,-4.0489,-4.0489,-4.0489,-4.0489,-4.0489,-4.0489,-4.0489,-4.0489,-4.0489,-4.0316,-3.9935,-3.9585,-3.9341,-3.8818,-3.845,-3.819,-3.7738,-3.7372,-3.7,-3.6506,-3.6163,-3.579,-3.571,-3.571,-3.571,-3.5669,-3.5588,-3.548,-3.5399,-3.5358,-3.5168,-3.4962,-3.4839,-3.4673,-3.4535,-3.4439,-3.4397,-3.4397,-3.4397,-3.4397,-3.4397,-3.4397,-3.4397,-3.4397,-3.4397,-3.4397,-3.4397,-3.4397,-3.4397,-3.445,-3.4724,-3.492,-3.4763,-3.4789,-3.4946,-3.4803,-3.4515,-3.4397,-3.4397,-3.4397,-3.4397,-3.4356,-3.416,-3.4034,-3.3865,-3.3696,-3.3641,-3.3526,-3.3398,-3.3283,-3.321,-3.3167,-3.3124,-3.3124,-3.3124,-3.3124,-3.3124,-3.3124,-3.2766,-3.222,-3.1713,-3.1169,-2.9988,-2.862,-2.8445,-2.8351,-2.8034,-2.7987,-2.7857,-2.7773,-2.7631,-2.7594,-2.7357,-2.732,-2.732,-2.732,-3.86,-3.8754,-3.8754,-3.8862,-3.9,-3.9,-3.9275,-3.9754,-3.9721,-3.9997,-4.0428,-4.0474,-4.0489,-4.0489,-4.0489,-4.0489,-4.0489,-4.0489,-4.0489,-4.0489,-4.0489,-4.0489,-4.0489,-4.0489,-4.0489,-4.0489,-4.0489,-4.0489,-4.042,-4.0266,-4.0196,-4.0146,-3.9778,-3.9499,-3.9,-3.8598,-3.8264,-3.7814,-3.7434,-3.6649,-3.5911,-3.575,-3.571,-3.571,-3.5669,-3.5669,-3.5588,-3.5588,-3.5588,-3.5521,-3.5195,-3.4867,-3.4535,-3.4439,-3.4397,-3.4397,-3.4397,-3.4397,-3.4397,-3.4397,-3.4397,-3.4397,-3.4397,-3.4397,-3.4397,-3.4397,-3.4397,-3.4397,-3.4515,-3.4829,-3.4959,-3.4698,-3.4528,-3.4672,-3.4789,-3.4593,-3.4397,-3.4397,-3.4397,-3.4397,-3.4397,-3.4285,-3.416,-3.4034,-3.3865,-3.3683,-3.3471,-3.3356,-3.3283,-3.3197,-3.3197,-3.3154,-3.3124,-3.3124,-3.3124,-3.3124,-3.3124,-3.3124,-3.2766,-3.2264,-3.1713,-3.0666,-2.9624,-2.9669,-2.9567,-2.9119,-2.8817,-2.8724,-2.8549,-2.8233,-2.7857,-2.7631,-2.7357,-2.732,-2.732,-3.7784,-3.8077,-3.84,-3.8508,-3.8508,-3.8508,-3.8739,-3.9031,-3.9029,-3.9244,-3.9705,-4.0166,-4.0489,-4.0489,-4.0489,-4.0474,-4.0474,-4.0489,-4.0489,-4.0489,-4.0489,-4.0489,-4.0489,-4.0489,-4.0489,-4.0489,-4.0489,-4.0489,-4.0489,-4.0489,-4.0455,-4.0489,-4.0455,-4.0266,-3.9728,-3.9499,-3.9124,-3.8635,-3.8376,-3.7472,-3.6362,-3.6203,-3.5977,-3.5911,-3.571,-3.571,-3.571,-3.571,-3.571,-3.5629,-3.5399,-3.5113,-3.4825,-3.466,-3.4577,-3.4535,-3.4494,-3.4397,-3.4397,-3.4397,-3.4397,-3.4397,-3.4397,-3.4397,-3.4397,-3.4397,-3.4397,-3.4397,-3.4397,-3.4659,-3.4672,-3.4489,-3.4463,-3.4554,-3.4567,-3.4463,-3.4397,-3.4397,-3.4397,-3.4397,-3.4397,-3.4356,-3.4285,-3.4285,-3.4105,-3.4063,-3.3852,-3.3654,-3.3539,-3.3283,-3.324,-3.3197,-3.3154,-3.3124,-3.3124,-3.3124,-3.3124,-3.3124,-3.3124,-3.2525,-3.1889,-3.1315,-3.0812,-3.0576,-3.0351,-3.0034,-2.9772,-2.9681,-2.9084,-2.8585,-2.8222,-2.7857,-2.7631,-2.7357,-2.732,-3.6861,-3.7446,-3.7984,-3.8231,-3.8246,-3.8231,-3.8277,-3.8369,-3.8385,-3.8446,-3.8739,-3.9721,-4.0197,-4.0366,-4.0243,-4.0366,-4.0382,-4.0243,-4.0305,-4.0489,-4.0489,-4.0489,-4.0489,-4.0489,-4.0489,-4.0489,-4.0489,-4.0489,-4.0489,-4.0489,-4.0489,-4.0489,-4.0489,-4.0489,-4.0266,-3.992,-3.9478,-3.932,-3.8928,-3.8078,-3.741,-3.6883,-3.6362,-3.5977,-3.571,-3.571,-3.571,-3.571,-3.571,-3.5629,-3.548,-3.5236,-3.5086,-3.4867,-3.4839,-3.4784,-3.4618,-3.4535,-3.4494,-3.4452,-3.4397,-3.4397,-3.4397,-3.4397,-3.4397,-3.4397,-3.4397,-3.4397,-3.4397,-3.4463,-3.4476,-3.4424,-3.4437,-3.4502,-3.4489,-3.441,-3.4397,-3.4397,-3.4397,-3.4397,-3.4397,-3.4397,-3.4397,-3.4397,-3.4356,-3.4356,-3.4285,-3.416,-3.3949,-3.3611,-3.3398,-3.3313,-3.3283,-3.3197,-3.3124,-3.3124,-3.3124,-3.3124,-3.3038,-3.2525,-3.212,-3.1945,-3.1625,-3.1125,-3.0902,-3.0991,-3.0812,-3.0666,-2.9943,-2.9314,-2.8585,-2.8222,-2.7904,-2.7678,-2.7404,-3.6553,-3.6692,-3.683,-3.6892,-3.6923,-3.6907,-3.7184,-3.7646,-3.7692,-3.7984,-3.8385,-3.8677,-3.9121,-3.9644,-3.9093,-3.9277,-4.0074,-3.989,-4.012,-4.0413,-4.0336,-4.0413,-4.0474,-4.0428,-4.0489,-4.0489,-4.0489,-4.0489,-4.0489,-4.0489,-4.0489,-4.0489,-4.0489,-4.0489,-4.0455,-4.0196,-4.0111,-3.999,-3.9834,-3.9211,-3.8003,-3.7295,-3.6441,-3.6017,-3.571,-3.571,-3.571,-3.571,-3.571,-3.5629,-3.5521,-3.5331,-3.5208,-3.5113,-3.5044,-3.4962,-3.4797,-3.4673,-3.459,-3.4494,-3.441,-3.4397,-3.4397,-3.4397,-3.4397,-3.4397,-3.4397,-3.4397,-3.4463,-3.4659,-3.4672,-3.4476,-3.4437,-3.4646,-3.4711,-3.4515,-3.4397,-3.4397,-3.4397,-3.4397,-3.4397,-3.4397,-3.4397,-3.4356,-3.4314,-3.4285,-3.4243,-3.4118,-3.3992,-3.3768,-3.3598,-3.3484,-3.3368,-3.324,-3.3154,-3.3124,-3.3124,-3.3124,-3.3081,-3.2797,-3.2711,-3.2896,-3.2525,-3.1989,-3.2164,-3.2394,-3.2164,-3.1613,-3.1214,-3.0498,-2.9268,-2.8585,-2.8315,-2.8128,-2.7998]},{"header":{"parameterUnit":"m.s-1","parameterCategory":1,"la1":31.0,"la2":29.5877,"lo1":-88.7671,"lo2":-86.6584,"dy":0.0162,"dx":0.0185,"nx":115,"ny":88,"refTime":"2024-06-08T06:00:00:Z","depth":0,"parameterNumber":3,"parameterNumberName":"V-component_of_WINDS"},"data":[0.0,0.0,0.0,0.0,0.0,0.0,0.0,0.0,0.0,0.0,0.0,0.0,0.0,0.0,0.0,0.0,0.0,0.0,0.0,0.0,0.0,0.0,0.0,0.0,0.0,0.0,0.0,0.0,0.0,0.0,0.0,0.0,0.0,0.0,0.0,0.0,0.0,0.0,0.0,0.0,0.0,0.0,0.0,0.0,0.0,0.0,0.0,0.0,0.0,0.0,0.0,0.0,0.0,0.0,0.0,0.0,0.0,0.0,0.0,0.0,0.0,0.0,0.0,0.0,0.0,0.0,0.0,0.0,0.0,0.0,0.0,0.0,0.0,0.0,0.0,0.0,0.0,0.0,0.0,0.0,0.0,0.0,0.0,0.0,0.0,0.0,0.0,0.0,0.0,0.0,0.0,0.0,0.0,0.0,0.0,0.0,0.0,0.0,0.0,0.0,0.0,0.0,0.0,0.0,0.0,0.0,0.0,0.0,0.0,0.0,0.0,0.0,0.0,0.0,0.0,0.0,0.0,0.0,0.0,0.0,0.0,0.0,0.0,0.0,0.0,0.0,0.0,0.0,0.0,0.0,0.0,0.0,0.0,0.0,0.0,0.0,0.0,0.0,0.0,0.0,0.0,0.0,0.0,0.0,0.0,0.0,0.0,0.0,0.0,0.0,0.0,0.0,0.0,0.0,0.0,0.0,0.0,0.0,0.0,0.0,0.0,0.0,0.0,0.0,0.0,0.0,0.0,0.0,0.0,0.0,0.0,0.0,0.0,0.0,0.0,0.0,0.0,0.0,0.0,0.0,0.0,0.0,0.0,0.0,0.0,0.0,0.0,0.0,0.0,0.0,0.0,0.0,0.0,0.0,0.0,0.0,0.0,0.0,0.0,0.0,0.0,0.0,0.0,0.0,0.0,0.0,0.0,0.0,0.0,0.0,0.0,0.0,0.0,0.0,0.0,0.0,0.0,0.0,0.0,0.0,0.0,0.0,0.0,0.0,0.0,0.0,0.0,0.0,0.0,0.0,0.0,0.0,0.0,0.0,0.0,0.0,0.0,0.0,0.0,0.0,0.0,0.0,0.0,0.0,0.0,0.0,0.0,0.0,0.0,0.0,0.0,0.0,0.0,0.0,0.0,0.0,0.0,0.0,0.0,0.0,0.0,0.0,0.0,0.0,0.0,0.0,0.0,0.0,0.0,0.0,0.0,0.0,0.0,0.0,0.0,0.0,0.0,0.0,0.0,0.0,0.0,0.0,0.0,0.0,0.0,0.0,0.0,0.0,0.0,0.0,0.0,0.0,0.0,0.0,0.0,0.0,0.0,0.0,0.0,0.0,0.0,0.0,0.0,0.0,0.0,0.0,0.0,0.0,0.0,0.0,0.0,0.0,0.0,0.0,0.0,0.0,0.0,0.0,0.0,0.0,0.0,0.0,0.0,0.0,0.0,0.0,0.0,0.0,0.0,0.0,0.0,0.0,0.0,0.0,0.0,0.0,0.0,0.0,0.0,0.0,0.0,0.0,0.0,0.0,0.0,0.0,0.0,0.0,0.0,0.0,0.0,0.0,0.0,0.0,0.0,0.0,0.0,0.0,0.0,0.0,0.0,0.0,0.0,0.0,0.0,0.0,0.0,0.0,0.0,0.0,0.0,0.0,0.0,0.0,0.0,0.0,0.0,0.0,0.0,0.0,0.0,0.0,0.0,0.0,0.0,0.0,0.0,0.0,0.0,0.0,0.0,0.0,0.0,0.0,0.0,0.0,0.0,0.0,0.0,0.0,0.0,0.0,0.0,0.0,0.0,0.0,0.0,0.0,0.0,0.0,0.0,0.0,0.0,0.0,0.0,0.0,0.0,0.0,0.0,0.0,0.0,0.0,0.0,0.0,0.0,0.0,0.0,0.0,0.0,0.0,0.0,0.0,0.0,0.0,0.0,0.0,0.0,0.0,0.0,0.0,0.0,0.0,0.0,0.0,0.0,0.0,0.0,0.0,0.0,0.0,0.0,0.0,0.0,0.0,0.0,0.0,0.0,0.0,0.0,0.0,0.0,0.0,0.0,0.0,0.0,0.0,0.0,0.0,0.0,0.0,0.0,0.0,0.0,0.0,0.0,0.0,0.0,0.0,0.0,0.0,0.0,0.0,0.0,0.0,0.0,0.0,0.0,0.0,0.0,0.0,0.0,0.0,0.0,0.0,0.0,0.0,0.0,0.0,0.0,0.0,0.0,0.0,0.0,0.0,0.0,0.0,0.0,0.0,0.0,0.0,0.0,0.0,0.0,0.0,0.0,0.0,0.0,0.0,0.0,0.0,0.0,0.0,0.0,0.0,0.0,0.0,0.0,0.0,0.0,0.0,0.0,0.0,0.0,0.0,0.0,0.0,0.0,0.0,0.0,0.0,0.0,0.0,0.0,0.0,0.0,0.0,0.0,0.0,0.0,0.0,0.0,0.0,0.0,0.0,0.0,0.0,0.0,0.0,0.0,0.0,0.0,0.0,0.0,0.0,0.0,0.0,0.0,0.0,0.0,0.0,0.0,0.0,0.0,0.0,0.0,0.0,0.0,0.0,0.0,0.0,0.0,0.0,0.0,0.0,0.0,0.0,0.0,0.0,0.0,0.0,0.0,0.0,0.0,0.0,0.0,0.0,0.0,0.0,0.0,0.0,0.0,0.0,0.0,0.0,0.0,0.0,0.0,0.0,0.0,0.0,0.0,0.0,0.0,0.0,0.0,0.0,0.0,0.0,0.0,0.0,0.0,0.0,0.0,0.0,0.0,0.0,0.0,0.0,0.0,0.0,0.0,0.0,0.0,0.0,0.0,0.0,0.0,0.0,0.0,0.0,0.0,0.0,0.0,0.0,0.0,0.0,0.0,0.0,0.0,0.0,0.0,0.0,0.0,0.0,0.0,0.0,0.0,0.0,0.0,0.0,0.0,0.0,0.0,0.0,0.0,0.0,0.0,0.0,0.0,0.0,0.0,0.0,0.0,0.0,0.0,0.0,0.0,0.0,0.0,0.0,0.0,0.0,0.0,0.0,0.0,0.0,0.0,0.0,0.0,0.0,0.0,0.0,0.0,0.0,0.0,0.0,0.0,0.0,0.0,0.0,0.0,0.0,0.0,0.0,0.0,0.0,0.0,0.0,0.0,0.0,0.0,0.0,0.0,0.0,0.0,0.0,0.0,0.0,0.0,0.0,0.0,0.0,0.0,0.0,0.0,0.0,0.0,0.0,0.0,0.0,0.0,0.0,0.0,0.0,0.0,0.0,0.0,0.0,0.0,0.0,0.0,0.0,0.0,0.0,0.0,0.0,0.0,0.0,0.0,0.0,0.0,0.0,0.0,0.0,0.0,0.0,0.0,0.0,0.0,0.0,0.0,0.0,0.0,0.0,0.0,0.0,0.0,0.0,0.0,0.0,0.0,0.0,0.0,0.0,0.0,0.0,0.0,0.0,0.0,0.0,0.0,0.0,0.0,0.0,0.0,0.0,0.0,0.0,0.0,0.0,0.0,0.0,0.0,0.0,0.0,0.0,0.0,0.0,0.0,0.0,0.0,0.0,0.0,0.0,0.0,0.0,0.0,0.0,0.0,0.0,0.0,0.0,0.0,0.0,0.0,0.0,0.0,0.0,0.0,0.0,0.0,0.0,0.0,0.0,0.0,0.0,0.0,0.0,0.0,0.0,0.0,0.0,0.0,0.0,0.0,0.0,0.0,0.0,0.0,0.0,0.0,0.0,0.0,0.0,0.0,0.0,0.0,0.0,0.0,0.0,0.0,0.0,0.0,0.0,0.0,0.0,0.0,0.0,0.0,0.0,0.0,0.0,0.0,0.0,0.0,0.0,0.0,0.0,0.0,0.0,0.0,0.0,0.0,0.0,0.0,0.0,0.0,0.0,0.0,0.0,0.0,0.0,0.0,0.0,0.0,0.0,0.0,0.0,0.0,0.0,0.0,0.0,0.0,0.0,0.0,0.0,0.0,0.0,0.0,0.0,0.0,0.0,0.0,0.0,0.0,0.0,0.0,0.0,0.0,0.0,0.0,0.0,0.0,0.0,0.0,0.0,0.0,0.0,0.0,0.0,0.0,0.0,0.0,0.0,0.0,0.0,0.0,0.0,0.0,0.0,0.0,0.0,0.0,0.0,0.0,0.0,0.0,0.0,0.0,0.0,0.0,0.0,0.0,0.0,0.0,0.0,0.0,0.0,0.0,0.0,0.0,0.0,0.0,0.0,0.0,0.0,0.0,0.0,0.0,0.0,0.0,0.0,0.0,0.0,0.0,0.0,-1.4793,0.0,0.0,0.0,0.0,0.0,0.0,0.0,0.0,0.0,0.0,0.0,0.0,0.0,0.0,0.0,0.0,0.0,0.0,0.0,0.0,0.0,0.0,0.0,0.0,0.0,0.0,0.0,0.0,0.0,0.0,0.0,0.0,0.0,0.0,0.0,0.0,0.0,0.0,0.0,0.0,0.0,0.0,0.0,0.0,0.0,0.0,0.0,0.0,0.0,0.0,0.0,0.0,0.0,0.0,0.0,0.0,0.0,0.0,0.0,0.0,0.0,0.0,0.0,0.0,0.0,0.0,0.0,0.0,0.0,0.0,0.0,0.0,0.0,0.0,0.0,0.0,0.0,0.0,0.0,0.0,0.0,0.0,0.0,0.0,0.0,0.0,0.0,0.0,0.0,0.0,0.0,0.0,0.0,0.0,0.0,0.0,0.0,0.0,0.0,0.0,0.0,0.0,0.0,0.0,0.0,0.0,0.0,0.0,0.0,0.0,-1.4904,-1.4904,-1.4904,-1.492,-1.4934,0.0,0.0,0.0,0.0,0.0,0.0,0.0,0.0,0.0,0.0,0.0,0.0,0.0,0.0,0.0,0.0,0.0,0.0,0.0,0.0,0.0,0.0,0.0,0.0,0.0,0.0,0.0,0.0,0.0,0.0,0.0,0.0,0.0,0.0,0.0,0.0,0.0,0.0,0.0,0.0,0.0,0.0,0.0,0.0,0.0,0.0,0.0,0.0,0.0,0.0,0.0,0.0,0.0,0.0,0.0,0.0,0.0,0.0,0.0,0.0,0.0,0.0,0.0,0.0,0.0,0.0,0.0,0.0,0.0,0.0,0.0,0.0,0.0,0.0,0.0,0.0,0.0,0.0,0.0,0.0,0.0,0.0,0.0,0.0,0.0,0.0,0.0,0.0,0.0,0.0,0.0,0.0,0.0,0.0,0.0,0.0,0.0,0.0,0.0,0.0,0.0,0.0,0.0,0.0,0.0,0.0,0.0,0.0,0.0,0.0,0.0,0.0,-1.5671,-1.5656,-1.5686,0.0,0.0,0.0,0.0,0.0,0.0,0.0,0.0,0.0,0.0,0.0,0.0,0.0,0.0,0.0,0.0,0.0,0.0,0.0,0.0,0.0,0.0,0.0,0.0,0.0,0.0,0.0,0.0,0.0,0.0,0.0,0.0,0.0,0.0,0.0,0.0,0.0,0.0,0.0,0.0,0.0,0.0,0.0,0.0,0.0,0.0,0.0,0.0,0.0,0.0,0.0,0.0,0.0,0.0,0.0,0.0,0.0,0.0,0.0,0.0,0.0,0.0,0.0,0.0,0.0,0.0,0.0,0.0,0.0,0.0,0.0,0.0,0.0,0.0,0.0,0.0,0.0,0.0,0.0,0.0,0.0,0.0,0.0,0.0,0.0,0.0,0.0,0.0,0.0,0.0,0.0,0.0,0.0,0.0,0.0,0.0,0.0,0.0,0.0,0.0,0.0,0.0,0.0,0.0,0.0,0.0,0.0,0.0,0.0,0.0,-1.5841,-1.758,-1.762,0.0,-1.768,0.0,0.0,0.0,0.0,0.0,0.0,0.0,0.0,0.0,0.0,0.0,0.0,0.0,0.0,0.0,0.0,0.0,0.0,0.0,0.0,0.0,0.0,0.0,0.0,0.0,0.0,0.0,0.0,0.0,0.0,0.0,0.0,0.0,0.0,0.0,0.0,0.0,0.0,0.0,0.0,0.0,0.0,0.0,0.0,0.0,0.0,0.0,0.0,0.0,0.0,0.0,0.0,0.0,0.0,0.0,0.0,0.0,0.0,0.0,0.0,0.0,0.0,0.0,0.0,0.0,0.0,0.0,0.0,0.0,0.0,0.0,0.0,0.0,0.0,0.0,0.0,0.0,0.0,0.0,0.0,0.0,0.0,0.0,0.0,0.0,0.0,0.0,0.0,0.0,0.0,0.0,0.0,0.0,0.0,0.0,0.0,0.0,0.0,0.0,0.0,0.0,0.0,0.0,0.0,0.0,0.0,0.0,0.0,0.0,0.0,0.0,-1.805,-1.8079,-1.8079,0.0,0.0,0.0,0.0,0.0,0.0,0.0,0.0,0.0,0.0,0.0,0.0,0.0,0.0,0.0,0.0,0.0,0.0,0.0,0.0,0.0,0.0,0.0,0.0,0.0,0.0,0.0,0.0,0.0,0.0,0.0,0.0,0.0,0.0,0.0,0.0,0.0,0.0,0.0,0.0,0.0,0.0,0.0,0.0,0.0,0.0,0.0,0.0,0.0,0.0,0.0,0.0,0.0,0.0,0.0,0.0,0.0,0.0,0.0,0.0,0.0,0.0,0.0,0.0,0.0,0.0,0.0,0.0,0.0,0.0,0.0,0.0,0.0,0.0,0.0,0.0,0.0,0.0,0.0,0.0,0.0,0.0,0.0,0.0,0.0,0.0,0.0,0.0,0.0,0.0,0.0,0.0,0.0,0.0,0.0,0.0,0.0,0.0,0.0,0.0,0.0,0.0,0.0,0.0,0.0,0.0,0.0,0.0,0.0,0.0,-1.7751,0.0,-1.8927,-1.8811,-1.8459,-1.794,0.0,0.0,0.0,0.0,0.0,0.0,0.0,0.0,0.0,0.0,0.0,0.0,0.0,0.0,0.0,0.0,0.0,0.0,0.0,0.0,0.0,0.0,0.0,0.0,0.0,0.0,0.0,0.0,0.0,0.0,0.0,0.0,0.0,0.0,0.0,0.0,0.0,0.0,0.0,0.0,0.0,0.0,0.0,0.0,0.0,0.0,0.0,0.0,0.0,0.0,0.0,0.0,0.0,0.0,0.0,0.0,0.0,0.0,0.0,0.0,0.0,0.0,0.0,0.0,0.0,0.0,0.0,0.0,0.0,0.0,0.0,0.0,0.0,0.0,0.0,0.0,0.0,0.0,0.0,0.0,0.0,0.0,0.0,0.0,0.0,0.0,0.0,0.0,0.0,0.0,0.0,0.0,0.0,0.0,0.0,0.0,0.0,0.0,0.0,0.0,0.0,0.0,0.0,0.0,0.0,0.0,0.0,0.0,0.0,-1.9024,-1.9072,-2.0785,-2.032,-1.9145,0.0,0.0,0.0,0.0,0.0,0.0,0.0,0.0,0.0,0.0,0.0,0.0,0.0,0.0,0.0,0.0,0.0,0.0,0.0,0.0,0.0,0.0,0.0,0.0,0.0,0.0,0.0,0.0,0.0,0.0,0.0,0.0,0.0,0.0,0.0,0.0,0.0,0.0,0.0,0.0,0.0,0.0,0.0,0.0,0.0,0.0,0.0,0.0,0.0,0.0,0.0,0.0,0.0,0.0,0.0,0.0,0.0,0.0,0.0,0.0,0.0,0.0,0.0,0.0,0.0,0.0,0.0,0.0,0.0,0.0,0.0,0.0,0.0,0.0,0.0,0.0,0.0,0.0,0.0,0.0,0.0,0.0,0.0,0.0,0.0,0.0,0.0,0.0,0.0,0.0,0.0,0.0,0.0,0.0,0.0,0.0,0.0,0.0,0.0,0.0,0.0,0.0,0.0,0.0,0.0,0.0,0.0,0.0,0.0,-1.7284,-1.7879,-1.9508,0.0,-1.9648,-1.8288,0.0,0.0,0.0,0.0,0.0,0.0,0.0,0.0,0.0,0.0,0.0,0.0,0.0,0.0,0.0,0.0,0.0,0.0,0.0,0.0,0.0,0.0,0.0,0.0,0.0,0.0,0.0,0.0,0.0,0.0,0.0,0.0,0.0,0.0,0.0,0.0,0.0,0.0,0.0,0.0,0.0,0.0,0.0,0.0,0.0,0.0,0.0,0.0,0.0,0.0,0.0,0.0,0.0,0.0,0.0,0.0,0.0,0.0,0.0,0.0,0.0,0.0,0.0,0.0,0.0,0.0,0.0,0.0,0.0,0.0,0.0,0.0,0.0,0.0,0.0,0.0,0.0,0.0,0.0,0.0,0.0,0.0,0.0,0.0,0.0,0.0,0.0,0.0,0.0,0.0,0.0,0.0,0.0,0.0,0.0,0.0,0.0,0.0,0.0,0.0,0.0,0.0,0.0,0.0,0.0,0.0,0.0,0.0,0.0,-1.6866,0.0,-2.0277,0.0,-1.9285,-1.7635,0.0,0.0,0.0,0.0,0.0,0.0,0.0,0.0,0.0,0.0,0.0,0.0,0.0,0.0,0.0,0.0,0.0,0.0,0.0,0.0,0.0,0.0,0.0,0.0,0.0,0.0,0.0,0.0,0.0,0.0,0.0,0.0,0.0,0.0,0.0,0.0,0.0,0.0,0.0,0.0,0.0,0.0,0.0,0.0,0.0,0.0,0.0,0.0,0.0,0.0,0.0,0.0,0.0,0.0,0.0,0.0,0.0,0.0,0.0,0.0,0.0,0.0,0.0,0.0,0.0,0.0,0.0,0.0,0.0,0.0,0.0,0.0,0.0,0.0,0.0,0.0,0.0,0.0,0.0,0.0,0.0,0.0,0.0,0.0,0.0,0.0,0.0,0.0,0.0,0.0,0.0,0.0,0.0,0.0,0.0,0.0,0.0,0.0,0.0,0.0,0.0,0.0,0.0,0.0,0.0,0.0,0.0,0.0,-1.688,-1.987,-2.1177,-2.1293,-2.0175,-1.9391,-1.7287,0.0,0.0,0.0,0.0,0.0,0.0,0.0,0.0,0.0,0.0,0.0,0.0,0.0,0.0,0.0,0.0,0.0,0.0,0.0,0.0,0.0,0.0,0.0,0.0,0.0,0.0,0.0,0.0,0.0,0.0,0.0,0.0,0.0,0.0,0.0,0.0,0.0,0.0,0.0,0.0,0.0,0.0,0.0,0.0,0.0,0.0,0.0,0.0,0.0,0.0,0.0,0.0,0.0,0.0,0.0,0.0,0.0,0.0,0.0,0.0,0.0,0.0,0.0,0.0,0.0,0.0,0.0,0.0,0.0,0.0,0.0,0.0,0.0,0.0,0.0,0.0,0.0,0.0,0.0,0.0,0.0,0.0,0.0,0.0,0.0,0.0,0.0,0.0,0.0,0.0,0.0,0.0,0.0,0.0,0.0,0.0,0.0,0.0,0.0,0.0,0.0,0.0,0.0,0.0,0.0,0.0,0.0,0.0,0.0,-1.8114,-1.9798,-2.093,-2.1278,-1.8608,-1.7185,0.0,0.0,0.0,0.0,0.0,0.0,0.0,0.0,0.0,0.0,0.0,0.0,0.0,0.0,0.0,0.0,0.0,0.0,0.0,0.0,0.0,0.0,0.0,0.0,0.0,0.0,0.0,0.0,0.0,0.0,0.0,0.0,0.0,0.0,0.0,0.0,0.0,0.0,0.0,0.0,0.0,0.0,0.0,0.0,0.0,0.0,0.0,0.0,0.0,0.0,0.0,0.0,0.0,0.0,0.0,0.0,0.0,0.0,0.0,0.0,0.0,0.0,0.0,0.0,0.0,0.0,0.0,0.0,0.0,0.0,0.0,0.0,0.0,0.0,0.0,0.0,0.0,0.0,0.0,0.0,0.0,0.0,0.0,0.0,0.0,0.0,0.0,0.0,0.0,0.0,0.0,0.0,0.0,0.0,0.0,0.0,0.0,0.0,0.0,0.0,0.0,0.0,0.0,0.0,0.0,0.0,0.0,0.0,0.0,-1.9072,-2.064,-2.1772,-2.2316,-1.9508,-1.7998,-1.7954,0.0,0.0,0.0,0.0,0.0,0.0,0.0,0.0,0.0,0.0,0.0,0.0,0.0,0.0,0.0,0.0,0.0,0.0,0.0,0.0,0.0,0.0,0.0,0.0,0.0,0.0,0.0,0.0,0.0,0.0,0.0,0.0,0.0,0.0,0.0,0.0,0.0,0.0,0.0,0.0,0.0,0.0,0.0,0.0,0.0,0.0,0.0,0.0,0.0,0.0,0.0,0.0,0.0,0.0,0.0,0.0,0.0,0.0,0.0,0.0,0.0,0.0,0.0,0.0,0.0,0.0,0.0,0.0,0.0,0.0,0.0,0.0,0.0,0.0,0.0,0.0,0.0,0.0,0.0,0.0,0.0,0.0,0.0,0.0,0.0,0.0,0.0,0.0,0.0,0.0,0.0,0.0,0.0,0.0,0.0,0.0,0.0,0.0,0.0,0.0,0.0,0.0,0.0,0.0,0.0,0.0,0.0,0.0,-2.2149,-2.3426,-2.3804,-2.3149,-2.175,-1.9624,0.0,0.0,0.0,0.0,0.0,0.0,0.0,0.0,0.0,0.0,0.0,0.0,0.0,0.0,0.0,0.0,0.0,0.0,0.0,0.0,0.0,0.0,0.0,0.0,0.0,0.0,0.0,0.0,0.0,0.0,0.0,0.0,0.0,0.0,0.0,0.0,0.0,0.0,0.0,0.0,0.0,0.0,0.0,0.0,0.0,0.0,0.0,0.0,0.0,0.0,0.0,0.0,0.0,0.0,0.0,0.0,0.0,0.0,0.0,0.0,0.0,0.0,0.0,0.0,0.0,0.0,0.0,0.0,0.0,0.0,0.0,0.0,0.0,0.0,0.0,0.0,0.0,0.0,0.0,0.0,0.0,0.0,0.0,0.0,0.0,0.0,0.0,0.0,0.0,0.0,0.0,0.0,0.0,0.0,0.0,0.0,0.0,0.0,0.0,0.0,0.0,0.0,0.0,0.0,0.0,0.0,0.0,0.0,0.0,-2.4056,-2.5796,-2.6405,-2.5749,-2.3151,-2.1351,0.0,0.0,0.0,0.0,0.0,0.0,0.0,0.0,0.0,0.0,0.0,0.0,0.0,0.0,0.0,0.0,0.0,0.0,0.0,0.0,0.0,0.0,0.0,0.0,0.0,0.0,0.0,0.0,0.0,0.0,0.0,0.0,0.0,0.0,0.0,0.0,0.0,0.0,0.0,0.0,0.0,0.0,0.0,0.0,0.0,0.0,0.0,0.0,0.0,0.0,0.0,0.0,0.0,0.0,0.0,0.0,0.0,0.0,0.0,0.0,0.0,0.0,0.0,0.0,0.0,0.0,0.0,0.0,0.0,0.0,0.0,0.0,0.0,0.0,0.0,0.0,0.0,0.0,0.0,0.0,0.0,0.0,0.0,0.0,0.0,0.0,0.0,0.0,0.0,0.0,0.0,0.0,0.0,0.0,0.0,0.0,0.0,0.0,0.0,0.0,0.0,0.0,0.0,0.0,0.0,0.0,0.0,0.0,-2.3418,-2.5593,-2.7507,-2.8319,-2.7984,-2.54,-2.3238,0.0,0.0,0.0,0.0,0.0,0.0,0.0,0.0,0.0,0.0,0.0,0.0,0.0,0.0,0.0,0.0,0.0,0.0,0.0,0.0,0.0,0.0,0.0,0.0,0.0,0.0,0.0,0.0,0.0,0.0,0.0,0.0,0.0,0.0,0.0,0.0,0.0,0.0,0.0,0.0,0.0,0.0,0.0,0.0,0.0,0.0,0.0,0.0,0.0,0.0,0.0,0.0,0.0,0.0,0.0,0.0,0.0,0.0,0.0,0.0,0.0,0.0,0.0,0.0,0.0,0.0,0.0,0.0,0.0,0.0,0.0,0.0,0.0,0.0,0.0,0.0,0.0,0.0,0.0,0.0,0.0,0.0,0.0,0.0,0.0,0.0,0.0,0.0,0.0,0.0,0.0,0.0,0.0,0.0,0.0,0.0,0.0,0.0,0.0,0.0,0.0,0.0,0.0,0.0,0.0,0.0,0.0,0.0,-2.4375,-2.6762,-2.871,-2.9653,-2.9537,-2.7781,-2.5067,0.0,0.0,0.0,0.0,0.0,0.0,0.0,0.0,0.0,0.0,0.0,0.0,0.0,0.0,0.0,0.0,0.0,0.0,0.0,0.0,0.0,0.0,0.0,0.0,0.0,0.0,0.0,0.0,0.0,0.0,0.0,0.0,0.0,0.0,0.0,0.0,0.0,0.0,0.0,0.0,0.0,0.0,0.0,0.0,0.0,0.0,0.0,0.0,0.0,0.0,0.0,0.0,0.0,0.0,0.0,0.0,0.0,0.0,0.0,0.0,0.0,0.0,0.0,0.0,0.0,0.0,0.0,0.0,0.0,0.0,0.0,0.0,0.0,0.0,0.0,0.0,0.0,0.0,0.0,0.0,0.0,0.0,0.0,0.0,0.0,0.0,0.0,0.0,0.0,0.0,0.0,0.0,0.0,0.0,0.0,0.0,0.0,0.0,0.0,0.0,0.0,0.0,0.0,0.0,0.0,0.0,0.0,0.0,-2.5691,-2.6794,-2.9131,-3.0132,-2.961,-2.7781,-2.5701,0.0,0.0,0.0,0.0,0.0,0.0,0.0,0.0,0.0,0.0,0.0,0.0,0.0,0.0,0.0,0.0,0.0,0.0,0.0,0.0,0.0,0.0,0.0,0.0,0.0,0.0,0.0,0.0,0.0,0.0,0.0,0.0,0.0,0.0,0.0,0.0,0.0,0.0,0.0,0.0,0.0,0.0,0.0,0.0,0.0,0.0,0.0,0.0,-1.9101,0.0,0.0,0.0,0.0,0.0,0.0,0.0,0.0,0.0,0.0,0.0,0.0,0.0,0.0,0.0,0.0,0.0,0.0,0.0,0.0,0.0,0.0,0.0,0.0,0.0,0.0,0.0,0.0,0.0,0.0,0.0,0.0,0.0,0.0,0.0,0.0,0.0,0.0,0.0,0.0,0.0,0.0,0.0,0.0,0.0,0.0,0.0,0.0,0.0,0.0,0.0,0.0,0.0,0.0,0.0,0.0,0.0,0.0,0.0,-2.6428,-2.7706,-2.9595,-3.0408,-3.0031,-2.8534,-2.6489,0.0,0.0,0.0,0.0,0.0,0.0,0.0,0.0,0.0,0.0,0.0,0.0,0.0,0.0,0.0,0.0,0.0,0.0,0.0,0.0,0.0,0.0,0.0,0.0,0.0,0.0,0.0,0.0,0.0,0.0,0.0,0.0,0.0,0.0,0.0,0.0,0.0,0.0,0.0,0.0,0.0,0.0,0.0,0.0,0.0,0.0,0.0,0.0,0.0,0.0,0.0,0.0,0.0,0.0,0.0,0.0,0.0,0.0,0.0,0.0,0.0,0.0,0.0,0.0,0.0,0.0,0.0,0.0,0.0,0.0,0.0,0.0,0.0,0.0,0.0,0.0,0.0,0.0,0.0,0.0,0.0,0.0,0.0,0.0,0.0,0.0,0.0,0.0,0.0,0.0,0.0,0.0,0.0,0.0,0.0,0.0,0.0,0.0,0.0,0.0,0.0,0.0,0.0,0.0,0.0,0.0,0.0,-2.4254,-2.6762,-2.8651,-2.9944,-3.0612,-3.0583,-2.9377,-2.7256,-2.4214,0.0,0.0,0.0,0.0,0.0,0.0,0.0,0.0,0.0,0.0,0.0,0.0,0.0,0.0,0.0,0.0,0.0,0.0,0.0,0.0,0.0,0.0,0.0,0.0,0.0,0.0,0.0,0.0,0.0,0.0,0.0,0.0,0.0,0.0,0.0,0.0,0.0,0.0,-1.9747,-2.1832,0.0,0.0,0.0,0.0,0.0,0.0,0.0,0.0,-2.1978,0.0,0.0,0.0,0.0,0.0,0.0,0.0,0.0,0.0,0.0,0.0,0.0,0.0,0.0,0.0,0.0,0.0,0.0,0.0,0.0,0.0,0.0,0.0,0.0,0.0,0.0,0.0,0.0,0.0,0.0,0.0,0.0,0.0,0.0,0.0,0.0,0.0,0.0,0.0,0.0,0.0,0.0,0.0,0.0,0.0,0.0,0.0,0.0,0.0,0.0,0.0,0.0,0.0,0.0,0.0,0.0,-2.2526,-2.4704,-2.6721,-2.868,-2.9958,-3.0612,-3.0569,-2.9377,-2.7472,-2.4936,0.0,0.0,0.0,0.0,0.0,0.0,0.0,0.0,0.0,0.0,0.0,0.0,0.0,0.0,0.0,0.0,0.0,0.0,0.0,0.0,0.0,0.0,0.0,0.0,0.0,0.0,0.0,0.0,0.0,0.0,0.0,0.0,0.0,0.0,0.0,0.0,0.0,0.0,0.0,-2.3354,-2.4514,0.0,0.0,0.0,0.0,0.0,0.0,0.0,0.0,-2.1691,0.0,0.0,0.0,0.0,0.0,0.0,0.0,0.0,0.0,0.0,0.0,0.0,0.0,0.0,0.0,0.0,0.0,0.0,0.0,0.0,0.0,0.0,0.0,0.0,0.0,0.0,0.0,0.0,0.0,0.0,0.0,0.0,0.0,0.0,0.0,0.0,0.0,0.0,0.0,0.0,0.0,0.0,0.0,0.0,0.0,0.0,0.0,0.0,0.0,0.0,0.0,0.0,0.0,0.0,0.0,-2.233,-2.4994,-2.7111,-2.8665,-2.9944,-3.0612,-3.0569,-2.8723,-2.7015,0.0,0.0,0.0,0.0,0.0,0.0,0.0,0.0,0.0,0.0,0.0,0.0,0.0,0.0,0.0,0.0,0.0,0.0,0.0,0.0,0.0,0.0,0.0,0.0,0.0,0.0,0.0,0.0,0.0,0.0,0.0,0.0,0.0,0.0,0.0,0.0,0.0,0.0,0.0,0.0,-2.3951,-2.511,-2.5143,0.0,0.0,0.0,0.0,0.0,0.0,-2.3512,-2.2944,0.0,0.0,0.0,0.0,0.0,0.0,0.0,0.0,0.0,0.0,0.0,0.0,0.0,0.0,0.0,0.0,0.0,0.0,0.0,0.0,0.0,0.0,0.0,0.0,0.0,0.0,0.0,0.0,0.0,0.0,0.0,0.0,0.0,0.0,0.0,0.0,0.0,0.0,0.0,0.0,0.0,0.0,0.0,0.0,0.0,0.0,0.0,0.0,0.0,0.0,0.0,0.0,0.0,0.0,0.0,-2.2149,-2.5212,-2.7461,-2.884,-3.0016,-3.0599,-3.0528,-2.8256,-2.6686,0.0,0.0,0.0,0.0,0.0,0.0,0.0,0.0,0.0,0.0,0.0,0.0,0.0,0.0,0.0,0.0,0.0,0.0,0.0,0.0,0.0,0.0,0.0,0.0,0.0,0.0,0.0,0.0,0.0,0.0,0.0,0.0,0.0,0.0,0.0,0.0,0.0,0.0,0.0,0.0,0.0,-2.6038,-2.6222,-2.6026,0.0,0.0,0.0,0.0,-2.5831,-2.5648,0.0,0.0,0.0,0.0,0.0,0.0,0.0,0.0,0.0,0.0,0.0,0.0,0.0,0.0,0.0,0.0,0.0,0.0,0.0,0.0,0.0,0.0,0.0,0.0,0.0,0.0,0.0,0.0,0.0,0.0,0.0,0.0,0.0,0.0,0.0,0.0,0.0,0.0,0.0,0.0,0.0,0.0,0.0,0.0,0.0,0.0,0.0,0.0,0.0,0.0,0.0,0.0,0.0,0.0,0.0,0.0,-2.2736,-2.5444,-2.7679,-2.9407,-3.0219,-3.0558,-3.0386,-2.8721,-2.7075,0.0,0.0,0.0,0.0,0.0,0.0,0.0,0.0,0.0,0.0,0.0,0.0,0.0,0.0,0.0,0.0,0.0,0.0,0.0,0.0,0.0,0.0,0.0,0.0,0.0,0.0,0.0,0.0,0.0,0.0,0.0,0.0,0.0,0.0,0.0,0.0,0.0,0.0,0.0,0.0,0.0,-2.8315,-2.6683,-2.7414,-2.795,0.0,0.0,0.0,-2.8251,-2.8876,0.0,0.0,0.0,0.0,0.0,0.0,0.0,0.0,0.0,0.0,0.0,0.0,0.0,0.0,0.0,0.0,0.0,0.0,0.0,0.0,0.0,0.0,0.0,0.0,0.0,0.0,0.0,0.0,0.0,0.0,0.0,0.0,0.0,0.0,0.0,0.0,0.0,0.0,0.0,0.0,0.0,0.0,0.0,0.0,0.0,0.0,0.0,0.0,0.0,0.0,0.0,0.0,0.0,0.0,0.0,-1.9653,-2.3374,-2.601,-2.8071,-2.9537,-3.0248,-3.0381,-2.9956,-2.7908,-2.6169,0.0,0.0,0.0,0.0,0.0,0.0,0.0,0.0,0.0,0.0,0.0,0.0,0.0,0.0,0.0,0.0,0.0,0.0,0.0,0.0,0.0,0.0,0.0,0.0,0.0,0.0,0.0,0.0,0.0,0.0,0.0,0.0,0.0,0.0,0.0,0.0,0.0,0.0,0.0,0.0,0.0,0.0,-2.8913,-2.9166,0.0,0.0,0.0,-2.9267,-2.9957,0.0,0.0,0.0,0.0,0.0,0.0,0.0,0.0,0.0,0.0,0.0,0.0,0.0,0.0,0.0,0.0,0.0,0.0,0.0,0.0,0.0,0.0,0.0,0.0,0.0,0.0,0.0,0.0,0.0,0.0,0.0,0.0,0.0,0.0,0.0,0.0,0.0,0.0,0.0,0.0,0.0,0.0,0.0,0.0,0.0,0.0,0.0,0.0,0.0,0.0,0.0,0.0,0.0,0.0,0.0,0.0,0.0,-2.4094,-2.6663,-2.8551,-2.9813,-3.0321,-3.0352,-2.9769,-2.7527,0.0,0.0,0.0,0.0,0.0,0.0,0.0,0.0,0.0,0.0,0.0,0.0,0.0,0.0,0.0,0.0,0.0,0.0,0.0,0.0,0.0,0.0,0.0,0.0,0.0,0.0,0.0,-1.1495,0.0,0.0,0.0,0.0,0.0,0.0,0.0,0.0,0.0,0.0,0.0,0.0,0.0,0.0,-2.9034,-3.0694,-3.0975,-3.147,0.0,0.0,-3.1134,-3.1786,-3.1675,-3.0509,0.0,0.0,0.0,0.0,0.0,0.0,0.0,0.0,0.0,0.0,0.0,0.0,0.0,0.0,0.0,0.0,0.0,0.0,0.0,0.0,0.0,0.0,0.0,0.0,0.0,0.0,0.0,0.0,0.0,0.0,0.0,0.0,0.0,0.0,0.0,0.0,0.0,0.0,0.0,0.0,0.0,0.0,0.0,0.0,0.0,0.0,0.0,0.0,0.0,0.0,0.0,0.0,0.0,0.0,0.0,-2.4747,-2.7358,-2.9246,-3.0451,-3.0583,-3.0529,-3.0324,-2.8193,-2.6508,0.0,0.0,0.0,0.0,0.0,0.0,0.0,0.0,0.0,0.0,0.0,0.0,0.0,0.0,0.0,0.0,0.0,0.0,0.0,0.0,0.0,0.0,0.0,0.0,0.0,0.0,0.0,0.0,0.0,0.0,0.0,0.0,0.0,0.0,0.0,0.0,0.0,0.0,0.0,0.0,0.0,-3.0761,-3.0952,-3.2728,-3.428,0.0,0.0,-3.344,-3.415,-3.4793,-3.3795,-2.9533,0.0,0.0,0.0,0.0,0.0,0.0,0.0,0.0,0.0,0.0,0.0,0.0,0.0,0.0,0.0,0.0,0.0,0.0,0.0,0.0,0.0,0.0,0.0,0.0,0.0,0.0,0.0,0.0,0.0,0.0,0.0,0.0,0.0,0.0,0.0,0.0,0.0,0.0,0.0,0.0,0.0,0.0,0.0,0.0,0.0,0.0,0.0,0.0,0.0,0.0,0.0,0.0,0.0,-2.1003,-2.4795,-2.7374,-2.9319,-3.0539,-3.0657,-3.0514,-3.0085,-2.8606,-2.6792,0.0,0.0,0.0,0.0,0.0,0.0,0.0,0.0,0.0,0.0,0.0,0.0,0.0,0.0,0.0,0.0,0.0,0.0,0.0,0.0,0.0,0.0,0.0,0.0,0.0,0.0,0.0,0.0,-1.6182,-1.6774,-1.7662,0.0,0.0,0.0,0.0,0.0,0.0,0.0,0.0,0.0,0.0,-3.2152,-3.3568,-3.4953,0.0,0.0,-3.6124,-3.5611,-3.5881,-3.5351,-3.388,-3.0855,-2.9602,0.0,0.0,0.0,0.0,0.0,0.0,0.0,0.0,0.0,0.0,0.0,0.0,0.0,0.0,0.0,0.0,0.0,0.0,0.0,0.0,0.0,0.0,0.0,0.0,0.0,0.0,0.0,0.0,0.0,0.0,0.0,0.0,0.0,0.0,0.0,0.0,0.0,0.0,0.0,0.0,0.0,0.0,0.0,0.0,0.0,0.0,0.0,0.0,0.0,0.0,0.0,0.0,-2.117,-2.4757,-2.736,-2.9319,-3.0583,-3.0702,-3.0543,-3.0105,-2.8906,-2.706,0.0,0.0,0.0,0.0,0.0,0.0,0.0,0.0,0.0,0.0,0.0,0.0,0.0,0.0,0.0,0.0,0.0,0.0,0.0,0.0,0.0,0.0,0.0,0.0,0.0,0.0,0.0,0.0,-1.7959,-1.8448,-1.829,0.0,0.0,0.0,0.0,0.0,0.0,0.0,0.0,0.0,0.0,-3.3616,-3.5828,-3.6888,-3.7719,-3.8398,-3.7527,-3.6863,-3.7094,-3.6051,-3.4443,-3.2222,0.0,0.0,0.0,0.0,0.0,0.0,0.0,0.0,0.0,0.0,0.0,0.0,0.0,0.0,0.0,0.0,0.0,0.0,0.0,0.0,0.0,0.0,0.0,0.0,0.0,0.0,0.0,0.0,0.0,0.0,0.0,0.0,0.0,0.0,0.0,0.0,0.0,0.0,0.0,0.0,0.0,0.0,0.0,0.0,0.0,0.0,0.0,0.0,0.0,0.0,0.0,0.0,0.0,0.0,-2.4795,-2.7403,-2.9334,-3.0554,-3.0612,-3.0598,-3.0525,-2.899,-2.7453,-2.6016,0.0,0.0,0.0,0.0,0.0,0.0,0.0,0.0,0.0,0.0,0.0,0.0,0.0,0.0,0.0,0.0,0.0,0.0,0.0,0.0,0.0,0.0,0.0,0.0,0.0,0.0,-1.6553,-1.769,-1.8303,0.0,0.0,0.0,0.0,0.0,0.0,0.0,0.0,0.0,0.0,-3.2967,-3.5222,-3.735,-3.8408,-3.9125,-3.9724,-3.8138,-3.706,-3.7787,-3.7212,-3.6,0.0,0.0,0.0,0.0,0.0,0.0,0.0,0.0,0.0,0.0,0.0,0.0,0.0,0.0,0.0,0.0,0.0,0.0,0.0,0.0,0.0,0.0,0.0,0.0,0.0,0.0,0.0,-1.9923,-1.8753,0.0,0.0,0.0,0.0,0.0,0.0,0.0,0.0,0.0,0.0,0.0,-2.4907,-2.6155,0.0,0.0,0.0,0.0,0.0,0.0,0.0,0.0,0.0,0.0,0.0,0.0,-2.2715,-2.5444,-2.7971,-2.9726,-3.0569,-3.0687,-3.0732,-3.0717,-2.9968,-2.8165,-2.5174,0.0,0.0,0.0,0.0,0.0,0.0,0.0,0.0,0.0,0.0,0.0,0.0,0.0,0.0,0.0,0.0,0.0,0.0,0.0,0.0,0.0,0.0,0.0,0.0,0.0,-1.8717,0.0,0.0,0.0,0.0,0.0,0.0,0.0,0.0,0.0,0.0,0.0,-3.0404,-3.2883,-3.5206,-3.706,-3.8276,-3.9192,-3.98,0.0,0.0,0.0,0.0,0.0,0.0,0.0,0.0,0.0,0.0,0.0,0.0,0.0,0.0,-3.5881,-3.1955,-3.0581,-3.0142,-3.0415,0.0,0.0,0.0,0.0,0.0,0.0,0.0,0.0,0.0,0.0,0.0,0.0,0.0,0.0,0.0,0.0,-2.2033,0.0,0.0,0.0,0.0,0.0,0.0,0.0,0.0,-2.7287,-2.8419,-2.7839,-2.9073,-2.9232,0.0,-2.7536,-2.5303,0.0,0.0,0.0,0.0,0.0,0.0,0.0,0.0,-2.3688,-2.6431,-2.8768,-3.0263,-3.0872,-3.0992,-3.0951,-3.0791,-3.0246,-2.8482,-2.5397,-2.3565,-2.1925,0.0,0.0,0.0,0.0,0.0,0.0,0.0,0.0,0.0,0.0,0.0,0.0,0.0,0.0,0.0,0.0,0.0,0.0,0.0,0.0,0.0,0.0,0.0,-1.9933,0.0,0.0,0.0,0.0,0.0,0.0,0.0,0.0,0.0,-2.8171,-3.0693,-3.3244,-3.516,-3.6979,-3.8417,-3.9142,0.0,0.0,0.0,0.0,0.0,0.0,0.0,-3.7862,-3.7608,-3.7144,-3.6907,-3.7121,-3.8406,-3.9191,-3.843,0.0,0.0,-3.5069,-3.3681,-3.322,-3.3491,-3.3491,-3.3372,-3.3186,-3.3711,-3.4207,0.0,0.0,0.0,0.0,0.0,0.0,0.0,0.0,-2.6065,-2.6036,0.0,-2.5353,0.0,0.0,0.0,0.0,0.0,0.0,0.0,0.0,-3.0944,-3.2164,-3.1524,-3.1538,-3.1598,-3.1567,-3.1526,-3.0524,-2.852,-2.318,0.0,0.0,0.0,0.0,0.0,0.0,-2.4612,-2.771,-2.9682,-3.093,-3.1495,-3.1526,-3.1282,-3.0821,-2.9863,-2.8497,-2.6752,-2.5974,-2.4163,-2.1006,-2.0343,0.0,0.0,0.0,0.0,0.0,0.0,0.0,0.0,0.0,0.0,0.0,0.0,0.0,0.0,0.0,0.0,0.0,0.0,0.0,0.0,-1.888,0.0,0.0,0.0,0.0,0.0,0.0,0.0,0.0,0.0,0.0,-3.1216,-3.3681,-3.6133,-3.7407,0.0,0.0,0.0,0.0,-4.0146,-4.0197,-4.018,-3.9943,-3.9242,-3.969,-3.9893,-3.9208,0.0,0.0,-4.0265,-4.1322,-4.1525,-3.9512,-4.0307,-4.1001,-4.0214,-3.82,-3.7117,-3.7719,-3.6783,-3.6124,-3.6812,-3.7483,-3.798,-2.996,0.0,0.0,0.0,0.0,-2.7808,-2.8898,-3.0597,-3.0597,-3.0074,-2.9217,-2.9058,0.0,0.0,0.0,0.0,0.0,0.0,-2.8738,-2.9842,-3.1671,-3.2643,-3.2919,-3.3383,-3.3587,-3.3572,-3.3137,-3.2396,-3.1322,-2.884,-2.5633,-2.1881,0.0,0.0,0.0,0.0,-2.7723,-2.9073,-3.0958,-3.2048,-3.2191,-3.1897,-3.1526,-3.119,-3.0319,-2.9292,-2.8058,-2.739,-2.6071,-2.4,-2.2183,0.0,0.0,0.0,0.0,0.0,0.0,0.0,0.0,0.0,0.0,0.0,0.0,0.0,0.0,0.0,0.0,0.0,0.0,0.0,-1.9591,-2.0169,-2.1361,0.0,0.0,0.0,0.0,0.0,0.0,0.0,0.0,0.0,-3.6205,-3.6757,-3.7658,0.0,0.0,-4.0062,-4.0781,-4.0882,-4.1068,-4.1602,0.0,0.0,0.0,-4.1085,-4.0984,-4.1288,-4.1711,-4.1897,-4.1694,-4.2016,-4.2083,-4.1433,-4.1694,-4.1897,-4.1644,-4.0333,-3.9462,-4.002,-3.9859,-3.9851,-4.0544,-4.0899,-4.1129,-3.3927,-3.1037,-3.0084,-3.0174,-3.0974,-3.1251,-3.2239,-3.3645,-3.3659,-3.3242,-3.2486,-3.2208,-3.0814,-2.8637,-2.8144,0.0,0.0,0.0,-3.0756,-3.1803,-3.2788,-3.347,-3.3862,-3.424,-3.438,-3.4351,-3.4022,-3.3659,-3.3253,-3.2222,-2.9914,-2.6405,0.0,0.0,-2.5636,-2.7897,-2.9624,-3.0741,-3.2164,-3.289,-3.289,-3.2192,-3.1631,-3.122,-3.0525,-2.9809,-2.9041,-2.8338,-2.7295,-2.5796,-2.3889,-2.2154,0.0,0.0,0.0,0.0,0.0,0.0,0.0,0.0,0.0,0.0,0.0,-1.6442,0.0,0.0,0.0,0.0,-1.8617,-2.0834,-2.2692,-2.3701,0.0,0.0,0.0,0.0,0.0,0.0,0.0,-3.4108,-3.6226,-3.8027,-3.9276,-3.9505,-3.986,-4.0771,-4.0924,-4.1162,-4.1576,0.0,-4.1796,-4.2236,-4.2557,-4.2625,-4.2337,-4.2185,-4.2236,-4.2658,-4.2997,-4.3183,-4.3227,-4.3227,-4.3098,-4.2828,-4.2743,-4.2625,-4.2354,-4.1542,-4.1111,-4.1542,-4.1644,-4.1796,-4.2219,-4.2303,-4.2375,-3.7363,-3.6678,-3.5167,-3.4513,-3.4583,-3.5183,-3.5465,-3.5479,-3.5465,-3.5479,-3.5421,-3.482,-3.3539,-3.1814,-3.0639,0.0,0.0,-3.2266,-3.3137,-3.3736,-3.4298,-3.453,-3.4486,-3.4486,-3.4472,-3.438,-3.438,-3.438,-3.437,-3.3837,-3.2919,-3.1683,-2.9392,-2.8725,-2.9653,-2.9856,-3.0814,-3.2539,-3.3242,-3.3561,-3.3507,-3.2409,-3.1614,-3.1102,-3.0539,-3.0013,-2.9493,-2.8921,-2.7979,-2.6632,-2.5307,-2.3483,-2.1066,0.0,0.0,0.0,0.0,0.0,0.0,0.0,0.0,0.0,0.0,0.0,0.0,0.0,0.0,0.0,-2.2626,0.0,-2.6318,-2.84,0.0,0.0,0.0,-3.1391,-3.246,-3.4172,-3.5647,-3.6683,0.0,0.0,0.0,0.0,-4.2351,-4.2301,-4.2291,-4.232,-4.2354,-4.2388,-4.2405,-4.2567,-4.3081,-4.3267,-4.276,-4.3081,-4.3453,-4.3538,-4.4113,-4.4496,-4.4496,-4.4513,-4.4248,-4.3612,-4.3504,-4.3335,-4.2608,-4.2506,-4.2455,-4.2506,-4.2439,-4.2405,-4.2557,-4.2591,-4.2651,-3.8689,-3.8782,-3.8364,-3.7227,-3.5653,-3.594,-3.6083,-3.6083,-3.6083,-3.6083,-3.6069,-3.5923,-3.5604,-3.5154,-3.4849,-3.4806,-3.4965,-3.5256,-3.5488,-3.5633,-3.5778,-3.5604,-3.5189,-3.5174,-3.4878,-3.4395,-3.438,-3.438,-3.4414,-3.4269,-3.4022,-3.3717,-3.3075,-3.199,-3.0466,-3.1847,-3.282,-3.3238,-3.3862,-3.4002,-3.3638,-3.2815,-3.193,-3.1117,-3.0381,-2.9582,-2.8744,-2.855,-2.7887,-2.6647,-2.533,-2.4081,-2.2951,-2.0602,0.0,0.0,0.0,0.0,0.0,0.0,0.0,0.0,0.0,-2.1367,-1.8253,0.0,-2.3156,0.0,-2.5641,-2.7713,-2.8552,-2.9615,0.0,0.0,-3.3007,-3.3999,-3.7891,-3.7876,-3.8208,-3.9999,-4.0972,-4.1677,-4.2255,-4.2707,-4.3176,-4.367,-4.2932,-4.2489,-4.3047,-4.3132,-4.3369,-4.3893,-4.413,-4.4259,-4.4073,-4.4192,-4.4299,-4.4299,-4.4479,-4.4598,-4.4598,-4.4598,-4.453,-4.435,-4.4327,-4.4242,-4.4039,-4.4056,-4.4039,-4.3995,-4.3572,-4.3335,-4.3893,-4.4039,-4.4039,-3.9434,-3.9637,-3.9529,-3.8746,-3.7557,-3.7597,-3.7593,-3.7578,-3.7288,-3.6997,-3.6736,-3.6431,-3.6286,-3.6286,-3.6286,-3.6286,-3.6286,-3.6286,-3.6286,-3.6286,-3.6286,-3.6112,-3.5813,-3.5813,-3.5444,-3.4849,-3.4835,-3.469,-3.4428,-3.438,-3.438,-3.438,-3.438,-3.3703,-3.2382,-3.3354,-3.3925,-3.3891,-3.4225,-3.4128,-3.3634,-3.2864,-3.2059,-3.1058,-3.0058,-2.9214,-2.8517,-2.7921,-2.7315,-2.6602,-2.5307,-2.4425,-2.4044,-2.219,-2.1099,0.0,0.0,0.0,0.0,0.0,0.0,0.0,0.0,0.0,0.0,0.0,-2.622,0.0,-2.9268,0.0,-3.2249,-3.3286,-3.4842,-3.7102,-3.6696,-3.7476,-4.0514,-4.0171,-4.0281,-4.1825,-4.2126,-4.2494,-4.3251,-4.3563,-4.3827,-4.4174,-4.3687,-4.3498,-4.3826,-4.3944,-4.4096,-4.453,-4.4598,-4.4598,-4.4598,-4.4598,-4.4598,-4.4598,-4.4598,-4.4598,-4.4598,-4.4598,-4.4598,-4.4598,-4.4598,-4.4598,-4.4598,-4.4598,-4.4598,-4.4547,-4.4248,-4.413,-4.4496,-4.4598,-4.4598,-3.9929,-3.9914,-3.979,-3.9765,-3.9762,-3.9541,-3.9407,-3.9276,-3.8696,-3.8101,-3.7506,-3.6852,-3.6562,-3.6548,-3.6548,-3.6548,-3.6548,-3.6562,-3.6548,-3.6548,-3.6548,-3.6504,-3.6431,-3.6446,-3.6098,-3.5537,-3.5436,-3.5116,-3.4545,-3.4424,-3.438,-3.438,-3.438,-3.438,-3.438,-3.438,-3.438,-3.438,-3.438,-3.4138,-3.3634,-3.2977,-3.213,-3.1087,-2.9837,-2.8973,-2.8528,-2.743,-2.6811,-2.6677,-2.5615,-2.4948,-2.4844,-2.3909,-2.3249,0.0,-2.2745,0.0,0.0,0.0,0.0,0.0,0.0,0.0,0.0,-2.834,-2.9831,-3.0969,-3.3061,-3.4883,-3.6158,-3.7615,-3.899,-4.0216,-4.0492,-4.0779,-4.143,-4.1529,-4.1884,-4.2803,-4.2903,-4.321,-4.3893,-4.4138,-4.4212,-4.4248,-4.4478,-4.4666,-4.4784,-4.466,-4.4547,-4.4598,-4.4598,-4.4598,-4.4598,-4.4598,-4.4598,-4.4598,-4.4598,-4.4632,-4.4767,-4.4784,-4.4739,-4.4784,-4.4919,-4.4919,-4.4784,-4.4852,-4.4919,-4.5004,-4.497,-4.4869,-4.4649,-4.4598,-4.4598,-4.0633,-4.0788,-4.0983,-4.1149,-4.1243,-4.0882,-4.0423,-3.9929,-3.9784,-3.9392,-3.8797,-3.8144,-3.7839,-3.7854,-3.7839,-3.7839,-3.7854,-3.7839,-3.7839,-3.7839,-3.7854,-3.7593,-3.7143,-3.7114,-3.6765,-3.6112,-3.5639,-3.5334,-3.5203,-3.4661,-3.438,-3.438,-3.438,-3.438,0.0,0.0,0.0,0.0,-3.438,-3.4356,-3.4225,-3.3616,-3.269,-3.1427,-3.0295,0.0,-2.8252,-2.8103,-2.7846,-2.7435,-2.7165,0.0,0.0,0.0,0.0,0.0,0.0,0.0,0.0,0.0,0.0,0.0,-3.0742,-3.051,-2.9843,-3.268,-3.4419,-3.417,-3.6075,-3.7483,-3.7755,-3.9106,-4.0067,-4.0393,-4.0895,-4.1491,-4.2175,-4.2291,-4.2601,-4.3359,-4.3459,-4.3509,-4.3717,-4.3864,-4.4173,-4.469,-4.5043,-4.5459,-4.5878,-4.5204,-4.4621,-4.4598,-4.4716,-4.4632,-4.4598,-4.4649,-4.4733,-4.4598,-4.4598,-4.484,-4.5365,-4.55,-4.5483,-4.55,-4.5974,-4.6126,-4.5618,-4.5957,-4.6278,-4.6363,-4.6375,-4.6007,-4.4886,-4.4615,-4.4598,-4.0773,0.0,-4.1114,-4.1325,0.0,-4.1454,-4.1285,-4.1047,-4.0365,-3.9755,-3.9189,-3.8855,-3.8507,-3.8202,-3.8202,-3.8202,-3.8202,-3.8202,-3.8202,-3.8202,-3.8202,-3.8057,-3.7752,-3.7752,-3.7404,-3.6794,-3.6475,-3.6017,-3.5407,-3.5072,-3.4719,-3.438,-3.438,-3.438,-3.438,-3.438,-3.438,-3.438,-3.438,-3.438,-3.4385,-3.3823,-3.2879,-3.1616,0.0,0.0,0.0,0.0,0.0,0.0,0.0,0.0,0.0,0.0,0.0,-2.7879,-2.8456,-2.9124,-2.9898,-3.0974,-3.2232,-3.3673,-3.4783,-3.4783,-3.3342,-3.5587,-3.6936,-3.6622,-3.788,-3.8891,-3.9255,-3.9951,-4.0691,-4.1342,-4.1756,-4.2224,-4.2886,-4.3052,-4.3184,-4.3499,-4.3615,-4.3744,-4.4198,-4.4308,-4.4667,-4.5299,-4.5661,-4.5919,-4.6096,-4.5925,-4.5669,-4.5698,-4.5669,-4.5715,-4.5715,-4.5698,-4.5652,-4.5698,-4.5698,-4.5838,-4.6177,-4.6244,-4.6244,-4.6278,-4.6566,-4.6633,-4.638,-4.6566,-4.6786,-4.6786,-4.6786,-4.6599,-4.5833,-4.5698,-4.5669,-4.08,-4.0744,-4.093,-4.1142,-4.1339,-4.1577,-4.1856,-4.202,0.0,0.0,0.0,-3.9421,-3.9,-3.8391,-3.8391,-3.8318,-3.8202,-3.8202,-3.8202,-3.8202,-3.8202,-3.8202,-3.8202,-3.8202,-3.7941,-3.7476,-3.736,-3.6751,-3.5755,-3.5508,-3.5145,-3.4617,-3.4472,-3.438,-3.438,-3.438,-3.438,-3.438,-3.438,-3.438,-3.4399,-3.3906,-3.3143,-3.2059,-3.1464,-3.0734,-2.9813,-2.9198,-2.8684,-2.8308,-2.8184,-2.8169,-2.8304,-2.8682,-2.964,-3.1193,-3.2012,-3.2841,-3.3776,-3.4676,-3.5531,-3.6356,-3.7647,-3.7831,-3.6489,-3.7632,-3.8394,-3.8394,-3.9056,-3.973,-4.0343,-4.0674,-4.1226,-4.239,-4.2605,-4.2936,-4.3499,-4.3615,-4.3582,-4.3615,-4.3615,-4.3923,-4.4707,-4.4823,-4.5202,-4.5982,-4.6338,-4.65,-4.6469,-4.6606,-4.6604,-4.6633,-4.6583,-4.6718,-4.6752,-4.6701,-4.6786,-4.6667,-4.6701,-4.6836,-4.6955,-4.6989,-4.6989,-4.7005,-4.7073,-4.7158,-4.7056,-4.7175,-4.7175,-4.7192,-4.7192,-4.7192,-4.7192,-4.7192,-4.7073,-4.1179,-4.0688,-4.093,-4.1043,-4.11,-4.1535,-4.1856,-4.2034,-4.1294,-4.0916,-4.08,-4.022,-3.9639,-3.9059,-3.9059,-3.8754,-3.8217,-3.8202,-3.8202,0.0,-3.8202,-3.8202,-3.8202,-3.8202,-3.8159,-3.8043,-3.7549,-3.7215,-3.6939,-3.5944,-3.5348,-3.5218,-3.469,-3.438,-3.438,-3.438,-3.438,-3.438,-3.438,-3.438,-3.438,-3.4327,-3.3968,-3.3289,-3.2874,-3.2369,-3.1618,-3.1247,-3.1019,-3.0943,-3.0417,-3.0357,-3.0883,-3.0492,-3.0784,-3.2044,-3.2848,-3.3481,-3.4042,-3.5356,-3.6654,-3.7871,-3.8689,-3.8775,-3.8013,-3.8659,-3.9149,-3.9183,-3.9796,-4.0276,-4.0475,-4.1475,-4.2237,-4.2551,-4.3069,-4.3499,-4.3582,-4.3615,-4.3615,-4.3615,-4.3615,-4.3943,-4.4636,-4.4832,-4.5379,-4.6457,-4.6949,-4.7306,-4.7651,-4.7214,-4.6705,-4.6756,-4.6786,-4.6786,-4.6955,-4.6819,-4.6921,-4.6786,-4.6887,-4.7158,-4.7665,-4.775,-4.775,-4.7767,-4.8173,-4.8308,-4.7902,-4.8291,-4.8477,-4.8511,-4.8511,-4.8545,-4.8511,-4.8545,-4.8223,-4.1769,-4.1221,-4.1266,-4.1184,-4.1043,-4.1479,-4.1785,-4.1868,-4.1717,-4.1424,-4.1076,-4.0771,-4.0292,-3.9683,-3.9349,-3.9044,-3.8739,-3.8376,-3.8202,-3.8202,-3.8202,-3.8202,-3.8202,-3.8202,-3.8202,-3.8188,-3.7926,-3.7636,-3.7273,-3.6693,-3.6104,-3.5421,-3.4719,-3.438,-3.438,-3.438,-3.438,-3.438,-3.438,-3.438,-3.438,-3.438,-3.4109,-3.3518,-3.3328,-3.2972,-3.2421,-3.2343,-3.2198,-3.1886,-3.2049,-3.2108,-3.2034,-3.2093,-3.2507,-3.333,-3.4062,-3.4738,-3.5254,-3.6612,-3.7786,-3.8756,-3.9121,-3.9166,-3.8808,-3.91,-3.9464,-3.9846,-4.0227,-4.0713,-4.1442,-4.2137,-4.2655,-4.3035,-4.3416,-4.3598,-4.3615,-4.3615,-4.3615,-4.3648,-4.3976,-4.4473,-4.5202,-4.5632,-4.6245,-4.7305,-4.7585,-4.7847,-4.8274,-4.7836,-4.7524,-4.7804,-4.7882,-4.7912,-4.7939,-4.7986,-4.7986,-4.7986,-4.7986,-4.8122,-4.8477,-4.8494,-4.8494,-4.8511,-4.8798,-4.8849,-4.8528,-4.8748,-4.8968,-4.9018,-4.9018,-4.9018,-4.9018,-4.9018,-4.8748,-4.2416,-4.1826,-4.1671,-4.138,-4.1043,-4.1437,-4.166,-4.1702,-4.198,-4.1802,-4.1366,-4.1323,-4.096,-4.0307,-3.9828,-3.9479,-3.9146,-3.8667,-3.8347,-3.8217,-3.8202,-3.8202,-3.8202,-3.8202,-3.8202,-3.8202,-3.8202,-3.7955,-3.7549,-3.7375,-3.6649,-3.5479,-3.4898,-3.4559,-3.438,-3.438,-3.438,-3.438,-3.438,-3.438,-3.438,-3.438,-3.4182,-3.3765,-3.3754,-3.3573,-3.3188,-3.3218,-3.3051,-3.2687,-3.3168,-3.3289,-3.3006,-3.344,-3.3969,-3.4561,-3.5095,-3.5675,-3.6334,-3.7432,-3.8379,-3.9023,-3.9218,-3.9315,-3.9315,-3.9464,-3.9779,-4.031,-4.0558,-4.1143,-4.222,-4.2655,-4.2969,-4.3532,-4.3615,-4.3615,-4.3615,-4.3615,-4.3615,-4.3664,-4.4125,-4.4738,-4.5632,-4.6278,-4.6924,-4.7703,-4.8001,-4.8033,-4.8147,-4.8147,-4.8308,-4.8549,-4.8707,-4.8685,-4.8877,-4.8858,-4.8872,-4.8956,-4.892,-4.89,-4.8951,-4.8984,-4.9001,-4.8951,-4.8968,-4.8984,-4.9001,-4.9001,-4.9018,-4.9018,-4.9018,-4.9018,-4.9018,-4.9018,-4.9001,-4.3048,-4.2444,-4.1882,-4.138,-4.1029,-4.1283,-4.1507,-4.1717,-4.1995,-4.2078,-4.1961,-4.2005,-4.1628,-4.1062,-4.0931,-4.0278,-3.9291,-3.9146,-3.8783,-3.826,-3.8202,-3.8202,-3.8202,-3.8202,-3.8202,-3.8202,-3.8202,-3.8159,-3.8043,-3.7564,-3.6649,-3.5537,-3.5334,-3.4965,-3.4472,-3.438,-3.438,-3.438,-3.438,-3.438,-3.438,-3.438,-3.437,-3.4327,-3.4495,-3.4581,-3.442,-3.4133,-3.394,-3.3949,-3.352,-3.3584,-3.4218,-3.4352,-3.4683,-3.5332,-3.5437,-3.5755,-3.6353,-3.7054,-3.7751,-3.8351,-3.8969,-3.9272,-3.9332,-3.9912,-4.0326,-4.0498,-4.0961,-4.1674,-4.2406,-4.3069,-4.3466,-4.3549,-4.3615,-4.3615,-4.3615,-4.3615,-4.3615,-4.3615,-4.3747,-4.4257,-4.5533,-4.6013,-4.6576,-4.7835,-4.8001,-4.8001,-4.8033,-4.8033,-4.8099,-4.8276,-4.8405,-4.8515,-4.8578,-4.8707,-4.8801,-4.8832,-4.8925,-4.897,-4.9018,-4.9018,-4.9018,-4.9018,-4.9018,-4.9018,-4.9018,-4.9018,-4.9018,-4.9018,-4.9018,-4.9018,-4.9018,-4.9018,-4.9018,-4.368,-4.3076,-4.2444,-4.1645,-4.0929,-4.1057,-4.1283,-4.1564,-4.1773,-4.1939,-4.2092,-4.2092,-4.1932,-4.1657,-4.1279,-4.0786,-4.0292,-3.9552,-3.9059,-3.8754,-3.8391,-3.8202,-3.8202,-3.8202,-3.8202,-3.8202,-3.8202,-3.8202,-3.8101,-3.7607,-3.6823,-3.5981,-3.5581,-3.5053,-3.4457,-3.438,-3.438,-3.438,-3.438,-3.438,-3.438,-3.438,-3.438,-3.4414,-3.4481,-3.4515,-3.4501,-3.442,-3.442,-3.4504,-3.4416,-3.4547,-3.4894,-3.5021,-3.522,-3.5474,-3.5489,-3.5765,-3.6383,-3.6662,-3.7235,-3.8238,-3.8562,-3.8871,-3.9305,-3.9995,-4.0558,-4.1011,-4.164,-4.2357,-4.3035,-4.3416,-4.3615,-4.3615,-4.3615,-4.3615,-4.3615,-4.3615,-4.3615,-4.3631,-4.4009,-4.4605,-4.5665,-4.6576,-4.7289,-4.7934,-4.8001,-4.8001,-4.8001,-4.8001,-4.8033,-4.8099,-4.8164,-4.8308,-4.8452,-4.8547,-4.8658,-4.8769,-4.8849,-4.8894,-4.897,-4.9001,-4.9018,-4.9018,-4.9018,-4.9018,-4.9018,-4.9018,-4.9018,-4.9018,-4.9018,-4.9018,-4.9018,-4.9018,-4.9018,-4.4158,-4.3652,-4.2921,-4.1868,-4.0759,-4.093,-4.11,-4.1339,-4.1577,-4.1814,-4.1926,-4.2051,-4.2051,-4.1937,-4.1529,-4.1279,-4.0989,-4.0133,-3.9509,-3.9189,-3.8681,-3.8391,-3.8231,-3.8202,-3.8202,-3.8202,-3.8202,-3.8202,-3.8159,-3.7781,-3.7215,-3.6577,-3.5938,-3.5299,-3.4719,-3.453,-3.438,-3.438,-3.438,-3.438,-3.438,-3.438,-3.438,-3.438,-3.438,-3.438,-3.438,-3.453,-3.4631,-3.4698,-3.4931,-3.5115,-3.518,-3.5326,-3.5439,-3.5504,-3.5489,-3.5765,-3.6383,-3.6569,-3.7145,-3.8165,-3.8435,-3.887,-3.9555,-4.0276,-4.0945,-4.1629,-4.2357,-4.3035,-4.3466,-4.3615,-4.3615,-4.3615,-4.3615,-4.3615,-4.3615,-4.3615,-4.3615,-4.3648,-4.3992,-4.4771,-4.5732,-4.6808,-4.7653,-4.7918,-4.8001,-4.8001,-4.8001,-4.8001,-4.8001,-4.8001,-4.8001,-4.8082,-4.8292,-4.8388,-4.85,-4.8595,-4.8644,-4.8753,-4.8877,-4.8956,-4.8987,-4.8987,-4.9018,-4.9018,-4.9018,-4.9018,-4.9018,-4.9018,-4.9018,-4.9018,-4.9018,-4.9018,-4.9018,-4.4397,-4.4172,-4.3076,-4.1868,-4.0716,-4.093,-4.1001,-4.1085,-4.1479,-4.1591,-4.1522,-4.1885,-4.1953,-4.1744,-4.1908,-4.1686,-4.1163,-4.0974,-4.0292,-3.9305,-3.9146,-3.8797,-3.8231,-3.8202,-3.8202,-3.8202,-3.8202,-3.8202,-3.8202,-3.8159,-3.7854,-3.723,-3.6577,-3.5938,-3.5319,-3.4733,-3.4428,-3.4428,-3.438,-3.438,-3.438,-3.438,-3.438,-3.438,-3.438,-3.438,-3.438,-3.4414,-3.4515,-3.4698,-3.4731,-3.485,-3.5162,-3.518,-3.5294,-3.5472,-3.5489,-3.575,-3.6352,-3.686,-3.7488,-3.8181,-3.8689,-3.9499,-4.01,-4.0817,-4.1574,-4.234,-4.3019,-4.3515,-4.3582,-4.3615,-4.3615,-4.3615,-4.3615,-4.3615,-4.3615,-4.3615,-4.3615,-4.3615,-4.3813,-4.4522,-4.5665,-4.6444,-4.7322,-4.7819,-4.8001,-4.8001,-4.8001,-4.8001,-4.8001,-4.8001,-4.8001,-4.8001,-4.8033,-4.8164,-4.8227,-4.8324,-4.8452,-4.8578,-4.869,-4.8801,-4.8894,-4.8956,-4.8956,-4.8987,-4.9018,-4.9018,-4.9018,-4.9018,-4.9018,-4.9018,-4.9018,-4.9018,-4.9018,-4.4186,-4.375,-4.2935,-4.2078,-4.1278,-4.0956,-4.0873,-4.1001,-4.117,-4.1311,-4.1438,-4.1578,-4.1675,-4.1702,-4.18,-4.1823,-4.1715,-4.1294,-4.0626,-3.9784,-3.9392,-3.8841,-3.826,-3.8202,-3.8202,-3.8202,-3.8202,-3.8202,-3.8202,-3.8202,-3.7897,-3.7389,-3.7085,-3.6446,-3.5537,-3.5174,-3.4835,-3.4457,-3.438,-3.438,-3.438,-3.438,-3.438,-3.438,-3.438,-3.438,-3.438,-3.438,-3.4448,-3.4481,-3.4631,-3.4765,-3.4898,-3.5082,-3.5294,-3.5472,-3.5489,-3.5602,-3.5829,-3.6068,-3.6445,-3.7041,-3.7722,-3.8651,-3.9691,-4.0753,-4.1723,-4.244,-4.3168,-4.3582,-4.3615,-4.3615,-4.3615,-4.3615,-4.3615,-4.3615,-4.3615,-4.3615,-4.3615,-4.3747,-4.4373,-4.5268,-4.5781,-4.6825,-4.7669,-4.7934,-4.8001,-4.8001,-4.8001,-4.8001,-4.8001,-4.8001,-4.8001,-4.8001,-4.8001,-4.8033,-4.8082,-4.8163,-4.8292,-4.842,-4.8515,-4.8595,-4.8658,-4.8801,-4.8863,-4.8877,-4.8877,-4.897,-4.897,-4.897,-4.897,-4.9018,-4.9018,-4.9018,-4.9018,-4.3933,-4.3188,-4.2753,-4.2093,-4.132,-4.0884,-4.0759,-4.093,-4.0958,-4.1057,-4.117,-4.1311,-4.1423,-4.1521,-4.1646,-4.1785,-4.191,-4.1572,-4.1062,-4.0408,-3.977,-3.9146,-3.858,-3.8304,-3.8202,-3.8202,-3.8202,-3.8202,-3.8202,-3.8202,-3.7984,-3.7622,-3.7418,-3.6881,-3.6104,-3.5639,-3.516,-3.4762,-3.453,-3.438,-3.438,-3.438,-3.438,-3.438,-3.438,-3.438,-3.438,-3.438,-3.438,-3.4414,-3.4515,-3.4631,-3.4731,-3.5016,-3.5261,-3.5407,-3.5472,-3.5489,-3.5522,-3.5683,-3.6005,-3.6414,-3.7457,-3.8566,-3.9684,-4.0984,-4.2014,-4.2754,-4.3251,-4.3615,-4.3615,-4.3615,-4.3615,-4.3615,-4.3615,-4.3615,-4.3615,-4.3615,-4.3615,-4.3747,-4.4589,-4.5367,-4.5881,-4.6908,-4.7603,-4.7951,-4.8001,-4.8001,-4.8001,-4.8001,-4.8001,-4.8001,-4.8001,-4.8001,-4.8001,-4.8001,-4.8033,-4.8115,-4.8147,-4.8227,-4.8324,-4.8388,-4.8483,-4.8627,-4.8721,-4.8753,-4.8815,-4.8877,-4.8909,-4.894,-4.897,-4.9018,-4.9018,-4.9018,-4.9018,-4.3708,-4.2739,-4.2584,-4.191,-4.0926,-4.0744,-4.0702,-4.0744,-4.0887,-4.0887,-4.083,-4.1185,-4.1198,-4.117,-4.1479,-4.1688,-4.1771,-4.1867,-4.1628,-4.0974,-4.0394,-3.9755,-3.9117,-3.8551,-3.826,-3.8202,-3.8202,-3.8202,-3.8202,-3.8202,-3.8173,-3.8072,-3.7622,-3.7302,-3.7244,-3.6148,-3.5479,-3.5232,-3.4762,-3.4472,-3.438,-3.438,-3.438,-3.438,-3.438,-3.438,-3.438,-3.438,-3.438,-3.438,-3.4414,-3.4481,-3.4698,-3.4997,-3.5195,-3.5213,-3.5359,-3.5472,-3.5537,-3.5973,-3.6211,-3.6599,-3.8122,-3.931,-4.0188,-4.1494,-4.2584,-4.3198,-4.3502,-4.3615,-4.3615,-4.3615,-4.3615,-4.3615,-4.3615,-4.3615,-4.3615,-4.3615,-4.3615,-4.3714,-4.4406,-4.5019,-4.5715,-4.6643,-4.7404,-4.7868,-4.8001,-4.8001,-4.8001,-4.8001,-4.8001,-4.8001,-4.8001,-4.8001,-4.8001,-4.8001,-4.8001,-4.8001,-4.8033,-4.8099,-4.8179,-4.8244,-4.8308,-4.8436,-4.8595,-4.861,-4.8627,-4.8721,-4.8753,-4.8784,-4.8894,-4.894,-4.894,-4.894,-4.8956,-4.3933,-4.3188,-4.2753,-4.2107,-4.1306,-4.0884,-4.0702,-4.0702,-4.0787,-4.0716,-4.0744,-4.0873,-4.0944,-4.1015,-4.1184,-4.1395,-4.1702,-4.1771,-4.1536,-4.1108,-4.0873,-4.0205,-3.9349,-3.8986,-3.8652,-3.8275,-3.8202,-3.8202,-3.8202,-3.8202,-3.8202,-3.8159,-3.8014,-3.7694,-3.7331,-3.6867,-3.633,-3.545,-3.5218,-3.4878,-3.4438,-3.438,-3.438,-3.438,-3.438,-3.438,-3.438,-3.438,-3.438,-3.438,-3.438,-3.4481,-3.4664,-3.4798,-3.4898,-3.5016,-3.518,-3.5294,-3.5311,-3.5587,-3.5993,-3.6533,-3.7481,-3.856,-3.9754,-4.1048,-4.2132,-4.286,-4.3295,-4.3615,-4.3615,-4.3615,-4.3615,-4.3615,-4.3615,-4.3615,-4.3615,-4.3615,-4.3615,-4.3747,-4.4688,-4.5483,-4.5947,-4.6758,-4.7669,-4.7918,-4.8001,-4.8001,-4.8001,-4.8001,-4.8001,-4.8001,-4.8001,-4.8001,-4.8001,-4.8001,-4.8001,-4.8001,-4.8001,-4.8001,-4.8066,-4.8115,-4.8179,-4.8276,-4.8388,-4.8452,-4.85,-4.8532,-4.8564,-4.8595,-4.8642,-4.8704,-4.8815,-4.8815,-4.8815,-4.3919,-4.3146,-4.2739,-4.2064,-4.1278,-4.0842,-4.0702,-4.0702,-4.0702,-4.0702,-4.0702,-4.0702,-4.0773,-4.0887,-4.0958,-4.1184,-4.1451,-4.1535,-4.1486,-4.1302,-4.1163,-4.0626,-3.9857,-3.9378,-3.8855,-3.8304,-3.8202,-3.8202,-3.8202,-3.8202,-3.8202,-3.8202,-3.8202,-3.8028,-3.7622,-3.7375,-3.6751,-3.5872,-3.5494,-3.5087,-3.4545,-3.438,-3.438,-3.438,-3.438,-3.438,-3.438,-3.438,-3.438,-3.438,-3.438,-3.4481,-3.4597,-3.4664,-3.4716,-3.4817,-3.4983,-3.5067,-3.51,-3.5294,-3.5675,-3.6375,-3.7271,-3.8277,-3.948,-4.0721,-4.1788,-4.255,-4.2943,-4.3325,-4.3539,-4.3615,-4.3615,-4.3615,-4.3615,-4.3615,-4.3615,-4.3615,-4.3615,-4.388,-4.487,-4.5599,-4.6079,-4.704,-4.7934,-4.8001,-4.8001,-4.8001,-4.8001,-4.8001,-4.8001,-4.8001,-4.8001,-4.8001,-4.8001,-4.8001,-4.8001,-4.8001,-4.8001,-4.8001,-4.8033,-4.8033,-4.8099,-4.8131,-4.8228,-4.8212,-4.8244,-4.834,-4.8405,-4.8388,-4.842,-4.8547,-4.8642,-4.861,-4.861,-4.3694,-4.264,-4.2584,-4.1868,-4.0814,-4.0716,-4.0702,-4.0702,-4.0702,-4.0702,-4.0702,-4.0702,-4.0702,-4.0744,-4.0873,-4.1015,-4.1043,-4.1283,-4.1437,-4.1486,-4.1319,-4.0966,-4.0626,-3.9668,-3.8855,-3.8289,-3.8202,-3.8202,-3.8202,-3.8202,-3.8202,-3.8202,-3.8202,-3.8202,-3.8043,-3.7607,-3.7085,-3.6402,-3.5813,-3.5183,-3.4559,-3.4414,-3.438,-3.438,-3.438,-3.438,-3.438,-3.438,-3.438,-3.438,-3.438,-3.4414,-3.4448,-3.4597,-3.4664,-3.4698,-3.4802,-3.4902,-3.4935,-3.5248,-3.5677,-3.6417,-3.7607,-3.8767,-3.949,-4.0602,-4.1546,-4.2173,-4.2428,-4.282,-4.3312,-4.3462,-4.3509,-4.3615,-4.3615,-4.3615,-4.3615,-4.3615,-4.3615,-4.3813,-4.4821,-4.5765,-4.5798,-4.704,-4.7703,-4.8001,-4.8001,-4.8001,-4.8001,-4.8001,-4.8001,-4.8001,-4.8001,-4.8001,-4.8001,-4.8001,-4.8001,-4.8001,-4.8001,-4.8001,-4.8001,-4.8001,-4.8001,-4.8033,-4.8033,-4.8033,-4.8066,-4.8179,-4.8212,-4.8212,-4.8292,-4.842,-4.8452,-4.842,-4.842,-4.3694,-4.2657,-4.2584,-4.1854,-4.0786,-4.0702,-4.0702,-4.0702,-4.0702,-4.0702,-4.0702,-4.0702,-4.0702,-4.0702,-4.0773,-4.0845,-4.0958,-4.1057,-4.1241,-4.1451,-4.1378,-4.0922,-4.0354,-3.9596,-3.8855,-3.8289,-3.8202,-3.8202,-3.8202,-3.8202,-3.8202,-3.8202,-3.8202,-3.8202,-3.8144,-3.8014,-3.7651,-3.7041,-3.6388,-3.5735,-3.516,-3.4646,-3.4414,-3.438,-3.438,-3.438,-3.438,-3.438,-3.438,-3.438,-3.438,-3.438,-3.4414,-3.4448,-3.4481,-3.4515,-3.465,-3.4783,-3.499,-3.5511,-3.6227,-3.7018,-3.7861,-3.8687,-3.937,-4.0232,-4.0805,-4.1142,-4.1459,-4.2078,-4.2679,-4.2865,-4.3066,-4.3509,-4.3615,-4.3615,-4.3615,-4.3615,-4.3615,-4.3714,-4.4473,-4.5152,-4.5864,-4.6593,-4.7438,-4.7852,-4.8001,-4.8001,-4.8001,-4.8001,-4.8001,-4.8001,-4.8001,-4.8001,-4.8001,-4.8001,-4.8001,-4.8001,-4.8001,-4.8001,-4.8001,-4.8001,-4.8001,-4.8001,-4.8033,-4.8001,-4.8001,-4.8066,-4.8066,-4.8099,-4.8131,-4.8212,-4.8244,-4.8212,-4.8195,-4.3455,-4.2601,-4.2289,-4.1601,-4.0758,-4.0702,-4.0702,-4.0702,-4.0702,-4.0702,-4.0702,-4.0702,-4.0702,-4.0702,-4.0702,-4.0773,-4.0845,-4.0887,-4.1029,-4.1184,-4.1179,-4.0711,-4.0076,-3.9605,-3.9102,-3.8275,-3.8202,-3.8202,-3.8202,-3.8202,-3.8202,-3.8202,-3.8202,-3.8202,-3.8202,-3.8188,-3.7897,-3.7346,-3.6881,-3.6315,-3.545,-3.5058,-3.4675,-3.4501,-3.438,-3.438,-3.438,-3.438,-3.438,-3.438,-3.438,-3.438,-3.438,-3.438,-3.438,-3.4399,-3.4515,-3.4631,-3.4819,-3.5539,-3.6393,-3.7168,-3.7898,-3.8691,-3.9286,-3.9809,-4.0076,-4.0547,-4.0873,-4.1393,-4.2029,-4.238,-4.2912,-4.3479,-4.3615,-4.3615,-4.3615,-4.3615,-4.3615,-4.3764,-4.4257,-4.497,-4.5698,-4.6444,-4.7173,-4.7769,-4.8001,-4.8001,-4.8001,-4.8001,-4.8001,-4.8001,-4.8001,-4.8001,-4.8001,-4.8001,-4.8001,-4.8001,-4.8001,-4.8001,-4.8001,-4.8001,-4.8001,-4.8001,-4.8001,-4.7984,-4.7918,-4.7918,-4.8001,-4.8033,-4.8001,-4.7984,-4.8033,-4.7965,-4.7982,-4.3048,-4.243,-4.1854,-4.1278,-4.0744,-4.0702,-4.0702,-4.0702,-4.0702,-4.0702,-4.0702,-4.0702,-4.0702,-4.0702,-4.0702,-4.0702,-4.0702,-4.0744,-4.0717,-4.0788,-4.0683,-4.0313,-3.9538,-3.9671,-3.9151,-3.8347,-3.8165,-3.8165,-3.8202,-3.8202,-3.8202,-3.8202,-3.8202,-3.8202,-3.8202,-3.8202,-3.7912,-3.7549,-3.7302,-3.6751,-3.5915,-3.5494,-3.5072,-3.469,-3.4443,-3.4428,-3.438,-3.438,-3.438,-3.438,-3.438,-3.438,-3.438,-3.438,-3.438,-3.438,-3.4428,-3.4477,-3.47,-3.5561,-3.6335,-3.7118,-3.7972,-3.8671,-3.9224,-3.9466,-3.9753,-4.0216,-4.0389,-4.0703,-4.136,-4.2045,-4.2772,-4.3312,-4.3479,-4.3615,-4.3615,-4.3615,-4.3615,-4.3631,-4.4224,-4.4854,-4.5682,-4.6378,-4.7073,-4.7835,-4.8001,-4.8001,-4.8001,-4.8001,-4.8001,-4.8001,-4.8001,-4.8001,-4.8001,-4.8001,-4.8001,-4.8001,-4.8001,-4.8001,-4.8001,-4.8001,-4.8001,-4.8001,-4.8001,-4.7868,-4.7669,-4.7752,-4.7785,-4.7653,-4.7404,-4.7653,-4.7934,-4.7799,-4.7716,-4.2402,-4.1797,-4.1671,-4.1264,-4.0758,-4.0702,-4.0702,-4.0702,-4.0702,-4.0702,-4.0702,-4.0702,-4.0702,-4.0702,-4.0702,-4.0702,-4.0702,-4.0674,-4.0505,-4.0041,-4.0207,-3.9564,-3.8862,-3.8964,-3.8789,-3.822,-3.8043,-3.8028,-3.8127,-3.8165,-3.8202,-3.8202,-3.8202,-3.8202,-3.8202,-3.8202,-3.8159,-3.7926,-3.7578,-3.7215,-3.6693,-3.5872,-3.5334,-3.5058,-3.4646,-3.4428,-3.438,-3.438,-3.438,-3.438,-3.438,-3.438,-3.438,-3.438,-3.438,-3.4428,-3.4457,-3.4666,-3.5331,-3.5985,-3.6799,-3.7514,-3.8335,-3.9013,-3.9118,-3.9301,-3.9445,-3.9661,-3.9646,-4.0056,-4.0737,-4.1884,-4.2475,-4.2803,-4.3174,-4.3509,-4.3568,-4.3615,-4.3615,-4.3648,-4.3764,-4.434,-4.5549,-4.5864,-4.6643,-4.7669,-4.8001,-4.8001,-4.7984,-4.7968,-4.7951,-4.7918,-4.7785,-4.7785,-4.8001,-4.8001,-4.8001,-4.8001,-4.8001,-4.8001,-4.8001,-4.7868,-4.7819,-4.7885,-4.8001,-4.7785,-4.7421,-4.7123,-4.7073,-4.6924,-4.6841,-4.7073,-4.7271,-4.7285,-4.7483,-4.1938,-4.1601,-4.132,-4.0997,-4.073,-4.0702,-4.0702,-4.0702,-4.0702,-4.0702,-4.0702,-4.0702,-4.0702,-4.0702,-4.0702,-4.0702,-4.0702,-4.0702,-4.0378,-3.9914,-3.9715,-3.9145,-3.8337,-3.8122,-3.8011,-3.7891,-3.7815,-3.7839,-3.7915,-3.8028,-3.8066,-3.8066,-3.8142,-3.8202,-3.8202,-3.8202,-3.8202,-3.8159,-3.7912,-3.7622,-3.7172,-3.6359,-3.5386,-3.5024,-3.4603,-3.438,-3.438,-3.438,-3.438,-3.438,-3.4395,-3.4395,-3.4414,-3.438,-3.438,-3.4428,-3.4733,-3.4971,-3.5583,-3.6447,-3.7235,-3.7665,-3.8465,-3.8891,-3.9068,-3.9228,-3.9301,-3.9388,-3.9496,-3.9717,-4.0409,-4.0974,-4.1656,-4.2078,-4.2428,-4.2617,-4.271,-4.3174,-4.3615,-4.3615,-4.3631,-4.4208,-4.487,-4.5433,-4.6162,-4.7173,-4.7868,-4.7901,-4.7802,-4.7785,-4.7785,-4.7719,-4.7537,-4.757,-4.7901,-4.8001,-4.8001,-4.8001,-4.8001,-4.8001,-4.8001,-4.7785,-4.7554,-4.7653,-4.7719,-4.7404,-4.7057,-4.6742,-4.6378,-4.6295,-4.6278,-4.6427,-4.6608,-4.6772,-4.7005,-4.1474,-4.1432,-4.0912,-4.0702,-4.0702,-4.0702,-4.0702,-4.0702,-4.0702,-4.0702,-4.0702,-4.0702,-4.0702,-4.0702,-4.0702,-4.0702,-4.0702,-4.0645,-4.0336,-3.9591,-3.9321,-3.8724,-3.8003,-3.7561,-3.7412,-3.7495,-3.7534,-3.7572,-3.7663,-3.7777,-3.7891,-3.7929,-3.8066,-3.8165,-3.8202,-3.8202,-3.8202,-3.8188,-3.8144,-3.797,-3.7491,-3.6794,-3.5909,-3.4936,-3.4893,-3.4762,-3.4748,-3.4762,-3.4791,-3.4704,-3.4704,-3.4704,-3.469,-3.4574,-3.4646,-3.4719,-3.527,-3.5654,-3.6038,-3.6843,-3.7528,-3.7682,-3.8311,-3.8767,-3.8958,-3.9031,-3.9104,-3.9213,-3.9322,-3.9559,-4.0235,-4.06,-4.0873,-4.1243,-4.1426,-4.1492,-4.1722,-4.2679,-4.3235,-4.3402,-4.3542,-4.4059,-4.4622,-4.5202,-4.5914,-4.6609,-4.7272,-4.7719,-4.7587,-4.7404,-4.7289,-4.7239,-4.7007,-4.709,-4.7421,-4.7587,-4.7636,-4.7852,-4.7885,-4.7802,-4.7785,-4.752,-4.7272,-4.7338,-4.7289,-4.6874,-4.6394,-4.5914,-4.5665,-4.5632,-4.5533,-4.545,-4.5748,-4.6243,-4.6475,-4.0842,-4.0842,-4.0744,-4.0702,-4.0702,-4.0702,-4.0702,-4.0702,-4.0659,-4.0702,-4.0702,-4.0702,-4.0702,-4.0702,-4.0702,-4.0702,-4.0702,-4.0589,-4.0069,-3.9226,-3.8901,-3.8352,-3.7462,-3.7222,-3.7095,-3.7134,-3.7264,-3.7419,-3.7548,-3.761,-3.7739,-3.7853,-3.7929,-3.8028,-3.8165,-3.8202,-3.8202,-3.8202,-3.8202,-3.8101,-3.7868,-3.7317,-3.6489,-3.5401,-3.5575,-3.5575,-3.5401,-3.5691,-3.5996,-3.5996,-3.5996,-3.5967,-3.5851,-3.5503,-3.5517,-3.5778,-3.6025,-3.633,-3.6816,-3.715,-3.7629,-3.7986,-3.8368,-3.8538,-3.8627,-3.876,-3.8885,-3.8943,-3.9104,-3.9286,-3.9553,-4.0041,-4.0443,-4.0786,-4.1042,-4.1327,-4.1525,-4.2045,-4.2617,-4.2617,-4.3131,-4.3764,-4.4324,-4.4821,-4.5351,-4.5864,-4.6361,-4.6858,-4.6974,-4.6692,-4.6394,-4.6378,-4.6378,-4.6593,-4.6891,-4.7007,-4.7139,-4.7504,-4.7537,-4.7305,-4.7239,-4.7073,-4.6957,-4.6709,-4.6378,-4.5914,-4.545,-4.5086,-4.492,-4.4887,-4.4671,-4.444,-4.4953,-4.5514,-4.5661,-4.0702,-4.0702,-4.0702,-4.0372,-4.0085,-4.0516,-4.0372,-4.0041,-4.0473,-4.0702,-4.0702,-4.0702,-4.0702,-4.0702,-4.0702,-4.0702,-4.0631,-4.0308,-3.9704,-3.9,-3.8536,-3.7934,-3.7063,-3.6978,-3.6978,-3.7017,-3.7095,-3.7187,-3.7303,-3.7419,-3.7534,-3.7739,-3.7853,-3.8005,-3.8179,-3.8202,-3.8202,-3.8202,-3.8202,-3.8202,-3.8159,-3.7607,-3.678,-3.6257,-3.6127,-3.6127,-3.6011,-3.6069,-3.6286,-3.6272,-3.6286,-3.6504,-3.6606,-3.6577,-3.633,-3.6402,-3.6649,-3.6939,-3.7331,-3.7549,-3.7941,-3.813,-3.8292,-3.8404,-3.8478,-3.8575,-3.8686,-3.8797,-3.8855,-3.9017,-3.925,-3.9631,-3.9809,-3.995,-4.0285,-4.0443,-4.06,-4.1142,-4.1475,-4.1835,-4.2774,-4.3473,-4.3959,-4.4406,-4.4804,-4.5168,-4.5516,-4.5881,-4.6262,-4.5897,-4.5483,-4.5698,-4.5765,-4.5947,-4.6179,-4.6295,-4.6527,-4.6924,-4.7057,-4.6825,-4.6477,-4.6212,-4.5914,-4.5616,-4.5251,-4.5019,-4.4837,-4.4572,-4.4357,-4.4175,-4.4092,-4.4108,-4.4406,-4.4735,-4.4931,-4.0286,-4.0099,-4.0112,-3.9648,-3.9135,-3.9736,-3.9634,-3.9179,-3.9692,-4.0025,-4.0112,-4.0069,-4.0025,-4.0069,-4.0055,-4.01,-4.0177,-3.9647,-3.9159,-3.8677,-3.8187,-3.7597,-3.7133,-3.6978,-3.6978,-3.6978,-3.7017,-3.6978,-3.7056,-3.7187,-3.7341,-3.7495,-3.7701,-3.7891,-3.8028,-3.8104,-3.8127,-3.8127,-3.8202,-3.8202,-3.8072,-3.7738,-3.7186,-3.6635,-3.662,-3.6693,-3.6548,-3.6751,-3.6823,-3.6823,-3.6823,-3.6968,-3.7375,-3.7476,-3.723,-3.6881,-3.7215,-3.7418,-3.7607,-3.7854,-3.8144,-3.8202,-3.8202,-3.8277,-3.8366,-3.8427,-3.8501,-3.8686,-3.876,-3.8833,-3.898,-3.909,-3.9213,-3.9337,-3.9445,-3.9481,-3.9737,-4.0165,-4.0703,-4.136,-4.2443,-4.3025,-4.3342,-4.3896,-4.4291,-4.4373,-4.4705,-4.5102,-4.5351,-4.4903,-4.4671,-4.5003,-4.5185,-4.5301,-4.5433,-4.5516,-4.5814,-4.6212,-4.6278,-4.6129,-4.5665,-4.5235,-4.497,-4.4804,-4.4572,-4.4373,-4.4224,-4.4125,-4.3962,-4.3813,-4.3681,-4.3731,-4.4059,-4.4208,-4.4324,-3.8868,-3.816,-3.8173,-3.8082,-3.7978,-3.8173,-3.8128,-3.8037,-3.8219,-3.8128,-3.8387,-3.8264,-3.831,-3.8342,-3.8257,-3.8381,-3.8559,-3.8507,-3.8366,-3.812,-3.7892,-3.7512,-3.7063,-3.6993,-3.6978,-3.6978,-3.6978,-3.6978,-3.6978,-3.7031,-3.7148,-3.7341,-3.7419,-3.7495,-3.7763,-3.7929,-3.7929,-3.7967,-3.8104,-3.8202,-3.8188,-3.8086,-3.7709,-3.7476,-3.7549,-3.7622,-3.7302,-3.752,-3.7767,-3.7839,-3.7897,-3.7984,-3.8101,-3.8101,-3.8086,-3.8014,-3.8057,-3.8086,-3.8057,-3.813,-3.8202,-3.8202,-3.8202,-3.8202,-3.824,-3.8277,-3.8352,-3.8516,-3.8553,-3.8612,-3.8797,-3.898,-3.909,-3.9177,-3.9265,-3.9352,-3.9517,-3.9702,-4.0181,-4.0547,-4.1492,-4.2061,-4.2524,-4.3148,-4.3714,-4.3747,-4.388,-4.4263,-4.4475,-4.4114,-4.3962,-4.434,-4.4506,-4.4622,-4.4721,-4.4804,-4.5003,-4.5433,-4.54,-4.5334,-4.497,-4.4539,-4.4357,-4.4158,-4.3992,-4.3896,-4.3863,-4.378,-4.3631,-4.3615,-4.3615,-4.3615,-4.3648,-4.3747,-4.388,-3.7645,-3.7808,-3.7808,-3.7487,-3.7057,-3.7533,-3.7441,-3.715,-3.7579,-3.7808,-3.7808,-3.7808,-3.7808,-3.7612,-3.7527,-3.7736,-3.8047,-3.7578,-3.7621,-3.7637,-3.7475,-3.722,-3.7049,-3.6978,-3.6978,-3.694,-3.6978,-3.6978,-3.6978,-3.7017,-3.7095,-3.7264,-3.7303,-3.7419,-3.7572,-3.7815,-3.7891,-3.7967,-3.8066,-3.8202,-3.8202,-3.8188,-3.8072,-3.7839,-3.8072,-3.7999,-3.7955,-3.8014,-3.8202,-3.8202,-3.8202,-3.8202,-3.8202,-3.8202,-3.8188,-3.8188,-3.8188,-3.8188,-3.8188,-3.8202,-3.8202,-3.8202,-3.8202,-3.8202,-3.8202,-3.8202,-3.824,-3.8329,-3.8329,-3.8427,-3.8575,-3.8686,-3.8885,-3.9046,-3.9156,-3.9265,-3.9388,-3.9589,-3.9844,-4.0146,-4.0478,-4.1042,-4.1672,-4.2333,-4.2743,-4.2696,-4.2901,-4.3299,-4.3615,-4.3649,-4.3594,-4.3731,-4.383,-4.3863,-4.3962,-4.4092,-4.4158,-4.4393,-4.4393,-4.434,-4.4224,-4.3943,-4.3863,-4.3813,-4.3764,-4.3681,-4.3615,-4.3615,-4.3615,-4.3615,-4.3615,-4.3615,-4.3615,-4.3631,-4.3731,-3.6367,-3.7023,-3.707,-3.659,-3.5988,-3.6743,-3.6602,-3.6083,-3.6637,-3.7023,-3.7019,-3.6823,-3.6729,-3.6596,-3.6173,-3.6224,-3.6953,-3.6258,-3.6428,-3.6619,-3.6584,-3.6284,-3.6189,-3.6348,-3.6612,-3.6705,-3.69,-3.6978,-3.6978,-3.7017,-3.7056,-3.7226,-3.7187,-3.7264,-3.7419,-3.761,-3.7739,-3.7929,-3.8028,-3.8127,-3.8202,-3.8202,-3.8202,-3.8188,-3.8202,-3.8202,-3.8202,-3.8202,-3.8202,-3.8202,-3.8202,-3.8202,-3.8202,-3.8202,-3.8202,-3.8202,-3.8202,-3.8202,-3.8202,-3.8202,-3.8202,-3.8202,-3.8202,-3.8202,-3.8202,-3.8202,-3.8202,-3.824,-3.824,-3.8277,-3.8404,-3.8464,-3.8664,-3.8848,-3.8995,-3.9156,-3.9301,-3.9394,-3.9502,-3.9753,-3.995,-4.0056,-4.0718,-4.1475,-4.177,-4.1689,-4.1917,-4.2317,-4.2679,-4.3021,-4.3281,-4.3402,-4.3525,-4.3572,-4.3635,-4.3664,-4.3615,-4.3615,-4.3615,-4.3631,-4.3731,-4.3731,-4.3698,-4.3648,-4.3615,-4.3615,-4.3615,-4.3615,-4.3615,-4.3615,-4.3615,-4.3615,-4.3615,-4.3615,-4.3615,-3.4908,-3.5005,-3.5042,-3.5017,-3.4945,-3.4957,-3.5005,-3.4921,-3.4981,-3.5101,-3.5064,-3.4593,-3.432,-3.3886,-3.4017,-3.4094,-3.4274,-3.406,-3.4499,-3.4667,-3.4526,-3.4761,-3.5061,-3.5521,-3.591,-3.603,-3.6573,-3.6978,-3.6978,-3.6978,-3.7017,-3.7017,-3.7056,-3.7017,-3.7134,-3.7341,-3.7625,-3.7777,-3.7891,-3.8028,-3.8089,-3.8165,-3.8202,-3.8202,-3.8202,-3.8202,-3.8202,-3.8202,-3.8202,-3.8202,-3.8202,-3.8202,-3.8202,-3.8202,-3.8202,-3.8202,-3.8202,-3.8202,-3.8202,-3.8202,-3.8202,-3.8202,-3.8202,-3.8202,-3.8202,-3.8202,-3.8202,-3.8202,-3.8202,-3.8202,-3.8277,-3.8352,-3.8516,-3.8627,-3.8811,-3.8907,-3.9031,-3.909,-3.9199,-3.9373,-3.9517,-3.9646,-3.9824,-4.0581,-4.094,-4.0857,-4.126,-4.1672,-4.2094,-4.2443,-4.2865,-4.3096,-4.3342,-4.3449,-4.3539,-4.3492,-4.3402,-4.3509,-4.3615,-4.3615,-4.3631,-4.3615,-4.3615,-4.3615,-4.3615,-4.3615,-4.3615,-4.3615,-4.3615,-4.3615,-4.3615,-4.3615,-4.3615,-4.3615,-4.3615,-3.3873,-3.3885,-3.3885,-3.4066,-3.4282,-3.4294,-3.4162,-3.3909,-3.3873,-3.3885,-3.3885,-3.3657,-3.3477,-3.3236,-3.2945,-3.3182,-3.3677,-3.3401,-3.3709,-3.4105,-3.4306,-3.4306,-3.465,-3.5033,-3.5749,-3.583,-3.648,-3.6978,-3.6978,-3.6978,-3.6978,-3.6978,-3.6978,-3.6978,-3.7056,-3.7187,-3.7433,-3.7625,-3.7739,-3.7815,-3.7967,-3.8028,-3.8066,-3.8202,-3.8202,-3.8202,-3.8202,-3.8202,-3.8202,-3.8202,-3.8202,-3.8202,-3.8202,-3.8202,-3.8202,-3.8202,-3.8202,-3.8202,-3.8202,-3.8202,-3.8202,-3.8202,-3.8202,-3.8202,-3.8202,-3.8202,-3.8202,-3.8202,-3.8202,-3.8202,-3.824,-3.8277,-3.8366,-3.8478,-3.859,-3.8723,-3.8833,-3.8907,-3.9053,-3.9213,-3.9265,-3.9337,-3.9466,-3.9681,-3.995,-4.0111,-4.0581,-4.1042,-4.1426,-4.1787,-4.2173,-4.2475,-4.2648,-4.2851,-4.2912,-4.3005,-4.3113,-4.3312,-4.3479,-4.3479,-4.3432,-4.3615,-4.3615,-4.3615,-4.3615,-4.3615,-4.3615,-4.3615,-4.3615,-4.3615,-4.3615,-4.3615,-4.3615,-4.3615,-4.3615,-3.3284,-3.3284,-3.3284,-3.3489,-3.3801,-3.3766,-3.3621,-3.3332,-3.332,-3.3176,-3.3056,-3.3056,-3.2935,-3.2731,-3.25,-3.2507,-3.2882,-3.2798,-3.3013,-3.3237,-3.3352,-3.3522,-3.3859,-3.4236,-3.4664,-3.5156,-3.6084,-3.6573,-3.6533,-3.6822,-3.694,-3.6978,-3.6978,-3.6978,-3.7017,-3.7148,-3.7317,-3.7457,-3.7534,-3.761,-3.7777,-3.7815,-3.7839,-3.8014,-3.8066,-3.8104,-3.8104,-3.8142,-3.8202,-3.8202,-3.8202,-3.8202,-3.8202,-3.8202,-3.8202,-3.8202,-3.8202,-3.8202,-3.8202,-3.8202,-3.8202,-3.8202,-3.8202,-3.8202,-3.8202,-3.8202,-3.8202,-3.8202,-3.8202,-3.8202,-3.8217,-3.824,-3.824,-3.8366,-3.8366,-3.8464,-3.8686,-3.8797,-3.8958,-3.9104,-3.9156,-3.9265,-3.9337,-3.9517,-3.9574,-3.9717,-3.9915,-4.0389,-4.0839,-4.1127,-4.1393,-4.1624,-4.1787,-4.1997,-4.219,-4.2253,-4.2349,-4.2506,-4.2741,-4.3096,-4.3204,-4.3402,-4.3585,-4.3615,-4.3615,-4.3615,-4.3615,-4.3615,-4.3615,-4.3615,-4.3615,-4.3615,-4.3615,-4.3615,-4.3615,-3.3236,-3.3284,-3.3236,-3.3248,-3.3248,-3.3296,-3.326,-3.3116,-3.314,-3.2911,-3.2527,-3.2515,-3.2307,-3.1958,-3.1886,-3.2007,-3.2027,-3.193,-3.2001,-3.212,-3.2283,-3.1989,-3.2283,-3.2864,-3.3619,-3.3619,-3.4692,-3.5696,-3.5736,-3.6401,-3.6783,-3.69,-3.69,-3.6978,-3.6978,-3.6978,-3.7095,-3.7264,-3.7303,-3.7419,-3.7534,-3.7625,-3.7649,-3.7725,-3.7891,-3.7967,-3.8005,-3.8142,-3.8202,-3.8202,-3.8202,-3.8202,-3.8202,-3.8202,-3.8202,-3.8202,-3.8202,-3.8202,-3.8202,-3.8202,-3.8202,-3.8202,-3.8202,-3.8202,-3.8202,-3.8202,-3.8202,-3.8202,-3.8202,-3.8231,-3.8231,-3.8217,-3.8254,-3.8356,-3.8385,-3.8277,-3.8501,-3.8575,-3.8723,-3.8885,-3.9141,-3.9373,-3.9388,-3.9424,-3.9424,-3.946,-3.9424,-3.9717,-4.025,-4.0443,-4.0634,-4.0737,-4.0907,-4.1209,-4.1393,-4.1492,-4.1624,-4.1787,-4.2142,-4.2663,-4.3035,-4.3295,-4.3479,-4.3568,-4.3615,-4.3615,-4.3615,-4.3615,-4.3615,-4.3615,-4.3615,-4.3615,-4.3615,-4.3615,-4.3615,-3.2259,-3.2259,-3.2259,-3.2259,-3.2262,-3.2623,-3.2575,-3.2295,-3.2202,-3.2151,-3.2018,-3.1937,-3.1922,-3.1741,-3.1705,-3.1705,-3.1705,-3.1705,-3.1705,-3.1705,-3.1705,-3.1705,-3.1957,-3.2444,-3.2907,-3.328,-3.4236,-3.4774,-3.4761,-3.5696,-3.6084,-3.6203,-3.6744,-3.6978,-3.6978,-3.6993,-3.707,-3.7109,-3.7095,-3.7187,-3.738,-3.7433,-3.7471,-3.7572,-3.7792,-3.7868,-3.7891,-3.8066,-3.8165,-3.8202,-3.8202,-3.8202,-3.8202,-3.8202,-3.8202,-3.8202,-3.8202,-3.8202,-3.8202,-3.8202,-3.8202,-3.8202,-3.8202,-3.8202,-3.8202,-3.8202,-3.8202,-3.8202,-3.8202,-3.8362,-3.8754,-3.8376,-3.8347,-3.8696,-3.8681,-3.8318,-3.8315,-3.8352,-3.8427,-3.8612,-3.8833,-3.9192,-3.9301,-3.9337,-3.9337,-3.9388,-3.9388,-3.9388,-3.9788,-3.9753,-3.9859,-3.9859,-3.9985,-4.0355,-4.0615,-4.0737,-4.1008,-4.126,-4.1852,-4.2569,-4.2912,-4.3143,-4.3432,-4.3615,-4.3615,-4.3615,-4.3615,-4.3615,-4.3615,-4.3615,-4.3615,-4.3615,-4.3615,-4.3615,-4.3615,-3.1705,-3.1705,-3.1705,-3.1705,-3.1765,-3.2058,-3.203,-3.1741,-3.1705,-3.1705,-3.1717,-3.1717,-3.1717,-3.1717,-3.1705,-3.1705,-3.1705,-3.1705,-3.1705,-3.1705,-3.1705,-3.1705,-3.1913,-3.2239,-3.237,-3.2778,-3.3352,-3.3846,-3.3888,-3.4774,-3.5372,-3.591,-3.6533,-3.69,-3.6978,-3.6993,-3.6993,-3.7017,-3.7017,-3.7056,-3.7187,-3.7226,-3.7264,-3.738,-3.7534,-3.7701,-3.7815,-3.7967,-3.8142,-3.8165,-3.8202,-3.8202,-3.8202,-3.8202,-3.8202,-3.8202,-3.8202,-3.8202,-3.8202,-3.8202,-3.8202,-3.8202,-3.8202,-3.8202,-3.8202,-3.8202,-3.8202,-3.8202,-3.8202,-3.8594,-3.8928,-3.8507,-3.8492,-3.8826,-3.8696,-3.8333,-3.824,-3.824,-3.8352,-3.8501,-3.8686,-3.8958,-3.9228,-3.9265,-3.925,-3.9337,-3.9388,-3.9388,-3.9388,-3.9388,-3.9388,-3.9424,-3.946,-3.9824,-4.0021,-4.0041,-4.0339,-4.0703,-4.1426,-4.219,-4.2569,-4.2803,-4.3204,-4.3615,-4.3615,-4.3615,-4.3615,-4.3615,-4.3615,-4.3615,-4.3615,-4.3615,-4.3615,-4.3615,-4.3615,-3.1705,-3.1705,-3.1705,-3.1705,-3.1717,-3.1765,-3.1741,-3.1705,-3.1705,-3.1705,-3.1705,-3.1705,-3.1705,-3.1705,-3.1705,-3.1705,-3.1705,-3.1705,-3.1705,-3.1705,-3.1705,-3.1705,-3.1705,-3.1837,-3.1957,-3.212,-3.2488,-3.298,-3.3066,-3.3859,-3.4692,-3.5494,-3.6096,-3.648,-3.6652,-3.673,-3.6822,-3.69,-3.6978,-3.7017,-3.7056,-3.7017,-3.7056,-3.7187,-3.7303,-3.7457,-3.761,-3.7777,-3.7953,-3.8066,-3.8165,-3.8165,-3.8202,-3.8202,-3.8202,-3.8202,-3.8202,-3.8202,-3.8202,-3.8202,-3.8202,-3.8202,-3.8202,-3.8202,-3.8202,-3.8202,-3.8202,-3.8202,-3.8231,-3.8652,-3.8971,-3.871,-3.8492,-3.8565,-3.8536,-3.8362,-3.8269,-3.8277,-3.8404,-3.8516,-3.8649,-3.8885,-3.9104,-3.9177,-3.9177,-3.9337,-3.9388,-3.9388,-3.9388,-3.9388,-3.9388,-3.9388,-3.9424,-3.9424,-3.9517,-3.9646,-3.9753,-4.0111,-4.0839,-4.1558,-4.1981,-4.2538,-4.3113,-4.3479,-4.3568,-4.3615,-4.3615,-4.3615,-4.3615,-4.3615,-4.3615,-4.3615,-4.3615,-4.3615,-4.3615,-3.1705,-3.1705,-3.1705,-3.1705,-3.1705,-3.1705,-3.1705,-3.1705,-3.1705,-3.1705,-3.1705,-3.1705,-3.1705,-3.1705,-3.1705,-3.1705,-3.1705,-3.1705,-3.1705,-3.1705,-3.1705,-3.1705,-3.1705,-3.1705,-3.1705,-3.1793,-3.1957,-3.2196,-3.2326,-3.298,-3.3859,-3.465,-3.5142,-3.5561,-3.5896,-3.6084,-3.6494,-3.6822,-3.69,-3.6978,-3.6978,-3.6978,-3.6978,-3.7056,-3.7187,-3.7341,-3.7419,-3.7586,-3.7739,-3.7801,-3.7929,-3.8005,-3.8005,-3.8104,-3.8202,-3.8202,-3.8202,-3.8202,-3.8202,-3.8202,-3.8202,-3.8202,-3.8202,-3.8202,-3.8202,-3.8202,-3.8202,-3.8202,-3.8231,-3.858,-3.8841,-3.8725,-3.8681,-3.8754,-3.8609,-3.8304,-3.824,-3.824,-3.8366,-3.8389,-3.8501,-3.8686,-3.8907,-3.9031,-3.9068,-3.9265,-3.9388,-3.9388,-3.9388,-3.9388,-3.9388,-3.9388,-3.9388,-3.9388,-3.9388,-3.9481,-3.946,-3.9589,-4.0374,-4.1093,-4.1558,-4.219,-4.2943,-4.3372,-4.3539,-4.3615,-4.3615,-4.3615,-4.3615,-4.3615,-4.3615,-4.3615,-4.3615,-4.3615,-4.3615,-3.1199,-3.138,-3.1404,-3.1512,-3.1705,-3.1705,-3.1705,-3.1705,-3.1705,-3.1705,-3.1705,-3.1705,-3.1705,-3.1705,-3.1705,-3.1705,-3.1705,-3.1705,-3.1705,-3.1705,-3.1705,-3.1705,-3.1705,-3.1705,-3.1705,-3.1705,-3.1705,-3.1837,-3.1913,-3.2531,-3.3407,-3.3775,-3.4014,-3.4555,-3.5074,-3.5534,-3.6004,-3.6401,-3.673,-3.694,-3.6978,-3.6978,-3.6978,-3.7017,-3.7134,-3.7226,-3.7303,-3.7471,-3.751,-3.7625,-3.7792,-3.7906,-3.7929,-3.8104,-3.8202,-3.8202,-3.8202,-3.8202,-3.8202,-3.8202,-3.8202,-3.8202,-3.8202,-3.8202,-3.8202,-3.8202,-3.8202,-3.8202,-3.8275,-3.8391,-3.8565,-3.8725,-3.8913,-3.9102,-3.8681,-3.8246,-3.8202,-3.8202,-3.824,-3.8225,-3.8352,-3.8538,-3.8701,-3.8811,-3.8922,-3.9068,-3.9192,-3.9228,-3.9301,-3.9352,-3.9388,-3.9388,-3.9388,-3.9388,-3.9388,-3.9388,-3.9388,-3.9553,-4.0146,-4.0771,-4.1227,-4.1917,-4.2772,-4.3235,-4.3585,-4.3539,-4.3372,-4.3568,-4.3615,-4.3568,-4.3568,-4.3615,-4.3615,-4.3615,-4.3615,-3.0386,-3.0862,-3.0862,-3.1103,-3.1536,-3.1512,-3.1548,-3.1645,-3.1597,-3.1657,-3.1693,-3.1705,-3.1705,-3.1705,-3.1705,-3.1705,-3.1705,-3.1705,-3.1705,-3.1705,-3.1705,-3.1705,-3.1705,-3.1705,-3.1705,-3.1705,-3.1705,-3.1705,-3.1925,-3.2339,-3.2704,-3.2938,-3.3522,-3.3943,-3.4236,-3.4733,-3.5156,-3.5575,-3.611,-3.648,-3.69,-3.6978,-3.6978,-3.6978,-3.7017,-3.7095,-3.7226,-3.7303,-3.7341,-3.7548,-3.7739,-3.7853,-3.8005,-3.8104,-3.8165,-3.8202,-3.8202,-3.8202,-3.8202,-3.8202,-3.8202,-3.8202,-3.8202,-3.8202,-3.8202,-3.8202,-3.8202,-3.8202,-3.826,-3.8565,-3.8783,-3.8609,-3.8638,-3.8812,-3.8652,-3.8333,-3.8202,-3.8202,-3.8202,-3.8202,-3.824,-3.8441,-3.8553,-3.8701,-3.8848,-3.887,-3.8995,-3.9104,-3.9228,-3.9316,-3.9352,-3.9388,-3.9388,-3.9388,-3.9388,-3.9388,-3.9388,-3.9661,-4.0056,-4.0409,-4.0805,-4.1656,-4.2632,-4.2772,-4.2834,-4.3066,-4.3096,-4.3204,-4.3281,-4.3372,-4.3419,-4.3568,-4.3615,-4.3615,-4.3615,-3.0158,-3.0278,-3.0278,-3.0362,-3.047,-3.047,-3.0754,-3.106,-3.1103,-3.132,-3.1657,-3.1693,-3.1705,-3.1705,-3.1705,-3.1705,-3.1705,-3.1705,-3.1705,-3.1705,-3.1705,-3.1705,-3.1705,-3.1705,-3.1705,-3.1705,-3.1705,-3.1705,-3.1793,-3.1957,-3.2045,-3.2077,-3.25,-3.2778,-3.331,-3.3775,-3.4152,-3.465,-3.5061,-3.5936,-3.6783,-3.694,-3.6978,-3.6978,-3.7017,-3.7017,-3.7095,-3.7095,-3.7095,-3.7187,-3.7495,-3.7801,-3.8104,-3.8165,-3.8202,-3.8202,-3.8202,-3.8202,-3.8202,-3.8202,-3.8202,-3.8202,-3.8202,-3.8202,-3.8202,-3.8202,-3.8202,-3.8202,-3.8333,-3.8681,-3.8826,-3.8536,-3.8347,-3.8507,-3.8638,-3.842,-3.8202,-3.8202,-3.8202,-3.8202,-3.8202,-3.8329,-3.8441,-3.8553,-3.8701,-3.8833,-3.9017,-3.9141,-3.9228,-3.9301,-3.9301,-3.9337,-3.9388,-3.9388,-3.9388,-3.9388,-3.9388,-3.9388,-3.9661,-4.0021,-4.0409,-4.116,-4.1917,-4.1884,-4.1933,-4.2269,-4.2522,-4.2585,-4.2726,-4.2959,-4.3204,-4.3372,-4.3568,-4.3615,-4.3615,-2.952,-2.9749,-3.0001,-3.0086,-3.0086,-3.0086,-3.0266,-3.0494,-3.0561,-3.073,-3.1091,-3.1452,-3.1705,-3.1705,-3.1705,-3.1693,-3.1693,-3.1705,-3.1705,-3.1705,-3.1705,-3.1705,-3.1705,-3.1705,-3.1705,-3.1705,-3.1705,-3.1705,-3.1705,-3.1705,-3.1749,-3.1705,-3.1749,-3.1957,-3.2531,-3.2778,-3.3194,-3.3733,-3.4027,-3.502,-3.6282,-3.6441,-3.6691,-3.6783,-3.6978,-3.6978,-3.6978,-3.6978,-3.6978,-3.7056,-3.7303,-3.7572,-3.7839,-3.7991,-3.8066,-3.8104,-3.8142,-3.8202,-3.8202,-3.8202,-3.8202,-3.8202,-3.8202,-3.8202,-3.8202,-3.8202,-3.8202,-3.8202,-3.8202,-3.8492,-3.8507,-3.8304,-3.8275,-3.8376,-3.8391,-3.8275,-3.8202,-3.8202,-3.8202,-3.8202,-3.8202,-3.824,-3.8329,-3.8329,-3.8464,-3.8501,-3.8686,-3.8885,-3.901,-3.9228,-3.9265,-3.9301,-3.9337,-3.9388,-3.9388,-3.9388,-3.9388,-3.9388,-3.9388,-3.9809,-4.027,-4.0718,-4.1075,-4.1227,-4.1393,-4.1624,-4.1835,-4.19,-4.2317,-4.2679,-4.2943,-4.3204,-4.3372,-4.3568,-4.3615,-2.8799,-2.9256,-2.9677,-2.9869,-2.9881,-2.9869,-2.9905,-2.9977,-2.9989,-3.0037,-3.0266,-3.1103,-3.1476,-3.1609,-3.1512,-3.1609,-3.1621,-3.1512,-3.156,-3.1705,-3.1705,-3.1705,-3.1705,-3.1705,-3.1705,-3.1705,-3.1705,-3.1705,-3.1705,-3.1705,-3.1705,-3.1705,-3.1705,-3.1705,-3.1957,-3.2326,-3.2834,-3.2993,-3.3395,-3.4361,-3.5115,-3.5696,-3.6282,-3.6691,-3.6978,-3.6978,-3.6978,-3.6978,-3.6978,-3.7056,-3.7226,-3.7457,-3.7625,-3.7801,-3.7853,-3.7877,-3.8028,-3.8104,-3.8142,-3.8179,-3.8202,-3.8202,-3.8202,-3.8202,-3.8202,-3.8202,-3.8202,-3.8202,-3.8202,-3.8275,-3.8289,-3.8231,-3.8246,-3.8318,-3.8304,-3.8217,-3.8202,-3.8202,-3.8202,-3.8202,-3.8202,-3.8202,-3.8202,-3.8202,-3.824,-3.824,-3.8329,-3.8441,-3.8627,-3.8922,-3.9104,-3.9177,-3.9228,-3.9301,-3.9388,-3.9388,-3.9388,-3.9388,-3.946,-3.9809,-4.0111,-4.025,-4.0478,-4.0839,-4.1008,-4.094,-4.1075,-4.116,-4.1689,-4.2158,-4.2679,-4.2943,-4.3174,-4.3342,-4.3539,-2.8558,-2.8667,-2.8775,-2.8823,-2.8847,-2.8835,-2.9051,-2.9412,-2.9448,-2.9677,-2.9989,-3.0218,-3.0633,-3.1043,-3.0543,-3.0687,-3.138,-3.1235,-3.1416,-3.1645,-3.1585,-3.1645,-3.1693,-3.1657,-3.1705,-3.1705,-3.1705,-3.1705,-3.1705,-3.1705,-3.1705,-3.1705,-3.1705,-3.1705,-3.1749,-3.2045,-3.212,-3.2239,-3.2401,-3.3122,-3.4444,-3.5237,-3.6203,-3.6652,-3.6978,-3.6978,-3.6978,-3.6978,-3.6978,-3.7056,-3.7187,-3.7394,-3.751,-3.7572,-3.7663,-3.7739,-3.7891,-3.8005,-3.8081,-3.8142,-3.8217,-3.8202,-3.8202,-3.8202,-3.8202,-3.8202,-3.8202,-3.8202,-3.8275,-3.8492,-3.8507,-3.8289,-3.8246,-3.8478,-3.8551,-3.8333,-3.8202,-3.8202,-3.8202,-3.8202,-3.8202,-3.8202,-3.8202,-3.824,-3.8277,-3.8329,-3.8366,-3.8478,-3.859,-3.876,-3.8907,-3.9031,-3.9156,-3.9265,-3.9337,-3.9388,-3.9388,-3.9388,-3.9424,-3.961,-3.9681,-3.9553,-3.9809,-4.0216,-4.0076,-3.9915,-4.0076,-4.0462,-4.0771,-4.1309,-4.219,-4.2679,-4.2881,-4.3005,-4.3113]}]]